<?xml version="1.0" encoding="UTF-8" standalone="no" ?>
<gpx xmlns="http://www.topografix.com/GPX/1/1" xmlns:xsi="http://www.w3.org/2001/XMLSchema-instance" xsi:schemaLocation="http://www.topografix.com/GPX/1/1 http://www.topografix.com/GPX/1/1/gpx.xsd" version="1.1" creator="VisuGPX - https://www.visugpx.com">
  <metadata>
    <name>La ronde des roches - 45km - BELBEUF 05/05/13</name>
    <desc><![CDATA[La ronde des roches Trace 45km - BELBEUF 05/05/13]]></desc>
  </metadata>
  <trk>
    <name><![CDATA[05-MAI-13 12:45:43]]></name>
    <trkseg>
      <trkpt lat="49.3887" lon="1.14077">
        <ele>142.89</ele>
        <time>2013-05-05T06:45:36Z</time>
      </trkpt>
      <trkpt lat="49.38869" lon="1.14079">
        <ele>142.89</ele>
        <time>2013-05-05T06:46:05Z</time>
      </trkpt>
      <trkpt lat="49.38871" lon="1.14078">
        <ele>142.89</ele>
        <time>2013-05-05T06:46:24Z</time>
      </trkpt>
      <trkpt lat="49.3887" lon="1.14076">
        <ele>142.89</ele>
        <time>2013-05-05T06:46:55Z</time>
      </trkpt>
      <trkpt lat="49.38871" lon="1.14078">
        <ele>142.89</ele>
        <time>2013-05-05T06:47:24Z</time>
      </trkpt>
      <trkpt lat="49.38872" lon="1.14071">
        <ele>142.89</ele>
        <time>2013-05-05T06:47:33Z</time>
      </trkpt>
      <trkpt lat="49.38876" lon="1.14063">
        <ele>142.41</ele>
        <time>2013-05-05T06:47:44Z</time>
      </trkpt>
      <trkpt lat="49.38875" lon="1.14061">
        <ele>142.41</ele>
        <time>2013-05-05T06:48:01Z</time>
      </trkpt>
      <trkpt lat="49.38876" lon="1.14059">
        <ele>142.41</ele>
        <time>2013-05-05T06:48:05Z</time>
      </trkpt>
      <trkpt lat="49.3888" lon="1.14053">
        <ele>141.93</ele>
        <time>2013-05-05T06:48:18Z</time>
      </trkpt>
      <trkpt lat="49.38881" lon="1.14054">
        <ele>142.41</ele>
        <time>2013-05-05T06:48:43Z</time>
      </trkpt>
      <trkpt lat="49.38881" lon="1.14052">
        <ele>141.93</ele>
        <time>2013-05-05T06:49:00Z</time>
      </trkpt>
      <trkpt lat="49.38878" lon="1.1405">
        <ele>141.93</ele>
        <time>2013-05-05T06:49:18Z</time>
      </trkpt>
      <trkpt lat="49.38888" lon="1.14047">
        <ele>141.93</ele>
        <time>2013-05-05T06:49:33Z</time>
      </trkpt>
      <trkpt lat="49.38896" lon="1.14041">
        <ele>141.45</ele>
        <time>2013-05-05T06:49:38Z</time>
      </trkpt>
      <trkpt lat="49.38897" lon="1.14037">
        <ele>141.45</ele>
        <time>2013-05-05T06:49:39Z</time>
      </trkpt>
      <trkpt lat="49.38883" lon="1.13972">
        <ele>140.49</ele>
        <time>2013-05-05T06:49:51Z</time>
      </trkpt>
      <trkpt lat="49.3886" lon="1.13887">
        <ele>139.53</ele>
        <time>2013-05-05T06:50:05Z</time>
      </trkpt>
      <trkpt lat="49.38829" lon="1.1378">
        <ele>138.09</ele>
        <time>2013-05-05T06:50:20Z</time>
      </trkpt>
      <trkpt lat="49.38819" lon="1.13747">
        <ele>137.13</ele>
        <time>2013-05-05T06:50:24Z</time>
      </trkpt>
      <trkpt lat="49.38815" lon="1.13739">
        <ele>136.64</ele>
        <time>2013-05-05T06:50:25Z</time>
      </trkpt>
      <trkpt lat="49.3881" lon="1.13732">
        <ele>136.16</ele>
        <time>2013-05-05T06:50:26Z</time>
      </trkpt>
      <trkpt lat="49.38806" lon="1.13725">
        <ele>136.16</ele>
        <time>2013-05-05T06:50:27Z</time>
      </trkpt>
      <trkpt lat="49.38801" lon="1.13719">
        <ele>136.16</ele>
        <time>2013-05-05T06:50:28Z</time>
      </trkpt>
      <trkpt lat="49.38795" lon="1.13714">
        <ele>135.68</ele>
        <time>2013-05-05T06:50:29Z</time>
      </trkpt>
      <trkpt lat="49.38788" lon="1.1371">
        <ele>135.2</ele>
        <time>2013-05-05T06:50:30Z</time>
      </trkpt>
      <trkpt lat="49.38781" lon="1.13708">
        <ele>135.2</ele>
        <time>2013-05-05T06:50:31Z</time>
      </trkpt>
      <trkpt lat="49.38774" lon="1.13705">
        <ele>134.72</ele>
        <time>2013-05-05T06:50:32Z</time>
      </trkpt>
      <trkpt lat="49.38767" lon="1.13704">
        <ele>134.24</ele>
        <time>2013-05-05T06:50:33Z</time>
      </trkpt>
      <trkpt lat="49.38685" lon="1.13678">
        <ele>130.88</ele>
        <time>2013-05-05T06:50:44Z</time>
      </trkpt>
      <trkpt lat="49.38642" lon="1.13655">
        <ele>131.36</ele>
        <time>2013-05-05T06:50:50Z</time>
      </trkpt>
      <trkpt lat="49.38637" lon="1.1365">
        <ele>131.36</ele>
        <time>2013-05-05T06:50:51Z</time>
      </trkpt>
      <trkpt lat="49.38631" lon="1.13644">
        <ele>131.36</ele>
        <time>2013-05-05T06:50:52Z</time>
      </trkpt>
      <trkpt lat="49.38592" lon="1.13597">
        <ele>132.8</ele>
        <time>2013-05-05T06:51:00Z</time>
      </trkpt>
      <trkpt lat="49.38572" lon="1.1358">
        <ele>133.76</ele>
        <time>2013-05-05T06:51:04Z</time>
      </trkpt>
      <trkpt lat="49.38523" lon="1.1353">
        <ele>135.2</ele>
        <time>2013-05-05T06:51:17Z</time>
      </trkpt>
      <trkpt lat="49.38466" lon="1.13486">
        <ele>133.76</ele>
        <time>2013-05-05T06:51:29Z</time>
      </trkpt>
      <trkpt lat="49.38378" lon="1.1341">
        <ele>134.24</ele>
        <time>2013-05-05T06:51:44Z</time>
      </trkpt>
      <trkpt lat="49.38368" lon="1.13403">
        <ele>134.24</ele>
        <time>2013-05-05T06:51:46Z</time>
      </trkpt>
      <trkpt lat="49.38363" lon="1.13401">
        <ele>134.24</ele>
        <time>2013-05-05T06:51:47Z</time>
      </trkpt>
      <trkpt lat="49.38358" lon="1.134">
        <ele>134.24</ele>
        <time>2013-05-05T06:51:48Z</time>
      </trkpt>
      <trkpt lat="49.38334" lon="1.13399">
        <ele>132.32</ele>
        <time>2013-05-05T06:51:57Z</time>
      </trkpt>
      <trkpt lat="49.38331" lon="1.13397">
        <ele>132.32</ele>
        <time>2013-05-05T06:51:59Z</time>
      </trkpt>
      <trkpt lat="49.3833" lon="1.13391">
        <ele>131.84</ele>
        <time>2013-05-05T06:52:04Z</time>
      </trkpt>
      <trkpt lat="49.3833" lon="1.1339">
        <ele>131.84</ele>
        <time>2013-05-05T06:52:05Z</time>
      </trkpt>
      <trkpt lat="49.38333" lon="1.1336">
        <ele>129.43</ele>
        <time>2013-05-05T06:52:15Z</time>
      </trkpt>
      <trkpt lat="49.38338" lon="1.13341">
        <ele>127.51</ele>
        <time>2013-05-05T06:52:20Z</time>
      </trkpt>
      <trkpt lat="49.38342" lon="1.13319">
        <ele>124.15</ele>
        <time>2013-05-05T06:52:27Z</time>
      </trkpt>
      <trkpt lat="49.38345" lon="1.13296">
        <ele>122.71</ele>
        <time>2013-05-05T06:52:39Z</time>
      </trkpt>
      <trkpt lat="49.38344" lon="1.13288">
        <ele>122.71</ele>
        <time>2013-05-05T06:52:50Z</time>
      </trkpt>
      <trkpt lat="49.38338" lon="1.13276">
        <ele>124.15</ele>
        <time>2013-05-05T06:53:04Z</time>
      </trkpt>
      <trkpt lat="49.38337" lon="1.13274">
        <ele>124.15</ele>
        <time>2013-05-05T06:53:07Z</time>
      </trkpt>
      <trkpt lat="49.38335" lon="1.13247">
        <ele>122.22</ele>
        <time>2013-05-05T06:53:13Z</time>
      </trkpt>
      <trkpt lat="49.38336" lon="1.13207">
        <ele>118.38</ele>
        <time>2013-05-05T06:53:20Z</time>
      </trkpt>
      <trkpt lat="49.38335" lon="1.13184">
        <ele>115.01</ele>
        <time>2013-05-05T06:53:26Z</time>
      </trkpt>
      <trkpt lat="49.3834" lon="1.13165">
        <ele>113.57</ele>
        <time>2013-05-05T06:53:30Z</time>
      </trkpt>
      <trkpt lat="49.38341" lon="1.13159">
        <ele>113.09</ele>
        <time>2013-05-05T06:53:31Z</time>
      </trkpt>
      <trkpt lat="49.38319" lon="1.13153">
        <ele>111.65</ele>
        <time>2013-05-05T06:53:38Z</time>
      </trkpt>
      <trkpt lat="49.38307" lon="1.1317">
        <ele>111.17</ele>
        <time>2013-05-05T06:53:44Z</time>
      </trkpt>
      <trkpt lat="49.38295" lon="1.13191">
        <ele>107.81</ele>
        <time>2013-05-05T06:53:50Z</time>
      </trkpt>
      <trkpt lat="49.38286" lon="1.13209">
        <ele>104.92</ele>
        <time>2013-05-05T06:53:53Z</time>
      </trkpt>
      <trkpt lat="49.38281" lon="1.13212">
        <ele>103.96</ele>
        <time>2013-05-05T06:53:54Z</time>
      </trkpt>
      <trkpt lat="49.38267" lon="1.13213">
        <ele>102.04</ele>
        <time>2013-05-05T06:53:57Z</time>
      </trkpt>
      <trkpt lat="49.3826" lon="1.13203">
        <ele>99.63</ele>
        <time>2013-05-05T06:54:02Z</time>
      </trkpt>
      <trkpt lat="49.38262" lon="1.13202">
        <ele>99.63</ele>
        <time>2013-05-05T06:54:03Z</time>
      </trkpt>
      <trkpt lat="49.38266" lon="1.13201">
        <ele>98.19</ele>
        <time>2013-05-05T06:54:05Z</time>
      </trkpt>
      <trkpt lat="49.38263" lon="1.13182">
        <ele>94.83</ele>
        <time>2013-05-05T06:54:10Z</time>
      </trkpt>
      <trkpt lat="49.38238" lon="1.13182">
        <ele>90.98</ele>
        <time>2013-05-05T06:54:16Z</time>
      </trkpt>
      <trkpt lat="49.38234" lon="1.13164">
        <ele>88.1</ele>
        <time>2013-05-05T06:54:21Z</time>
      </trkpt>
      <trkpt lat="49.38229" lon="1.13144">
        <ele>84.73</ele>
        <time>2013-05-05T06:54:25Z</time>
      </trkpt>
      <trkpt lat="49.38226" lon="1.13139">
        <ele>84.25</ele>
        <time>2013-05-05T06:54:26Z</time>
      </trkpt>
      <trkpt lat="49.38223" lon="1.13136">
        <ele>83.77</ele>
        <time>2013-05-05T06:54:27Z</time>
      </trkpt>
      <trkpt lat="49.38218" lon="1.13132">
        <ele>82.81</ele>
        <time>2013-05-05T06:54:28Z</time>
      </trkpt>
      <trkpt lat="49.38214" lon="1.13129">
        <ele>82.81</ele>
        <time>2013-05-05T06:54:29Z</time>
      </trkpt>
      <trkpt lat="49.38211" lon="1.13124">
        <ele>82.33</ele>
        <time>2013-05-05T06:54:30Z</time>
      </trkpt>
      <trkpt lat="49.38209" lon="1.13118">
        <ele>81.37</ele>
        <time>2013-05-05T06:54:31Z</time>
      </trkpt>
      <trkpt lat="49.38209" lon="1.13111">
        <ele>81.37</ele>
        <time>2013-05-05T06:54:32Z</time>
      </trkpt>
      <trkpt lat="49.38209" lon="1.13104">
        <ele>80.89</ele>
        <time>2013-05-05T06:54:33Z</time>
      </trkpt>
      <trkpt lat="49.38208" lon="1.13098">
        <ele>80.41</ele>
        <time>2013-05-05T06:54:34Z</time>
      </trkpt>
      <trkpt lat="49.38207" lon="1.13091">
        <ele>80.41</ele>
        <time>2013-05-05T06:54:35Z</time>
      </trkpt>
      <trkpt lat="49.38207" lon="1.13084">
        <ele>79.93</ele>
        <time>2013-05-05T06:54:36Z</time>
      </trkpt>
      <trkpt lat="49.38208" lon="1.13077">
        <ele>79.45</ele>
        <time>2013-05-05T06:54:37Z</time>
      </trkpt>
      <trkpt lat="49.38207" lon="1.13058">
        <ele>79.93</ele>
        <time>2013-05-05T06:54:41Z</time>
      </trkpt>
      <trkpt lat="49.38206" lon="1.13053">
        <ele>80.41</ele>
        <time>2013-05-05T06:54:42Z</time>
      </trkpt>
      <trkpt lat="49.38205" lon="1.13049">
        <ele>80.41</ele>
        <time>2013-05-05T06:54:43Z</time>
      </trkpt>
      <trkpt lat="49.382" lon="1.13004">
        <ele>80.89</ele>
        <time>2013-05-05T06:54:53Z</time>
      </trkpt>
      <trkpt lat="49.38201" lon="1.13001">
        <ele>80.89</ele>
        <time>2013-05-05T06:54:54Z</time>
      </trkpt>
      <trkpt lat="49.38201" lon="1.12996">
        <ele>80.41</ele>
        <time>2013-05-05T06:54:55Z</time>
      </trkpt>
      <trkpt lat="49.38201" lon="1.12991">
        <ele>80.41</ele>
        <time>2013-05-05T06:54:56Z</time>
      </trkpt>
      <trkpt lat="49.38201" lon="1.12987">
        <ele>80.89</ele>
        <time>2013-05-05T06:54:57Z</time>
      </trkpt>
      <trkpt lat="49.382" lon="1.12983">
        <ele>80.89</ele>
        <time>2013-05-05T06:54:58Z</time>
      </trkpt>
      <trkpt lat="49.38188" lon="1.12956">
        <ele>82.33</ele>
        <time>2013-05-05T06:55:06Z</time>
      </trkpt>
      <trkpt lat="49.38188" lon="1.12933">
        <ele>82.81</ele>
        <time>2013-05-05T06:55:14Z</time>
      </trkpt>
      <trkpt lat="49.38192" lon="1.12932">
        <ele>80.89</ele>
        <time>2013-05-05T06:55:18Z</time>
      </trkpt>
      <trkpt lat="49.38194" lon="1.12931">
        <ele>80.41</ele>
        <time>2013-05-05T06:55:20Z</time>
      </trkpt>
      <trkpt lat="49.38197" lon="1.12927">
        <ele>79.45</ele>
        <time>2013-05-05T06:55:25Z</time>
      </trkpt>
      <trkpt lat="49.38204" lon="1.12913">
        <ele>81.37</ele>
        <time>2013-05-05T06:55:30Z</time>
      </trkpt>
      <trkpt lat="49.38206" lon="1.12911">
        <ele>81.37</ele>
        <time>2013-05-05T06:55:31Z</time>
      </trkpt>
      <trkpt lat="49.38218" lon="1.12904">
        <ele>81.85</ele>
        <time>2013-05-05T06:55:35Z</time>
      </trkpt>
      <trkpt lat="49.38226" lon="1.12884">
        <ele>80.89</ele>
        <time>2013-05-05T06:55:39Z</time>
      </trkpt>
      <trkpt lat="49.38228" lon="1.12854">
        <ele>81.85</ele>
        <time>2013-05-05T06:55:44Z</time>
      </trkpt>
      <trkpt lat="49.38231" lon="1.12833">
        <ele>82.81</ele>
        <time>2013-05-05T06:55:51Z</time>
      </trkpt>
      <trkpt lat="49.38233" lon="1.12819">
        <ele>84.25</ele>
        <time>2013-05-05T06:55:56Z</time>
      </trkpt>
      <trkpt lat="49.38233" lon="1.12809">
        <ele>86.18</ele>
        <time>2013-05-05T06:56:01Z</time>
      </trkpt>
      <trkpt lat="49.38229" lon="1.12791">
        <ele>90.02</ele>
        <time>2013-05-05T06:56:11Z</time>
      </trkpt>
      <trkpt lat="49.38228" lon="1.12786">
        <ele>90.5</ele>
        <time>2013-05-05T06:56:21Z</time>
      </trkpt>
      <trkpt lat="49.38231" lon="1.12783">
        <ele>90.5</ele>
        <time>2013-05-05T06:56:26Z</time>
      </trkpt>
      <trkpt lat="49.3823" lon="1.1278">
        <ele>90.98</ele>
        <time>2013-05-05T06:56:29Z</time>
      </trkpt>
      <trkpt lat="49.3822" lon="1.12775">
        <ele>94.35</ele>
        <time>2013-05-05T06:56:42Z</time>
      </trkpt>
      <trkpt lat="49.38211" lon="1.12779">
        <ele>97.23</ele>
        <time>2013-05-05T06:56:56Z</time>
      </trkpt>
      <trkpt lat="49.38199" lon="1.12782">
        <ele>100.11</ele>
        <time>2013-05-05T06:57:09Z</time>
      </trkpt>
      <trkpt lat="49.38194" lon="1.12783">
        <ele>101.08</ele>
        <time>2013-05-05T06:57:16Z</time>
      </trkpt>
      <trkpt lat="49.38187" lon="1.12789">
        <ele>100.6</ele>
        <time>2013-05-05T06:57:21Z</time>
      </trkpt>
      <trkpt lat="49.38177" lon="1.12797">
        <ele>100.6</ele>
        <time>2013-05-05T06:57:25Z</time>
      </trkpt>
      <trkpt lat="49.38169" lon="1.12804">
        <ele>99.63</ele>
        <time>2013-05-05T06:57:27Z</time>
      </trkpt>
      <trkpt lat="49.38145" lon="1.12824">
        <ele>100.11</ele>
        <time>2013-05-05T06:57:34Z</time>
      </trkpt>
      <trkpt lat="49.38121" lon="1.12853">
        <ele>103</ele>
        <time>2013-05-05T06:57:45Z</time>
      </trkpt>
      <trkpt lat="49.38099" lon="1.12881">
        <ele>104.92</ele>
        <time>2013-05-05T06:57:56Z</time>
      </trkpt>
      <trkpt lat="49.38079" lon="1.12891">
        <ele>107.32</ele>
        <time>2013-05-05T06:58:06Z</time>
      </trkpt>
      <trkpt lat="49.38065" lon="1.12893">
        <ele>108.29</ele>
        <time>2013-05-05T06:58:12Z</time>
      </trkpt>
      <trkpt lat="49.38056" lon="1.12906">
        <ele>109.25</ele>
        <time>2013-05-05T06:58:20Z</time>
      </trkpt>
      <trkpt lat="49.38051" lon="1.12915">
        <ele>110.21</ele>
        <time>2013-05-05T06:58:27Z</time>
      </trkpt>
      <trkpt lat="49.38053" lon="1.12919">
        <ele>111.65</ele>
        <time>2013-05-05T06:58:30Z</time>
      </trkpt>
      <trkpt lat="49.38051" lon="1.12933">
        <ele>111.17</ele>
        <time>2013-05-05T06:58:35Z</time>
      </trkpt>
      <trkpt lat="49.38052" lon="1.12977">
        <ele>112.13</ele>
        <time>2013-05-05T06:58:47Z</time>
      </trkpt>
      <trkpt lat="49.38052" lon="1.12997">
        <ele>115.5</ele>
        <time>2013-05-05T06:58:57Z</time>
      </trkpt>
      <trkpt lat="49.38055" lon="1.13022">
        <ele>118.86</ele>
        <time>2013-05-05T06:59:08Z</time>
      </trkpt>
      <trkpt lat="49.38056" lon="1.13028">
        <ele>119.82</ele>
        <time>2013-05-05T06:59:11Z</time>
      </trkpt>
      <trkpt lat="49.38058" lon="1.13032">
        <ele>120.3</ele>
        <time>2013-05-05T06:59:14Z</time>
      </trkpt>
      <trkpt lat="49.38063" lon="1.13036">
        <ele>122.22</ele>
        <time>2013-05-05T06:59:19Z</time>
      </trkpt>
      <trkpt lat="49.38067" lon="1.13067">
        <ele>125.11</ele>
        <time>2013-05-05T06:59:31Z</time>
      </trkpt>
      <trkpt lat="49.38063" lon="1.13086">
        <ele>126.07</ele>
        <time>2013-05-05T06:59:39Z</time>
      </trkpt>
      <trkpt lat="49.38062" lon="1.1309">
        <ele>126.07</ele>
        <time>2013-05-05T06:59:42Z</time>
      </trkpt>
      <trkpt lat="49.38061" lon="1.13094">
        <ele>127.03</ele>
        <time>2013-05-05T06:59:44Z</time>
      </trkpt>
      <trkpt lat="49.38046" lon="1.1313">
        <ele>128.95</ele>
        <time>2013-05-05T06:59:58Z</time>
      </trkpt>
      <trkpt lat="49.38045" lon="1.13133">
        <ele>128.95</ele>
        <time>2013-05-05T06:59:59Z</time>
      </trkpt>
      <trkpt lat="49.3804" lon="1.13139">
        <ele>129.92</ele>
        <time>2013-05-05T07:00:03Z</time>
      </trkpt>
      <trkpt lat="49.38034" lon="1.13152">
        <ele>133.28</ele>
        <time>2013-05-05T07:00:11Z</time>
      </trkpt>
      <trkpt lat="49.38035" lon="1.13175">
        <ele>134.24</ele>
        <time>2013-05-05T07:00:18Z</time>
      </trkpt>
      <trkpt lat="49.38034" lon="1.13225">
        <ele>135.68</ele>
        <time>2013-05-05T07:00:30Z</time>
      </trkpt>
      <trkpt lat="49.38036" lon="1.13245">
        <ele>135.68</ele>
        <time>2013-05-05T07:00:35Z</time>
      </trkpt>
      <trkpt lat="49.38041" lon="1.13276">
        <ele>136.16</ele>
        <time>2013-05-05T07:00:42Z</time>
      </trkpt>
      <trkpt lat="49.38043" lon="1.13293">
        <ele>136.16</ele>
        <time>2013-05-05T07:00:46Z</time>
      </trkpt>
      <trkpt lat="49.3804" lon="1.13306">
        <ele>136.16</ele>
        <time>2013-05-05T07:00:50Z</time>
      </trkpt>
      <trkpt lat="49.38052" lon="1.13361">
        <ele>136.64</ele>
        <time>2013-05-05T07:01:01Z</time>
      </trkpt>
      <trkpt lat="49.38056" lon="1.13387">
        <ele>136.64</ele>
        <time>2013-05-05T07:01:06Z</time>
      </trkpt>
      <trkpt lat="49.38104" lon="1.13453">
        <ele>135.68</ele>
        <time>2013-05-05T07:01:19Z</time>
      </trkpt>
      <trkpt lat="49.38149" lon="1.13496">
        <ele>136.16</ele>
        <time>2013-05-05T07:01:30Z</time>
      </trkpt>
      <trkpt lat="49.38191" lon="1.13536">
        <ele>137.61</ele>
        <time>2013-05-05T07:01:41Z</time>
      </trkpt>
      <trkpt lat="49.38217" lon="1.13586">
        <ele>139.05</ele>
        <time>2013-05-05T07:01:52Z</time>
      </trkpt>
      <trkpt lat="49.3822" lon="1.13597">
        <ele>139.53</ele>
        <time>2013-05-05T07:01:54Z</time>
      </trkpt>
      <trkpt lat="49.38251" lon="1.13696">
        <ele>139.53</ele>
        <time>2013-05-05T07:02:08Z</time>
      </trkpt>
      <trkpt lat="49.38299" lon="1.13772">
        <ele>140.97</ele>
        <time>2013-05-05T07:02:22Z</time>
      </trkpt>
      <trkpt lat="49.38349" lon="1.13825">
        <ele>142.89</ele>
        <time>2013-05-05T07:02:35Z</time>
      </trkpt>
      <trkpt lat="49.3839" lon="1.13874">
        <ele>143.85</ele>
        <time>2013-05-05T07:02:46Z</time>
      </trkpt>
      <trkpt lat="49.38443" lon="1.13958">
        <ele>144.82</ele>
        <time>2013-05-05T07:03:03Z</time>
      </trkpt>
      <trkpt lat="49.38446" lon="1.13962">
        <ele>144.82</ele>
        <time>2013-05-05T07:03:05Z</time>
      </trkpt>
      <trkpt lat="49.38447" lon="1.13961">
        <ele>144.82</ele>
        <time>2013-05-05T07:03:06Z</time>
      </trkpt>
      <trkpt lat="49.38448" lon="1.13959">
        <ele>145.3</ele>
        <time>2013-05-05T07:03:07Z</time>
      </trkpt>
      <trkpt lat="49.38447" lon="1.13956">
        <ele>144.82</ele>
        <time>2013-05-05T07:03:08Z</time>
      </trkpt>
      <trkpt lat="49.38445" lon="1.13954">
        <ele>144.82</ele>
        <time>2013-05-05T07:03:09Z</time>
      </trkpt>
      <trkpt lat="49.38443" lon="1.1395">
        <ele>144.82</ele>
        <time>2013-05-05T07:03:10Z</time>
      </trkpt>
      <trkpt lat="49.38433" lon="1.13939">
        <ele>144.82</ele>
        <time>2013-05-05T07:03:14Z</time>
      </trkpt>
      <trkpt lat="49.3843" lon="1.1394">
        <ele>144.82</ele>
        <time>2013-05-05T07:03:15Z</time>
      </trkpt>
      <trkpt lat="49.38428" lon="1.13944">
        <ele>144.82</ele>
        <time>2013-05-05T07:03:16Z</time>
      </trkpt>
      <trkpt lat="49.38414" lon="1.13964">
        <ele>144.82</ele>
        <time>2013-05-05T07:03:21Z</time>
      </trkpt>
      <trkpt lat="49.38411" lon="1.13969">
        <ele>144.82</ele>
        <time>2013-05-05T07:03:22Z</time>
      </trkpt>
      <trkpt lat="49.38408" lon="1.13975">
        <ele>144.34</ele>
        <time>2013-05-05T07:03:23Z</time>
      </trkpt>
      <trkpt lat="49.38344" lon="1.14077">
        <ele>141.93</ele>
        <time>2013-05-05T07:03:40Z</time>
      </trkpt>
      <trkpt lat="49.38312" lon="1.14128">
        <ele>140.49</ele>
        <time>2013-05-05T07:03:48Z</time>
      </trkpt>
      <trkpt lat="49.3831" lon="1.14133">
        <ele>140.01</ele>
        <time>2013-05-05T07:03:49Z</time>
      </trkpt>
      <trkpt lat="49.38309" lon="1.1414">
        <ele>140.01</ele>
        <time>2013-05-05T07:03:50Z</time>
      </trkpt>
      <trkpt lat="49.38311" lon="1.14147">
        <ele>139.53</ele>
        <time>2013-05-05T07:03:51Z</time>
      </trkpt>
      <trkpt lat="49.38315" lon="1.14153">
        <ele>139.53</ele>
        <time>2013-05-05T07:03:52Z</time>
      </trkpt>
      <trkpt lat="49.38319" lon="1.14158">
        <ele>139.53</ele>
        <time>2013-05-05T07:03:53Z</time>
      </trkpt>
      <trkpt lat="49.38323" lon="1.14165">
        <ele>139.05</ele>
        <time>2013-05-05T07:03:54Z</time>
      </trkpt>
      <trkpt lat="49.38326" lon="1.14172">
        <ele>139.53</ele>
        <time>2013-05-05T07:03:55Z</time>
      </trkpt>
      <trkpt lat="49.38353" lon="1.14244">
        <ele>140.49</ele>
        <time>2013-05-05T07:04:05Z</time>
      </trkpt>
      <trkpt lat="49.38356" lon="1.14259">
        <ele>140.97</ele>
        <time>2013-05-05T07:04:07Z</time>
      </trkpt>
      <trkpt lat="49.38361" lon="1.14273">
        <ele>141.45</ele>
        <time>2013-05-05T07:04:09Z</time>
      </trkpt>
      <trkpt lat="49.38376" lon="1.14311">
        <ele>142.41</ele>
        <time>2013-05-05T07:04:15Z</time>
      </trkpt>
      <trkpt lat="49.3838" lon="1.14315">
        <ele>142.41</ele>
        <time>2013-05-05T07:04:16Z</time>
      </trkpt>
      <trkpt lat="49.38385" lon="1.14317">
        <ele>142.41</ele>
        <time>2013-05-05T07:04:17Z</time>
      </trkpt>
      <trkpt lat="49.38394" lon="1.14322">
        <ele>142.41</ele>
        <time>2013-05-05T07:04:19Z</time>
      </trkpt>
      <trkpt lat="49.38398" lon="1.14327">
        <ele>142.41</ele>
        <time>2013-05-05T07:04:20Z</time>
      </trkpt>
      <trkpt lat="49.38403" lon="1.14333">
        <ele>141.93</ele>
        <time>2013-05-05T07:04:21Z</time>
      </trkpt>
      <trkpt lat="49.38406" lon="1.1434">
        <ele>141.93</ele>
        <time>2013-05-05T07:04:22Z</time>
      </trkpt>
      <trkpt lat="49.38409" lon="1.14348">
        <ele>141.45</ele>
        <time>2013-05-05T07:04:23Z</time>
      </trkpt>
      <trkpt lat="49.3841" lon="1.14358">
        <ele>141.45</ele>
        <time>2013-05-05T07:04:24Z</time>
      </trkpt>
      <trkpt lat="49.38412" lon="1.14368">
        <ele>140.97</ele>
        <time>2013-05-05T07:04:25Z</time>
      </trkpt>
      <trkpt lat="49.38414" lon="1.14378">
        <ele>140.97</ele>
        <time>2013-05-05T07:04:26Z</time>
      </trkpt>
      <trkpt lat="49.38417" lon="1.14386">
        <ele>140.49</ele>
        <time>2013-05-05T07:04:27Z</time>
      </trkpt>
      <trkpt lat="49.38421" lon="1.14394">
        <ele>140.49</ele>
        <time>2013-05-05T07:04:28Z</time>
      </trkpt>
      <trkpt lat="49.38426" lon="1.14401">
        <ele>140.49</ele>
        <time>2013-05-05T07:04:29Z</time>
      </trkpt>
      <trkpt lat="49.3843" lon="1.14408">
        <ele>140.49</ele>
        <time>2013-05-05T07:04:30Z</time>
      </trkpt>
      <trkpt lat="49.38465" lon="1.14444">
        <ele>143.85</ele>
        <time>2013-05-05T07:04:38Z</time>
      </trkpt>
      <trkpt lat="49.38478" lon="1.14454">
        <ele>144.34</ele>
        <time>2013-05-05T07:04:41Z</time>
      </trkpt>
      <trkpt lat="49.38482" lon="1.14455">
        <ele>144.82</ele>
        <time>2013-05-05T07:04:42Z</time>
      </trkpt>
      <trkpt lat="49.38486" lon="1.14453">
        <ele>144.82</ele>
        <time>2013-05-05T07:04:43Z</time>
      </trkpt>
      <trkpt lat="49.38499" lon="1.14447">
        <ele>145.3</ele>
        <time>2013-05-05T07:04:46Z</time>
      </trkpt>
      <trkpt lat="49.38504" lon="1.14447">
        <ele>145.3</ele>
        <time>2013-05-05T07:04:47Z</time>
      </trkpt>
      <trkpt lat="49.38509" lon="1.14449">
        <ele>145.3</ele>
        <time>2013-05-05T07:04:48Z</time>
      </trkpt>
      <trkpt lat="49.38513" lon="1.14452">
        <ele>145.3</ele>
        <time>2013-05-05T07:04:49Z</time>
      </trkpt>
      <trkpt lat="49.38518" lon="1.14457">
        <ele>145.78</ele>
        <time>2013-05-05T07:04:50Z</time>
      </trkpt>
      <trkpt lat="49.38522" lon="1.14461">
        <ele>145.78</ele>
        <time>2013-05-05T07:04:51Z</time>
      </trkpt>
      <trkpt lat="49.38589" lon="1.14538">
        <ele>146.26</ele>
        <time>2013-05-05T07:05:08Z</time>
      </trkpt>
      <trkpt lat="49.38591" lon="1.14543">
        <ele>146.26</ele>
        <time>2013-05-05T07:05:09Z</time>
      </trkpt>
      <trkpt lat="49.38592" lon="1.1455">
        <ele>145.78</ele>
        <time>2013-05-05T07:05:10Z</time>
      </trkpt>
      <trkpt lat="49.38591" lon="1.14557">
        <ele>145.78</ele>
        <time>2013-05-05T07:05:11Z</time>
      </trkpt>
      <trkpt lat="49.3859" lon="1.14563">
        <ele>145.78</ele>
        <time>2013-05-05T07:05:12Z</time>
      </trkpt>
      <trkpt lat="49.38589" lon="1.1457">
        <ele>145.78</ele>
        <time>2013-05-05T07:05:13Z</time>
      </trkpt>
      <trkpt lat="49.38587" lon="1.14576">
        <ele>145.3</ele>
        <time>2013-05-05T07:05:14Z</time>
      </trkpt>
      <trkpt lat="49.38583" lon="1.14599">
        <ele>143.85</ele>
        <time>2013-05-05T07:05:21Z</time>
      </trkpt>
      <trkpt lat="49.38595" lon="1.14609">
        <ele>140.01</ele>
        <time>2013-05-05T07:05:27Z</time>
      </trkpt>
      <trkpt lat="49.38609" lon="1.14621">
        <ele>135.68</ele>
        <time>2013-05-05T07:05:31Z</time>
      </trkpt>
      <trkpt lat="49.38613" lon="1.14625">
        <ele>135.2</ele>
        <time>2013-05-05T07:05:32Z</time>
      </trkpt>
      <trkpt lat="49.38623" lon="1.14635">
        <ele>132.8</ele>
        <time>2013-05-05T07:05:35Z</time>
      </trkpt>
      <trkpt lat="49.38645" lon="1.14653">
        <ele>128.47</ele>
        <time>2013-05-05T07:05:40Z</time>
      </trkpt>
      <trkpt lat="49.38655" lon="1.14664">
        <ele>125.11</ele>
        <time>2013-05-05T07:05:44Z</time>
      </trkpt>
      <trkpt lat="49.38657" lon="1.14667">
        <ele>125.11</ele>
        <time>2013-05-05T07:05:45Z</time>
      </trkpt>
      <trkpt lat="49.38661" lon="1.14674">
        <ele>122.22</ele>
        <time>2013-05-05T07:05:49Z</time>
      </trkpt>
      <trkpt lat="49.38649" lon="1.14678">
        <ele>118.38</ele>
        <time>2013-05-05T07:05:54Z</time>
      </trkpt>
      <trkpt lat="49.38641" lon="1.14685">
        <ele>115.5</ele>
        <time>2013-05-05T07:05:57Z</time>
      </trkpt>
      <trkpt lat="49.38639" lon="1.14687">
        <ele>114.53</ele>
        <time>2013-05-05T07:05:58Z</time>
      </trkpt>
      <trkpt lat="49.38636" lon="1.14701">
        <ele>110.69</ele>
        <time>2013-05-05T07:06:03Z</time>
      </trkpt>
      <trkpt lat="49.38637" lon="1.14722">
        <ele>107.32</ele>
        <time>2013-05-05T07:06:07Z</time>
      </trkpt>
      <trkpt lat="49.3864" lon="1.14738">
        <ele>103.48</ele>
        <time>2013-05-05T07:06:10Z</time>
      </trkpt>
      <trkpt lat="49.38643" lon="1.14753">
        <ele>100.11</ele>
        <time>2013-05-05T07:06:13Z</time>
      </trkpt>
      <trkpt lat="49.38646" lon="1.14772">
        <ele>96.75</ele>
        <time>2013-05-05T07:06:17Z</time>
      </trkpt>
      <trkpt lat="49.38649" lon="1.14788">
        <ele>93.39</ele>
        <time>2013-05-05T07:06:21Z</time>
      </trkpt>
      <trkpt lat="49.38652" lon="1.14803">
        <ele>90.5</ele>
        <time>2013-05-05T07:06:25Z</time>
      </trkpt>
      <trkpt lat="49.38655" lon="1.1482">
        <ele>88.1</ele>
        <time>2013-05-05T07:06:38Z</time>
      </trkpt>
      <trkpt lat="49.38662" lon="1.14834">
        <ele>85.21</ele>
        <time>2013-05-05T07:06:44Z</time>
      </trkpt>
      <trkpt lat="49.38674" lon="1.14852">
        <ele>84.25</ele>
        <time>2013-05-05T07:06:56Z</time>
      </trkpt>
      <trkpt lat="49.38677" lon="1.14858">
        <ele>83.77</ele>
        <time>2013-05-05T07:06:58Z</time>
      </trkpt>
      <trkpt lat="49.38693" lon="1.14881">
        <ele>80.41</ele>
        <time>2013-05-05T07:07:06Z</time>
      </trkpt>
      <trkpt lat="49.38698" lon="1.14887">
        <ele>78.97</ele>
        <time>2013-05-05T07:07:08Z</time>
      </trkpt>
      <trkpt lat="49.38707" lon="1.14896">
        <ele>78</ele>
        <time>2013-05-05T07:07:21Z</time>
      </trkpt>
      <trkpt lat="49.38707" lon="1.14906">
        <ele>75.12</ele>
        <time>2013-05-05T07:07:33Z</time>
      </trkpt>
      <trkpt lat="49.38706" lon="1.14915">
        <ele>72.24</ele>
        <time>2013-05-05T07:07:42Z</time>
      </trkpt>
      <trkpt lat="49.38706" lon="1.14918">
        <ele>71.27</ele>
        <time>2013-05-05T07:07:44Z</time>
      </trkpt>
      <trkpt lat="49.38702" lon="1.14925">
        <ele>67.43</ele>
        <time>2013-05-05T07:07:49Z</time>
      </trkpt>
      <trkpt lat="49.387" lon="1.14936">
        <ele>65.51</ele>
        <time>2013-05-05T07:07:52Z</time>
      </trkpt>
      <trkpt lat="49.3868" lon="1.14931">
        <ele>64.55</ele>
        <time>2013-05-05T07:08:00Z</time>
      </trkpt>
      <trkpt lat="49.38663" lon="1.14917">
        <ele>64.55</ele>
        <time>2013-05-05T07:08:06Z</time>
      </trkpt>
      <trkpt lat="49.38633" lon="1.14897">
        <ele>64.07</ele>
        <time>2013-05-05T07:08:14Z</time>
      </trkpt>
      <trkpt lat="49.38623" lon="1.14896">
        <ele>63.1</ele>
        <time>2013-05-05T07:08:16Z</time>
      </trkpt>
      <trkpt lat="49.38575" lon="1.14886">
        <ele>62.62</ele>
        <time>2013-05-05T07:08:27Z</time>
      </trkpt>
      <trkpt lat="49.38554" lon="1.14881">
        <ele>62.14</ele>
        <time>2013-05-05T07:08:33Z</time>
      </trkpt>
      <trkpt lat="49.38511" lon="1.14887">
        <ele>60.7</ele>
        <time>2013-05-05T07:08:42Z</time>
      </trkpt>
      <trkpt lat="49.38454" lon="1.14889">
        <ele>59.74</ele>
        <time>2013-05-05T07:08:53Z</time>
      </trkpt>
      <trkpt lat="49.38449" lon="1.14888">
        <ele>59.26</ele>
        <time>2013-05-05T07:08:54Z</time>
      </trkpt>
      <trkpt lat="49.38426" lon="1.14884">
        <ele>58.3</ele>
        <time>2013-05-05T07:08:58Z</time>
      </trkpt>
      <trkpt lat="49.38404" lon="1.14887">
        <ele>57.82</ele>
        <time>2013-05-05T07:09:02Z</time>
      </trkpt>
      <trkpt lat="49.38381" lon="1.14879">
        <ele>56.86</ele>
        <time>2013-05-05T07:09:06Z</time>
      </trkpt>
      <trkpt lat="49.38359" lon="1.14851">
        <ele>56.37</ele>
        <time>2013-05-05T07:09:11Z</time>
      </trkpt>
      <trkpt lat="49.38341" lon="1.14827">
        <ele>55.89</ele>
        <time>2013-05-05T07:09:15Z</time>
      </trkpt>
      <trkpt lat="49.38329" lon="1.14809">
        <ele>55.41</ele>
        <time>2013-05-05T07:09:18Z</time>
      </trkpt>
      <trkpt lat="49.3831" lon="1.14772">
        <ele>53.01</ele>
        <time>2013-05-05T07:09:23Z</time>
      </trkpt>
      <trkpt lat="49.38277" lon="1.14703">
        <ele>51.09</ele>
        <time>2013-05-05T07:09:32Z</time>
      </trkpt>
      <trkpt lat="49.38268" lon="1.14687">
        <ele>50.61</ele>
        <time>2013-05-05T07:09:34Z</time>
      </trkpt>
      <trkpt lat="49.3825" lon="1.14658">
        <ele>49.16</ele>
        <time>2013-05-05T07:09:38Z</time>
      </trkpt>
      <trkpt lat="49.38234" lon="1.14612">
        <ele>48.68</ele>
        <time>2013-05-05T07:09:44Z</time>
      </trkpt>
      <trkpt lat="49.38197" lon="1.14529">
        <ele>45.8</ele>
        <time>2013-05-05T07:09:54Z</time>
      </trkpt>
      <trkpt lat="49.3818" lon="1.14494">
        <ele>45.32</ele>
        <time>2013-05-05T07:09:59Z</time>
      </trkpt>
      <trkpt lat="49.38168" lon="1.14464">
        <ele>44.84</ele>
        <time>2013-05-05T07:10:03Z</time>
      </trkpt>
      <trkpt lat="49.38152" lon="1.14437">
        <ele>43.88</ele>
        <time>2013-05-05T07:10:08Z</time>
      </trkpt>
      <trkpt lat="49.38138" lon="1.14416">
        <ele>43.4</ele>
        <time>2013-05-05T07:10:12Z</time>
      </trkpt>
      <trkpt lat="49.38119" lon="1.14383">
        <ele>42.92</ele>
        <time>2013-05-05T07:10:18Z</time>
      </trkpt>
      <trkpt lat="49.38101" lon="1.14361">
        <ele>41.95</ele>
        <time>2013-05-05T07:10:23Z</time>
      </trkpt>
      <trkpt lat="49.38092" lon="1.14354">
        <ele>41.95</ele>
        <time>2013-05-05T07:10:25Z</time>
      </trkpt>
      <trkpt lat="49.38074" lon="1.14337">
        <ele>41.47</ele>
        <time>2013-05-05T07:10:29Z</time>
      </trkpt>
      <trkpt lat="49.38066" lon="1.14328">
        <ele>41.47</ele>
        <time>2013-05-05T07:10:31Z</time>
      </trkpt>
      <trkpt lat="49.38041" lon="1.14294">
        <ele>40.51</ele>
        <time>2013-05-05T07:10:37Z</time>
      </trkpt>
      <trkpt lat="49.38018" lon="1.14262">
        <ele>39.55</ele>
        <time>2013-05-05T07:10:43Z</time>
      </trkpt>
      <trkpt lat="49.37992" lon="1.14229">
        <ele>38.59</ele>
        <time>2013-05-05T07:10:48Z</time>
      </trkpt>
      <trkpt lat="49.37927" lon="1.14159">
        <ele>37.63</ele>
        <time>2013-05-05T07:11:01Z</time>
      </trkpt>
      <trkpt lat="49.3792" lon="1.14149">
        <ele>37.15</ele>
        <time>2013-05-05T07:11:03Z</time>
      </trkpt>
      <trkpt lat="49.37909" lon="1.1413">
        <ele>37.15</ele>
        <time>2013-05-05T07:11:06Z</time>
      </trkpt>
      <trkpt lat="49.37871" lon="1.14085">
        <ele>36.19</ele>
        <time>2013-05-05T07:11:13Z</time>
      </trkpt>
      <trkpt lat="49.37861" lon="1.14075">
        <ele>36.19</ele>
        <time>2013-05-05T07:11:15Z</time>
      </trkpt>
      <trkpt lat="49.37851" lon="1.14065">
        <ele>36.19</ele>
        <time>2013-05-05T07:11:17Z</time>
      </trkpt>
      <trkpt lat="49.37831" lon="1.14053">
        <ele>36.19</ele>
        <time>2013-05-05T07:11:21Z</time>
      </trkpt>
      <trkpt lat="49.37821" lon="1.14049">
        <ele>35.71</ele>
        <time>2013-05-05T07:11:23Z</time>
      </trkpt>
      <trkpt lat="49.37817" lon="1.14046">
        <ele>35.71</ele>
        <time>2013-05-05T07:11:24Z</time>
      </trkpt>
      <trkpt lat="49.37814" lon="1.14043">
        <ele>35.71</ele>
        <time>2013-05-05T07:11:25Z</time>
      </trkpt>
      <trkpt lat="49.37813" lon="1.14038">
        <ele>36.19</ele>
        <time>2013-05-05T07:11:26Z</time>
      </trkpt>
      <trkpt lat="49.37812" lon="1.14034">
        <ele>36.19</ele>
        <time>2013-05-05T07:11:27Z</time>
      </trkpt>
      <trkpt lat="49.37813" lon="1.1403">
        <ele>36.19</ele>
        <time>2013-05-05T07:11:28Z</time>
      </trkpt>
      <trkpt lat="49.37814" lon="1.14027">
        <ele>36.67</ele>
        <time>2013-05-05T07:11:29Z</time>
      </trkpt>
      <trkpt lat="49.37816" lon="1.14025">
        <ele>37.15</ele>
        <time>2013-05-05T07:11:30Z</time>
      </trkpt>
      <trkpt lat="49.37818" lon="1.14023">
        <ele>37.63</ele>
        <time>2013-05-05T07:11:31Z</time>
      </trkpt>
      <trkpt lat="49.37819" lon="1.1402">
        <ele>37.63</ele>
        <time>2013-05-05T07:11:32Z</time>
      </trkpt>
      <trkpt lat="49.3782" lon="1.14018">
        <ele>38.11</ele>
        <time>2013-05-05T07:11:33Z</time>
      </trkpt>
      <trkpt lat="49.37821" lon="1.14015">
        <ele>38.59</ele>
        <time>2013-05-05T07:11:34Z</time>
      </trkpt>
      <trkpt lat="49.37822" lon="1.14013">
        <ele>39.07</ele>
        <time>2013-05-05T07:11:35Z</time>
      </trkpt>
      <trkpt lat="49.37822" lon="1.1401">
        <ele>39.55</ele>
        <time>2013-05-05T07:11:37Z</time>
      </trkpt>
      <trkpt lat="49.37822" lon="1.14008">
        <ele>40.03</ele>
        <time>2013-05-05T07:11:50Z</time>
      </trkpt>
      <trkpt lat="49.37821" lon="1.14007">
        <ele>40.03</ele>
        <time>2013-05-05T07:12:03Z</time>
      </trkpt>
      <trkpt lat="49.37826" lon="1.13995">
        <ele>41.95</ele>
        <time>2013-05-05T07:12:09Z</time>
      </trkpt>
      <trkpt lat="49.37828" lon="1.13992">
        <ele>42.92</ele>
        <time>2013-05-05T07:12:11Z</time>
      </trkpt>
      <trkpt lat="49.37829" lon="1.13989">
        <ele>43.4</ele>
        <time>2013-05-05T07:12:12Z</time>
      </trkpt>
      <trkpt lat="49.3783" lon="1.13986">
        <ele>43.88</ele>
        <time>2013-05-05T07:12:13Z</time>
      </trkpt>
      <trkpt lat="49.37837" lon="1.13967">
        <ele>46.76</ele>
        <time>2013-05-05T07:12:22Z</time>
      </trkpt>
      <trkpt lat="49.37843" lon="1.13949">
        <ele>50.13</ele>
        <time>2013-05-05T07:12:30Z</time>
      </trkpt>
      <trkpt lat="49.3785" lon="1.13932">
        <ele>53.49</ele>
        <time>2013-05-05T07:12:39Z</time>
      </trkpt>
      <trkpt lat="49.37851" lon="1.13929">
        <ele>54.45</ele>
        <time>2013-05-05T07:12:41Z</time>
      </trkpt>
      <trkpt lat="49.37855" lon="1.13917">
        <ele>57.34</ele>
        <time>2013-05-05T07:12:49Z</time>
      </trkpt>
      <trkpt lat="49.37855" lon="1.13915">
        <ele>57.82</ele>
        <time>2013-05-05T07:12:50Z</time>
      </trkpt>
      <trkpt lat="49.37855" lon="1.13913">
        <ele>58.3</ele>
        <time>2013-05-05T07:12:51Z</time>
      </trkpt>
      <trkpt lat="49.37855" lon="1.13911">
        <ele>58.3</ele>
        <time>2013-05-05T07:12:52Z</time>
      </trkpt>
      <trkpt lat="49.37856" lon="1.13909">
        <ele>59.26</ele>
        <time>2013-05-05T07:12:54Z</time>
      </trkpt>
      <trkpt lat="49.37861" lon="1.13894">
        <ele>62.62</ele>
        <time>2013-05-05T07:13:04Z</time>
      </trkpt>
      <trkpt lat="49.37862" lon="1.13891">
        <ele>63.1</ele>
        <time>2013-05-05T07:13:06Z</time>
      </trkpt>
      <trkpt lat="49.37864" lon="1.13887">
        <ele>63.58</ele>
        <time>2013-05-05T07:13:08Z</time>
      </trkpt>
      <trkpt lat="49.37871" lon="1.13871">
        <ele>66.95</ele>
        <time>2013-05-05T07:13:16Z</time>
      </trkpt>
      <trkpt lat="49.37875" lon="1.13862">
        <ele>68.39</ele>
        <time>2013-05-05T07:13:27Z</time>
      </trkpt>
      <trkpt lat="49.37879" lon="1.13851">
        <ele>69.83</ele>
        <time>2013-05-05T07:13:41Z</time>
      </trkpt>
      <trkpt lat="49.37884" lon="1.13838">
        <ele>72.72</ele>
        <time>2013-05-05T07:13:48Z</time>
      </trkpt>
      <trkpt lat="49.37873" lon="1.13834">
        <ele>70.31</ele>
        <time>2013-05-05T07:13:52Z</time>
      </trkpt>
      <trkpt lat="49.37838" lon="1.1385">
        <ele>71.76</ele>
        <time>2013-05-05T07:14:02Z</time>
      </trkpt>
      <trkpt lat="49.37815" lon="1.13869">
        <ele>74.16</ele>
        <time>2013-05-05T07:14:13Z</time>
      </trkpt>
      <trkpt lat="49.37794" lon="1.13879">
        <ele>70.79</ele>
        <time>2013-05-05T07:14:20Z</time>
      </trkpt>
      <trkpt lat="49.37791" lon="1.13877">
        <ele>70.31</ele>
        <time>2013-05-05T07:14:21Z</time>
      </trkpt>
      <trkpt lat="49.37787" lon="1.13873">
        <ele>69.35</ele>
        <time>2013-05-05T07:14:22Z</time>
      </trkpt>
      <trkpt lat="49.37776" lon="1.13865">
        <ele>67.91</ele>
        <time>2013-05-05T07:14:24Z</time>
      </trkpt>
      <trkpt lat="49.37772" lon="1.13861">
        <ele>68.39</ele>
        <time>2013-05-05T07:14:25Z</time>
      </trkpt>
      <trkpt lat="49.37758" lon="1.13849">
        <ele>67.43</ele>
        <time>2013-05-05T07:14:28Z</time>
      </trkpt>
      <trkpt lat="49.37753" lon="1.13846">
        <ele>66.95</ele>
        <time>2013-05-05T07:14:29Z</time>
      </trkpt>
      <trkpt lat="49.37748" lon="1.13844">
        <ele>66.47</ele>
        <time>2013-05-05T07:14:30Z</time>
      </trkpt>
      <trkpt lat="49.37743" lon="1.13845">
        <ele>65.51</ele>
        <time>2013-05-05T07:14:31Z</time>
      </trkpt>
      <trkpt lat="49.37739" lon="1.13848">
        <ele>65.03</ele>
        <time>2013-05-05T07:14:32Z</time>
      </trkpt>
      <trkpt lat="49.37736" lon="1.13854">
        <ele>64.55</ele>
        <time>2013-05-05T07:14:33Z</time>
      </trkpt>
      <trkpt lat="49.37733" lon="1.13859">
        <ele>63.1</ele>
        <time>2013-05-05T07:14:34Z</time>
      </trkpt>
      <trkpt lat="49.37731" lon="1.13866">
        <ele>62.14</ele>
        <time>2013-05-05T07:14:35Z</time>
      </trkpt>
      <trkpt lat="49.37728" lon="1.13872">
        <ele>61.66</ele>
        <time>2013-05-05T07:14:36Z</time>
      </trkpt>
      <trkpt lat="49.37725" lon="1.13878">
        <ele>61.66</ele>
        <time>2013-05-05T07:14:37Z</time>
      </trkpt>
      <trkpt lat="49.3772" lon="1.13882">
        <ele>61.18</ele>
        <time>2013-05-05T07:14:38Z</time>
      </trkpt>
      <trkpt lat="49.37714" lon="1.13885">
        <ele>61.18</ele>
        <time>2013-05-05T07:14:39Z</time>
      </trkpt>
      <trkpt lat="49.37708" lon="1.13886">
        <ele>60.7</ele>
        <time>2013-05-05T07:14:40Z</time>
      </trkpt>
      <trkpt lat="49.37702" lon="1.13888">
        <ele>59.74</ele>
        <time>2013-05-05T07:14:41Z</time>
      </trkpt>
      <trkpt lat="49.37695" lon="1.13889">
        <ele>59.74</ele>
        <time>2013-05-05T07:14:42Z</time>
      </trkpt>
      <trkpt lat="49.37665" lon="1.13886">
        <ele>56.37</ele>
        <time>2013-05-05T07:14:46Z</time>
      </trkpt>
      <trkpt lat="49.37629" lon="1.13874">
        <ele>52.53</ele>
        <time>2013-05-05T07:14:50Z</time>
      </trkpt>
      <trkpt lat="49.376" lon="1.13863">
        <ele>48.68</ele>
        <time>2013-05-05T07:14:53Z</time>
      </trkpt>
      <trkpt lat="49.37568" lon="1.13848">
        <ele>45.32</ele>
        <time>2013-05-05T07:14:56Z</time>
      </trkpt>
      <trkpt lat="49.37534" lon="1.13834">
        <ele>41.95</ele>
        <time>2013-05-05T07:14:59Z</time>
      </trkpt>
      <trkpt lat="49.37489" lon="1.13815">
        <ele>38.11</ele>
        <time>2013-05-05T07:15:03Z</time>
      </trkpt>
      <trkpt lat="49.3748" lon="1.13808">
        <ele>37.15</ele>
        <time>2013-05-05T07:15:04Z</time>
      </trkpt>
      <trkpt lat="49.3747" lon="1.13799">
        <ele>36.19</ele>
        <time>2013-05-05T07:15:05Z</time>
      </trkpt>
      <trkpt lat="49.37463" lon="1.1379">
        <ele>35.71</ele>
        <time>2013-05-05T07:15:06Z</time>
      </trkpt>
      <trkpt lat="49.37457" lon="1.13781">
        <ele>35.71</ele>
        <time>2013-05-05T07:15:07Z</time>
      </trkpt>
      <trkpt lat="49.37446" lon="1.13753">
        <ele>35.71</ele>
        <time>2013-05-05T07:15:13Z</time>
      </trkpt>
      <trkpt lat="49.37447" lon="1.13751">
        <ele>36.19</ele>
        <time>2013-05-05T07:15:14Z</time>
      </trkpt>
      <trkpt lat="49.37452" lon="1.13743">
        <ele>39.55</ele>
        <time>2013-05-05T07:15:20Z</time>
      </trkpt>
      <trkpt lat="49.37456" lon="1.1373">
        <ele>42.92</ele>
        <time>2013-05-05T07:15:27Z</time>
      </trkpt>
      <trkpt lat="49.37457" lon="1.13728">
        <ele>43.4</ele>
        <time>2013-05-05T07:15:29Z</time>
      </trkpt>
      <trkpt lat="49.3747" lon="1.13725">
        <ele>47.24</ele>
        <time>2013-05-05T07:15:39Z</time>
      </trkpt>
      <trkpt lat="49.37475" lon="1.1372">
        <ele>49.65</ele>
        <time>2013-05-05T07:15:45Z</time>
      </trkpt>
      <trkpt lat="49.37474" lon="1.13711">
        <ele>50.61</ele>
        <time>2013-05-05T07:15:49Z</time>
      </trkpt>
      <trkpt lat="49.37466" lon="1.13682">
        <ele>53.01</ele>
        <time>2013-05-05T07:16:02Z</time>
      </trkpt>
      <trkpt lat="49.37463" lon="1.13678">
        <ele>53.97</ele>
        <time>2013-05-05T07:16:09Z</time>
      </trkpt>
      <trkpt lat="49.37454" lon="1.13665">
        <ele>57.82</ele>
        <time>2013-05-05T07:16:21Z</time>
      </trkpt>
      <trkpt lat="49.37454" lon="1.13665">
        <ele>57.82</ele>
        <time>2013-05-05T07:16:22Z</time>
      </trkpt>
      <trkpt lat="49.37446" lon="1.13652">
        <ele>61.18</ele>
        <time>2013-05-05T07:16:35Z</time>
      </trkpt>
      <trkpt lat="49.37444" lon="1.13638">
        <ele>62.14</ele>
        <time>2013-05-05T07:16:49Z</time>
      </trkpt>
      <trkpt lat="49.37442" lon="1.1363">
        <ele>63.58</ele>
        <time>2013-05-05T07:16:55Z</time>
      </trkpt>
      <trkpt lat="49.37437" lon="1.1361">
        <ele>66.95</ele>
        <time>2013-05-05T07:17:10Z</time>
      </trkpt>
      <trkpt lat="49.37435" lon="1.13604">
        <ele>67.91</ele>
        <time>2013-05-05T07:17:25Z</time>
      </trkpt>
      <trkpt lat="49.37434" lon="1.13602">
        <ele>67.91</ele>
        <time>2013-05-05T07:17:43Z</time>
      </trkpt>
      <trkpt lat="49.37435" lon="1.13602">
        <ele>67.91</ele>
        <time>2013-05-05T07:17:47Z</time>
      </trkpt>
      <trkpt lat="49.37435" lon="1.136">
        <ele>67.91</ele>
        <time>2013-05-05T07:17:49Z</time>
      </trkpt>
      <trkpt lat="49.37432" lon="1.13578">
        <ele>71.27</ele>
        <time>2013-05-05T07:18:03Z</time>
      </trkpt>
      <trkpt lat="49.37428" lon="1.13558">
        <ele>74.16</ele>
        <time>2013-05-05T07:18:17Z</time>
      </trkpt>
      <trkpt lat="49.37424" lon="1.13539">
        <ele>77.52</ele>
        <time>2013-05-05T07:18:30Z</time>
      </trkpt>
      <trkpt lat="49.37418" lon="1.13523">
        <ele>80.41</ele>
        <time>2013-05-05T07:18:42Z</time>
      </trkpt>
      <trkpt lat="49.37415" lon="1.13501">
        <ele>83.29</ele>
        <time>2013-05-05T07:18:56Z</time>
      </trkpt>
      <trkpt lat="49.37418" lon="1.13476">
        <ele>86.66</ele>
        <time>2013-05-05T07:19:12Z</time>
      </trkpt>
      <trkpt lat="49.37417" lon="1.13474">
        <ele>86.66</ele>
        <time>2013-05-05T07:19:27Z</time>
      </trkpt>
      <trkpt lat="49.37419" lon="1.1346">
        <ele>88.58</ele>
        <time>2013-05-05T07:19:43Z</time>
      </trkpt>
      <trkpt lat="49.37413" lon="1.13437">
        <ele>90.5</ele>
        <time>2013-05-05T07:19:56Z</time>
      </trkpt>
      <trkpt lat="49.37392" lon="1.13396">
        <ele>90.5</ele>
        <time>2013-05-05T07:20:08Z</time>
      </trkpt>
      <trkpt lat="49.37381" lon="1.13339">
        <ele>92.9</ele>
        <time>2013-05-05T07:20:20Z</time>
      </trkpt>
      <trkpt lat="49.37365" lon="1.1327">
        <ele>95.31</ele>
        <time>2013-05-05T07:20:34Z</time>
      </trkpt>
      <trkpt lat="49.37352" lon="1.13201">
        <ele>96.75</ele>
        <time>2013-05-05T07:20:46Z</time>
      </trkpt>
      <trkpt lat="49.37345" lon="1.13134">
        <ele>99.63</ele>
        <time>2013-05-05T07:20:59Z</time>
      </trkpt>
      <trkpt lat="49.37346" lon="1.13116">
        <ele>101.08</ele>
        <time>2013-05-05T07:21:04Z</time>
      </trkpt>
      <trkpt lat="49.37349" lon="1.13099">
        <ele>104.44</ele>
        <time>2013-05-05T07:21:11Z</time>
      </trkpt>
      <trkpt lat="49.3735" lon="1.13087">
        <ele>106.36</ele>
        <time>2013-05-05T07:21:16Z</time>
      </trkpt>
      <trkpt lat="49.37344" lon="1.13049">
        <ele>108.29</ele>
        <time>2013-05-05T07:21:31Z</time>
      </trkpt>
      <trkpt lat="49.37332" lon="1.13012">
        <ele>110.69</ele>
        <time>2013-05-05T07:21:44Z</time>
      </trkpt>
      <trkpt lat="49.37333" lon="1.12995">
        <ele>113.09</ele>
        <time>2013-05-05T07:21:51Z</time>
      </trkpt>
      <trkpt lat="49.37333" lon="1.12992">
        <ele>114.53</ele>
        <time>2013-05-05T07:22:01Z</time>
      </trkpt>
      <trkpt lat="49.37339" lon="1.12983">
        <ele>117.42</ele>
        <time>2013-05-05T07:22:11Z</time>
      </trkpt>
      <trkpt lat="49.37342" lon="1.12977">
        <ele>117.9</ele>
        <time>2013-05-05T07:22:24Z</time>
      </trkpt>
      <trkpt lat="49.37343" lon="1.12978">
        <ele>117.9</ele>
        <time>2013-05-05T07:22:38Z</time>
      </trkpt>
      <trkpt lat="49.37345" lon="1.12978">
        <ele>118.86</ele>
        <time>2013-05-05T07:22:55Z</time>
      </trkpt>
      <trkpt lat="49.37345" lon="1.12982">
        <ele>118.38</ele>
        <time>2013-05-05T07:23:22Z</time>
      </trkpt>
      <trkpt lat="49.37343" lon="1.12979">
        <ele>118.38</ele>
        <time>2013-05-05T07:24:07Z</time>
      </trkpt>
      <trkpt lat="49.37345" lon="1.12977">
        <ele>118.38</ele>
        <time>2013-05-05T07:24:49Z</time>
      </trkpt>
      <trkpt lat="49.37347" lon="1.12976">
        <ele>118.38</ele>
        <time>2013-05-05T07:25:19Z</time>
      </trkpt>
      <trkpt lat="49.37344" lon="1.12979">
        <ele>117.42</ele>
        <time>2013-05-05T07:25:41Z</time>
      </trkpt>
      <trkpt lat="49.37325" lon="1.12957">
        <ele>115.01</ele>
        <time>2013-05-05T07:25:48Z</time>
      </trkpt>
      <trkpt lat="49.37314" lon="1.12943">
        <ele>114.53</ele>
        <time>2013-05-05T07:25:51Z</time>
      </trkpt>
      <trkpt lat="49.37304" lon="1.12939">
        <ele>113.09</ele>
        <time>2013-05-05T07:25:53Z</time>
      </trkpt>
      <trkpt lat="49.37281" lon="1.1293">
        <ele>108.77</ele>
        <time>2013-05-05T07:25:57Z</time>
      </trkpt>
      <trkpt lat="49.37244" lon="1.12905">
        <ele>104.92</ele>
        <time>2013-05-05T07:26:03Z</time>
      </trkpt>
      <trkpt lat="49.37208" lon="1.12871">
        <ele>105.88</ele>
        <time>2013-05-05T07:26:13Z</time>
      </trkpt>
      <trkpt lat="49.37192" lon="1.12851">
        <ele>107.32</ele>
        <time>2013-05-05T07:26:21Z</time>
      </trkpt>
      <trkpt lat="49.3719" lon="1.12849">
        <ele>107.32</ele>
        <time>2013-05-05T07:26:33Z</time>
      </trkpt>
      <trkpt lat="49.3719" lon="1.1285">
        <ele>107.32</ele>
        <time>2013-05-05T07:27:02Z</time>
      </trkpt>
      <trkpt lat="49.3719" lon="1.12851">
        <ele>107.32</ele>
        <time>2013-05-05T07:27:25Z</time>
      </trkpt>
      <trkpt lat="49.3719" lon="1.12851">
        <ele>107.32</ele>
        <time>2013-05-05T07:27:27Z</time>
      </trkpt>
      <trkpt lat="49.3718" lon="1.12851">
        <ele>106.36</ele>
        <time>2013-05-05T07:27:32Z</time>
      </trkpt>
      <trkpt lat="49.37165" lon="1.12851">
        <ele>103.48</ele>
        <time>2013-05-05T07:27:35Z</time>
      </trkpt>
      <trkpt lat="49.37148" lon="1.12844">
        <ele>101.08</ele>
        <time>2013-05-05T07:27:38Z</time>
      </trkpt>
      <trkpt lat="49.37143" lon="1.12841">
        <ele>100.6</ele>
        <time>2013-05-05T07:27:39Z</time>
      </trkpt>
      <trkpt lat="49.37123" lon="1.12848">
        <ele>96.27</ele>
        <time>2013-05-05T07:27:46Z</time>
      </trkpt>
      <trkpt lat="49.37113" lon="1.12855">
        <ele>92.42</ele>
        <time>2013-05-05T07:27:49Z</time>
      </trkpt>
      <trkpt lat="49.3711" lon="1.12856">
        <ele>91.46</ele>
        <time>2013-05-05T07:27:50Z</time>
      </trkpt>
      <trkpt lat="49.37111" lon="1.12872">
        <ele>87.62</ele>
        <time>2013-05-05T07:27:58Z</time>
      </trkpt>
      <trkpt lat="49.37162" lon="1.12919">
        <ele>87.62</ele>
        <time>2013-05-05T07:28:12Z</time>
      </trkpt>
      <trkpt lat="49.37183" lon="1.12938">
        <ele>87.62</ele>
        <time>2013-05-05T07:28:17Z</time>
      </trkpt>
      <trkpt lat="49.37206" lon="1.12953">
        <ele>88.1</ele>
        <time>2013-05-05T07:28:23Z</time>
      </trkpt>
      <trkpt lat="49.3722" lon="1.1296">
        <ele>90.5</ele>
        <time>2013-05-05T07:28:28Z</time>
      </trkpt>
      <trkpt lat="49.37222" lon="1.12962">
        <ele>90.5</ele>
        <time>2013-05-05T07:28:33Z</time>
      </trkpt>
      <trkpt lat="49.3722" lon="1.12966">
        <ele>89.54</ele>
        <time>2013-05-05T07:28:38Z</time>
      </trkpt>
      <trkpt lat="49.3721" lon="1.12967">
        <ele>87.62</ele>
        <time>2013-05-05T07:28:42Z</time>
      </trkpt>
      <trkpt lat="49.3719" lon="1.12963">
        <ele>83.29</ele>
        <time>2013-05-05T07:28:47Z</time>
      </trkpt>
      <trkpt lat="49.37171" lon="1.12955">
        <ele>80.41</ele>
        <time>2013-05-05T07:28:52Z</time>
      </trkpt>
      <trkpt lat="49.37158" lon="1.1295">
        <ele>78.48</ele>
        <time>2013-05-05T07:28:56Z</time>
      </trkpt>
      <trkpt lat="49.37148" lon="1.12947">
        <ele>76.56</ele>
        <time>2013-05-05T07:29:00Z</time>
      </trkpt>
      <trkpt lat="49.37132" lon="1.12948">
        <ele>73.2</ele>
        <time>2013-05-05T07:29:06Z</time>
      </trkpt>
      <trkpt lat="49.37121" lon="1.12949">
        <ele>70.31</ele>
        <time>2013-05-05T07:29:11Z</time>
      </trkpt>
      <trkpt lat="49.37108" lon="1.12951">
        <ele>66.95</ele>
        <time>2013-05-05T07:29:16Z</time>
      </trkpt>
      <trkpt lat="49.37096" lon="1.12954">
        <ele>63.58</ele>
        <time>2013-05-05T07:29:21Z</time>
      </trkpt>
      <trkpt lat="49.37085" lon="1.12954">
        <ele>60.22</ele>
        <time>2013-05-05T07:29:25Z</time>
      </trkpt>
      <trkpt lat="49.37074" lon="1.12957">
        <ele>56.86</ele>
        <time>2013-05-05T07:29:29Z</time>
      </trkpt>
      <trkpt lat="49.37064" lon="1.12959">
        <ele>53.01</ele>
        <time>2013-05-05T07:29:33Z</time>
      </trkpt>
      <trkpt lat="49.37052" lon="1.1296">
        <ele>49.65</ele>
        <time>2013-05-05T07:29:38Z</time>
      </trkpt>
      <trkpt lat="49.37043" lon="1.12958">
        <ele>46.28</ele>
        <time>2013-05-05T07:29:42Z</time>
      </trkpt>
      <trkpt lat="49.37033" lon="1.12958">
        <ele>42.92</ele>
        <time>2013-05-05T07:29:46Z</time>
      </trkpt>
      <trkpt lat="49.37023" lon="1.12957">
        <ele>40.03</ele>
        <time>2013-05-05T07:29:50Z</time>
      </trkpt>
      <trkpt lat="49.3701" lon="1.12954">
        <ele>36.67</ele>
        <time>2013-05-05T07:29:55Z</time>
      </trkpt>
      <trkpt lat="49.36998" lon="1.1295">
        <ele>34.26</ele>
        <time>2013-05-05T07:29:59Z</time>
      </trkpt>
      <trkpt lat="49.36986" lon="1.12946">
        <ele>30.9</ele>
        <time>2013-05-05T07:30:04Z</time>
      </trkpt>
      <trkpt lat="49.36976" lon="1.12943">
        <ele>28.02</ele>
        <time>2013-05-05T07:30:08Z</time>
      </trkpt>
      <trkpt lat="49.36966" lon="1.12939">
        <ele>24.17</ele>
        <time>2013-05-05T07:30:13Z</time>
      </trkpt>
      <trkpt lat="49.36956" lon="1.12931">
        <ele>21.29</ele>
        <time>2013-05-05T07:30:19Z</time>
      </trkpt>
      <trkpt lat="49.36945" lon="1.1292">
        <ele>17.44</ele>
        <time>2013-05-05T07:30:25Z</time>
      </trkpt>
      <trkpt lat="49.36935" lon="1.12909">
        <ele>14.56</ele>
        <time>2013-05-05T07:30:29Z</time>
      </trkpt>
      <trkpt lat="49.36932" lon="1.12905">
        <ele>13.6</ele>
        <time>2013-05-05T07:30:30Z</time>
      </trkpt>
      <trkpt lat="49.36914" lon="1.12881">
        <ele>10.71</ele>
        <time>2013-05-05T07:30:35Z</time>
      </trkpt>
      <trkpt lat="49.36906" lon="1.12873">
        <ele>9.75</ele>
        <time>2013-05-05T07:30:38Z</time>
      </trkpt>
      <trkpt lat="49.36903" lon="1.12875">
        <ele>9.75</ele>
        <time>2013-05-05T07:30:39Z</time>
      </trkpt>
      <trkpt lat="49.36869" lon="1.1291">
        <ele>10.23</ele>
        <time>2013-05-05T07:30:52Z</time>
      </trkpt>
      <trkpt lat="49.36868" lon="1.12913">
        <ele>9.75</ele>
        <time>2013-05-05T07:30:53Z</time>
      </trkpt>
      <trkpt lat="49.36868" lon="1.12917">
        <ele>9.75</ele>
        <time>2013-05-05T07:30:54Z</time>
      </trkpt>
      <trkpt lat="49.3687" lon="1.1292">
        <ele>10.23</ele>
        <time>2013-05-05T07:30:55Z</time>
      </trkpt>
      <trkpt lat="49.36871" lon="1.12925">
        <ele>10.23</ele>
        <time>2013-05-05T07:30:56Z</time>
      </trkpt>
      <trkpt lat="49.36873" lon="1.12931">
        <ele>10.23</ele>
        <time>2013-05-05T07:30:57Z</time>
      </trkpt>
      <trkpt lat="49.36872" lon="1.12976">
        <ele>12.63</ele>
        <time>2013-05-05T07:31:05Z</time>
      </trkpt>
      <trkpt lat="49.36869" lon="1.1298">
        <ele>12.63</ele>
        <time>2013-05-05T07:31:06Z</time>
      </trkpt>
      <trkpt lat="49.36866" lon="1.12981">
        <ele>13.12</ele>
        <time>2013-05-05T07:31:07Z</time>
      </trkpt>
      <trkpt lat="49.36863" lon="1.1298">
        <ele>13.6</ele>
        <time>2013-05-05T07:31:08Z</time>
      </trkpt>
      <trkpt lat="49.36861" lon="1.12978">
        <ele>14.08</ele>
        <time>2013-05-05T07:31:09Z</time>
      </trkpt>
      <trkpt lat="49.36859" lon="1.12976">
        <ele>14.56</ele>
        <time>2013-05-05T07:31:10Z</time>
      </trkpt>
      <trkpt lat="49.36856" lon="1.12974">
        <ele>14.56</ele>
        <time>2013-05-05T07:31:11Z</time>
      </trkpt>
      <trkpt lat="49.36836" lon="1.12954">
        <ele>17.92</ele>
        <time>2013-05-05T07:31:21Z</time>
      </trkpt>
      <trkpt lat="49.36812" lon="1.12946">
        <ele>21.29</ele>
        <time>2013-05-05T07:31:32Z</time>
      </trkpt>
      <trkpt lat="49.36802" lon="1.12946">
        <ele>22.73</ele>
        <time>2013-05-05T07:31:38Z</time>
      </trkpt>
      <trkpt lat="49.36801" lon="1.12947">
        <ele>23.21</ele>
        <time>2013-05-05T07:31:39Z</time>
      </trkpt>
      <trkpt lat="49.368" lon="1.12948">
        <ele>23.21</ele>
        <time>2013-05-05T07:31:40Z</time>
      </trkpt>
      <trkpt lat="49.36782" lon="1.12962">
        <ele>26.57</ele>
        <time>2013-05-05T07:31:53Z</time>
      </trkpt>
      <trkpt lat="49.36768" lon="1.12979">
        <ele>28.98</ele>
        <time>2013-05-05T07:32:04Z</time>
      </trkpt>
      <trkpt lat="49.36764" lon="1.12985">
        <ele>29.46</ele>
        <time>2013-05-05T07:32:08Z</time>
      </trkpt>
      <trkpt lat="49.3676" lon="1.12986">
        <ele>30.42</ele>
        <time>2013-05-05T07:32:11Z</time>
      </trkpt>
      <trkpt lat="49.36748" lon="1.13008">
        <ele>33.3</ele>
        <time>2013-05-05T07:32:24Z</time>
      </trkpt>
      <trkpt lat="49.36737" lon="1.13032">
        <ele>36.19</ele>
        <time>2013-05-05T07:32:36Z</time>
      </trkpt>
      <trkpt lat="49.36727" lon="1.1305">
        <ele>37.63</ele>
        <time>2013-05-05T07:32:49Z</time>
      </trkpt>
      <trkpt lat="49.36725" lon="1.13058">
        <ele>38.59</ele>
        <time>2013-05-05T07:32:56Z</time>
      </trkpt>
      <trkpt lat="49.36723" lon="1.13067">
        <ele>39.55</ele>
        <time>2013-05-05T07:33:03Z</time>
      </trkpt>
      <trkpt lat="49.36721" lon="1.13072">
        <ele>40.03</ele>
        <time>2013-05-05T07:33:06Z</time>
      </trkpt>
      <trkpt lat="49.36715" lon="1.13083">
        <ele>40.99</ele>
        <time>2013-05-05T07:33:11Z</time>
      </trkpt>
      <trkpt lat="49.36711" lon="1.13091">
        <ele>41.95</ele>
        <time>2013-05-05T07:33:14Z</time>
      </trkpt>
      <trkpt lat="49.36703" lon="1.1311">
        <ele>43.88</ele>
        <time>2013-05-05T07:33:23Z</time>
      </trkpt>
      <trkpt lat="49.36695" lon="1.13136">
        <ele>46.28</ele>
        <time>2013-05-05T07:33:33Z</time>
      </trkpt>
      <trkpt lat="49.36687" lon="1.13163">
        <ele>48.2</ele>
        <time>2013-05-05T07:33:44Z</time>
      </trkpt>
      <trkpt lat="49.36685" lon="1.13179">
        <ele>49.65</ele>
        <time>2013-05-05T07:33:56Z</time>
      </trkpt>
      <trkpt lat="49.36684" lon="1.13194">
        <ele>50.61</ele>
        <time>2013-05-05T07:34:03Z</time>
      </trkpt>
      <trkpt lat="49.36685" lon="1.13228">
        <ele>53.97</ele>
        <time>2013-05-05T07:34:16Z</time>
      </trkpt>
      <trkpt lat="49.36687" lon="1.13259">
        <ele>56.37</ele>
        <time>2013-05-05T07:34:28Z</time>
      </trkpt>
      <trkpt lat="49.36688" lon="1.13266">
        <ele>57.34</ele>
        <time>2013-05-05T07:34:31Z</time>
      </trkpt>
      <trkpt lat="49.36697" lon="1.13302">
        <ele>60.7</ele>
        <time>2013-05-05T07:34:47Z</time>
      </trkpt>
      <trkpt lat="49.367" lon="1.13315">
        <ele>61.66</ele>
        <time>2013-05-05T07:34:52Z</time>
      </trkpt>
      <trkpt lat="49.36709" lon="1.13347">
        <ele>65.03</ele>
        <time>2013-05-05T07:35:06Z</time>
      </trkpt>
      <trkpt lat="49.3672" lon="1.13377">
        <ele>67.91</ele>
        <time>2013-05-05T07:35:20Z</time>
      </trkpt>
      <trkpt lat="49.36724" lon="1.13387">
        <ele>68.87</ele>
        <time>2013-05-05T07:35:35Z</time>
      </trkpt>
      <trkpt lat="49.36727" lon="1.13396">
        <ele>70.31</ele>
        <time>2013-05-05T07:35:53Z</time>
      </trkpt>
      <trkpt lat="49.36733" lon="1.13411">
        <ele>72.24</ele>
        <time>2013-05-05T07:36:01Z</time>
      </trkpt>
      <trkpt lat="49.36735" lon="1.13418">
        <ele>72.72</ele>
        <time>2013-05-05T07:36:05Z</time>
      </trkpt>
      <trkpt lat="49.36745" lon="1.13447">
        <ele>76.08</ele>
        <time>2013-05-05T07:36:18Z</time>
      </trkpt>
      <trkpt lat="49.36757" lon="1.13477">
        <ele>78.97</ele>
        <time>2013-05-05T07:36:31Z</time>
      </trkpt>
      <trkpt lat="49.36763" lon="1.13501">
        <ele>81.85</ele>
        <time>2013-05-05T07:36:43Z</time>
      </trkpt>
      <trkpt lat="49.36763" lon="1.13501">
        <ele>81.85</ele>
        <time>2013-05-05T07:36:49Z</time>
      </trkpt>
      <trkpt lat="49.36765" lon="1.13507">
        <ele>82.33</ele>
        <time>2013-05-05T07:36:54Z</time>
      </trkpt>
      <trkpt lat="49.36771" lon="1.13535">
        <ele>85.69</ele>
        <time>2013-05-05T07:37:06Z</time>
      </trkpt>
      <trkpt lat="49.36777" lon="1.13558">
        <ele>88.1</ele>
        <time>2013-05-05T07:37:20Z</time>
      </trkpt>
      <trkpt lat="49.36779" lon="1.13566">
        <ele>89.06</ele>
        <time>2013-05-05T07:37:38Z</time>
      </trkpt>
      <trkpt lat="49.36785" lon="1.13585">
        <ele>91.46</ele>
        <time>2013-05-05T07:37:51Z</time>
      </trkpt>
      <trkpt lat="49.36792" lon="1.13604">
        <ele>93.87</ele>
        <time>2013-05-05T07:38:05Z</time>
      </trkpt>
      <trkpt lat="49.36798" lon="1.13622">
        <ele>96.27</ele>
        <time>2013-05-05T07:38:19Z</time>
      </trkpt>
      <trkpt lat="49.36802" lon="1.13636">
        <ele>97.71</ele>
        <time>2013-05-05T07:38:30Z</time>
      </trkpt>
      <trkpt lat="49.36802" lon="1.13641">
        <ele>98.67</ele>
        <time>2013-05-05T07:38:40Z</time>
      </trkpt>
      <trkpt lat="49.368" lon="1.13643">
        <ele>98.67</ele>
        <time>2013-05-05T07:39:09Z</time>
      </trkpt>
      <trkpt lat="49.36805" lon="1.13647">
        <ele>98.67</ele>
        <time>2013-05-05T07:39:34Z</time>
      </trkpt>
      <trkpt lat="49.36805" lon="1.13649">
        <ele>99.15</ele>
        <time>2013-05-05T07:39:46Z</time>
      </trkpt>
      <trkpt lat="49.36813" lon="1.13674">
        <ele>102.04</ele>
        <time>2013-05-05T07:40:00Z</time>
      </trkpt>
      <trkpt lat="49.36814" lon="1.13677">
        <ele>102.52</ele>
        <time>2013-05-05T07:40:02Z</time>
      </trkpt>
      <trkpt lat="49.36823" lon="1.13704">
        <ele>105.88</ele>
        <time>2013-05-05T07:40:17Z</time>
      </trkpt>
      <trkpt lat="49.36835" lon="1.1373">
        <ele>109.25</ele>
        <time>2013-05-05T07:40:31Z</time>
      </trkpt>
      <trkpt lat="49.36837" lon="1.13737">
        <ele>109.73</ele>
        <time>2013-05-05T07:40:34Z</time>
      </trkpt>
      <trkpt lat="49.3684" lon="1.13746">
        <ele>110.69</ele>
        <time>2013-05-05T07:40:38Z</time>
      </trkpt>
      <trkpt lat="49.36844" lon="1.13759">
        <ele>112.13</ele>
        <time>2013-05-05T07:40:45Z</time>
      </trkpt>
      <trkpt lat="49.36844" lon="1.13763">
        <ele>112.61</ele>
        <time>2013-05-05T07:40:47Z</time>
      </trkpt>
      <trkpt lat="49.36843" lon="1.13776">
        <ele>113.57</ele>
        <time>2013-05-05T07:40:53Z</time>
      </trkpt>
      <trkpt lat="49.36843" lon="1.1379">
        <ele>115.01</ele>
        <time>2013-05-05T07:40:59Z</time>
      </trkpt>
      <trkpt lat="49.36841" lon="1.13805">
        <ele>116.94</ele>
        <time>2013-05-05T07:41:09Z</time>
      </trkpt>
      <trkpt lat="49.36835" lon="1.13835">
        <ele>119.82</ele>
        <time>2013-05-05T07:41:23Z</time>
      </trkpt>
      <trkpt lat="49.36831" lon="1.13857">
        <ele>121.74</ele>
        <time>2013-05-05T07:41:31Z</time>
      </trkpt>
      <trkpt lat="49.36835" lon="1.13874">
        <ele>122.22</ele>
        <time>2013-05-05T07:41:37Z</time>
      </trkpt>
      <trkpt lat="49.3684" lon="1.13891">
        <ele>123.19</ele>
        <time>2013-05-05T07:41:44Z</time>
      </trkpt>
      <trkpt lat="49.36844" lon="1.13904">
        <ele>123.67</ele>
        <time>2013-05-05T07:41:49Z</time>
      </trkpt>
      <trkpt lat="49.36859" lon="1.13948">
        <ele>125.11</ele>
        <time>2013-05-05T07:42:03Z</time>
      </trkpt>
      <trkpt lat="49.36871" lon="1.13985">
        <ele>126.55</ele>
        <time>2013-05-05T07:42:15Z</time>
      </trkpt>
      <trkpt lat="49.36888" lon="1.14044">
        <ele>127.51</ele>
        <time>2013-05-05T07:42:30Z</time>
      </trkpt>
      <trkpt lat="49.36904" lon="1.14105">
        <ele>128.95</ele>
        <time>2013-05-05T07:42:44Z</time>
      </trkpt>
      <trkpt lat="49.36923" lon="1.14167">
        <ele>130.4</ele>
        <time>2013-05-05T07:42:57Z</time>
      </trkpt>
      <trkpt lat="49.36945" lon="1.14249">
        <ele>130.88</ele>
        <time>2013-05-05T07:43:14Z</time>
      </trkpt>
      <trkpt lat="49.36963" lon="1.14308">
        <ele>131.36</ele>
        <time>2013-05-05T07:43:26Z</time>
      </trkpt>
      <trkpt lat="49.36976" lon="1.14344">
        <ele>131.84</ele>
        <time>2013-05-05T07:43:33Z</time>
      </trkpt>
      <trkpt lat="49.36975" lon="1.14348">
        <ele>131.84</ele>
        <time>2013-05-05T07:43:34Z</time>
      </trkpt>
      <trkpt lat="49.36972" lon="1.14351">
        <ele>131.84</ele>
        <time>2013-05-05T07:43:35Z</time>
      </trkpt>
      <trkpt lat="49.36969" lon="1.14353">
        <ele>131.84</ele>
        <time>2013-05-05T07:43:36Z</time>
      </trkpt>
      <trkpt lat="49.36965" lon="1.14353">
        <ele>131.84</ele>
        <time>2013-05-05T07:43:37Z</time>
      </trkpt>
      <trkpt lat="49.36914" lon="1.1436">
        <ele>132.32</ele>
        <time>2013-05-05T07:43:50Z</time>
      </trkpt>
      <trkpt lat="49.36909" lon="1.1436">
        <ele>132.32</ele>
        <time>2013-05-05T07:43:51Z</time>
      </trkpt>
      <trkpt lat="49.369" lon="1.14359">
        <ele>131.84</ele>
        <time>2013-05-05T07:43:53Z</time>
      </trkpt>
      <trkpt lat="49.36891" lon="1.14359">
        <ele>132.32</ele>
        <time>2013-05-05T07:43:55Z</time>
      </trkpt>
      <trkpt lat="49.36887" lon="1.14358">
        <ele>132.32</ele>
        <time>2013-05-05T07:43:56Z</time>
      </trkpt>
      <trkpt lat="49.36873" lon="1.14357">
        <ele>131.84</ele>
        <time>2013-05-05T07:43:59Z</time>
      </trkpt>
      <trkpt lat="49.36868" lon="1.14357">
        <ele>131.84</ele>
        <time>2013-05-05T07:44:00Z</time>
      </trkpt>
      <trkpt lat="49.36793" lon="1.14354">
        <ele>130.88</ele>
        <time>2013-05-05T07:44:15Z</time>
      </trkpt>
      <trkpt lat="49.36717" lon="1.14363">
        <ele>128.95</ele>
        <time>2013-05-05T07:44:29Z</time>
      </trkpt>
      <trkpt lat="49.36644" lon="1.14388">
        <ele>125.59</ele>
        <time>2013-05-05T07:44:42Z</time>
      </trkpt>
      <trkpt lat="49.36596" lon="1.14406">
        <ele>122.22</ele>
        <time>2013-05-05T07:44:50Z</time>
      </trkpt>
      <trkpt lat="49.36583" lon="1.1441">
        <ele>122.22</ele>
        <time>2013-05-05T07:44:52Z</time>
      </trkpt>
      <trkpt lat="49.36577" lon="1.14411">
        <ele>121.74</ele>
        <time>2013-05-05T07:44:53Z</time>
      </trkpt>
      <trkpt lat="49.3657" lon="1.14412">
        <ele>120.78</ele>
        <time>2013-05-05T07:44:54Z</time>
      </trkpt>
      <trkpt lat="49.36563" lon="1.14412">
        <ele>121.26</ele>
        <time>2013-05-05T07:44:55Z</time>
      </trkpt>
      <trkpt lat="49.36557" lon="1.1441">
        <ele>120.78</ele>
        <time>2013-05-05T07:44:56Z</time>
      </trkpt>
      <trkpt lat="49.36551" lon="1.14405">
        <ele>120.3</ele>
        <time>2013-05-05T07:44:57Z</time>
      </trkpt>
      <trkpt lat="49.36545" lon="1.14399">
        <ele>120.3</ele>
        <time>2013-05-05T07:44:58Z</time>
      </trkpt>
      <trkpt lat="49.36541" lon="1.14392">
        <ele>120.3</ele>
        <time>2013-05-05T07:44:59Z</time>
      </trkpt>
      <trkpt lat="49.36531" lon="1.14378">
        <ele>119.34</ele>
        <time>2013-05-05T07:45:01Z</time>
      </trkpt>
      <trkpt lat="49.36513" lon="1.14346">
        <ele>118.86</ele>
        <time>2013-05-05T07:45:05Z</time>
      </trkpt>
      <trkpt lat="49.36503" lon="1.14331">
        <ele>117.9</ele>
        <time>2013-05-05T07:45:07Z</time>
      </trkpt>
      <trkpt lat="49.36461" lon="1.14255">
        <ele>115.01</ele>
        <time>2013-05-05T07:45:16Z</time>
      </trkpt>
      <trkpt lat="49.36452" lon="1.14236">
        <ele>114.05</ele>
        <time>2013-05-05T07:45:18Z</time>
      </trkpt>
      <trkpt lat="49.36447" lon="1.14228">
        <ele>114.05</ele>
        <time>2013-05-05T07:45:19Z</time>
      </trkpt>
      <trkpt lat="49.36441" lon="1.14219">
        <ele>113.57</ele>
        <time>2013-05-05T07:45:20Z</time>
      </trkpt>
      <trkpt lat="49.36436" lon="1.14209">
        <ele>113.09</ele>
        <time>2013-05-05T07:45:21Z</time>
      </trkpt>
      <trkpt lat="49.36431" lon="1.14199">
        <ele>112.61</ele>
        <time>2013-05-05T07:45:22Z</time>
      </trkpt>
      <trkpt lat="49.36421" lon="1.14182">
        <ele>112.13</ele>
        <time>2013-05-05T07:45:24Z</time>
      </trkpt>
      <trkpt lat="49.36415" lon="1.14177">
        <ele>111.65</ele>
        <time>2013-05-05T07:45:25Z</time>
      </trkpt>
      <trkpt lat="49.36407" lon="1.14176">
        <ele>110.69</ele>
        <time>2013-05-05T07:45:26Z</time>
      </trkpt>
      <trkpt lat="49.36399" lon="1.1418">
        <ele>110.21</ele>
        <time>2013-05-05T07:45:27Z</time>
      </trkpt>
      <trkpt lat="49.36391" lon="1.14185">
        <ele>109.25</ele>
        <time>2013-05-05T07:45:28Z</time>
      </trkpt>
      <trkpt lat="49.36383" lon="1.14189">
        <ele>108.29</ele>
        <time>2013-05-05T07:45:29Z</time>
      </trkpt>
      <trkpt lat="49.36373" lon="1.14192">
        <ele>107.32</ele>
        <time>2013-05-05T07:45:30Z</time>
      </trkpt>
      <trkpt lat="49.36364" lon="1.14193">
        <ele>106.84</ele>
        <time>2013-05-05T07:45:31Z</time>
      </trkpt>
      <trkpt lat="49.36354" lon="1.14193">
        <ele>105.88</ele>
        <time>2013-05-05T07:45:32Z</time>
      </trkpt>
      <trkpt lat="49.36344" lon="1.14191">
        <ele>104.44</ele>
        <time>2013-05-05T07:45:33Z</time>
      </trkpt>
      <trkpt lat="49.36311" lon="1.14179">
        <ele>101.08</ele>
        <time>2013-05-05T07:45:36Z</time>
      </trkpt>
      <trkpt lat="49.36288" lon="1.14166">
        <ele>97.71</ele>
        <time>2013-05-05T07:45:38Z</time>
      </trkpt>
      <trkpt lat="49.36264" lon="1.14154">
        <ele>94.35</ele>
        <time>2013-05-05T07:45:40Z</time>
      </trkpt>
      <trkpt lat="49.36225" lon="1.14142">
        <ele>89.54</ele>
        <time>2013-05-05T07:45:43Z</time>
      </trkpt>
      <trkpt lat="49.36189" lon="1.1413">
        <ele>85.69</ele>
        <time>2013-05-05T07:45:46Z</time>
      </trkpt>
      <trkpt lat="49.36157" lon="1.14117">
        <ele>82.33</ele>
        <time>2013-05-05T07:45:49Z</time>
      </trkpt>
      <trkpt lat="49.36148" lon="1.14112">
        <ele>80.89</ele>
        <time>2013-05-05T07:45:50Z</time>
      </trkpt>
      <trkpt lat="49.36133" lon="1.14102">
        <ele>78.97</ele>
        <time>2013-05-05T07:45:52Z</time>
      </trkpt>
      <trkpt lat="49.36127" lon="1.14098">
        <ele>78.48</ele>
        <time>2013-05-05T07:45:53Z</time>
      </trkpt>
      <trkpt lat="49.36115" lon="1.14084">
        <ele>77.52</ele>
        <time>2013-05-05T07:45:55Z</time>
      </trkpt>
      <trkpt lat="49.36097" lon="1.14061">
        <ele>75.6</ele>
        <time>2013-05-05T07:45:58Z</time>
      </trkpt>
      <trkpt lat="49.36086" lon="1.14053">
        <ele>74.16</ele>
        <time>2013-05-05T07:46:01Z</time>
      </trkpt>
      <trkpt lat="49.36086" lon="1.14054">
        <ele>74.16</ele>
        <time>2013-05-05T07:46:02Z</time>
      </trkpt>
      <trkpt lat="49.36076" lon="1.1405">
        <ele>73.68</ele>
        <time>2013-05-05T07:46:07Z</time>
      </trkpt>
      <trkpt lat="49.3607" lon="1.14049">
        <ele>73.68</ele>
        <time>2013-05-05T07:46:19Z</time>
      </trkpt>
      <trkpt lat="49.3607" lon="1.14049">
        <ele>73.68</ele>
        <time>2013-05-05T07:46:46Z</time>
      </trkpt>
      <trkpt lat="49.3607" lon="1.14048">
        <ele>73.2</ele>
        <time>2013-05-05T07:47:12Z</time>
      </trkpt>
      <trkpt lat="49.3607" lon="1.1405">
        <ele>73.2</ele>
        <time>2013-05-05T07:47:26Z</time>
      </trkpt>
      <trkpt lat="49.36068" lon="1.14053">
        <ele>73.2</ele>
        <time>2013-05-05T07:47:29Z</time>
      </trkpt>
      <trkpt lat="49.36058" lon="1.14063">
        <ele>71.76</ele>
        <time>2013-05-05T07:47:33Z</time>
      </trkpt>
      <trkpt lat="49.36037" lon="1.14068">
        <ele>68.39</ele>
        <time>2013-05-05T07:47:38Z</time>
      </trkpt>
      <trkpt lat="49.36025" lon="1.14069">
        <ele>66.47</ele>
        <time>2013-05-05T07:47:41Z</time>
      </trkpt>
      <trkpt lat="49.36018" lon="1.14069">
        <ele>65.51</ele>
        <time>2013-05-05T07:47:43Z</time>
      </trkpt>
      <trkpt lat="49.36006" lon="1.14064">
        <ele>64.07</ele>
        <time>2013-05-05T07:47:46Z</time>
      </trkpt>
      <trkpt lat="49.35987" lon="1.14056">
        <ele>61.18</ele>
        <time>2013-05-05T07:47:50Z</time>
      </trkpt>
      <trkpt lat="49.35956" lon="1.14055">
        <ele>58.3</ele>
        <time>2013-05-05T07:47:55Z</time>
      </trkpt>
      <trkpt lat="49.35941" lon="1.14061">
        <ele>57.82</ele>
        <time>2013-05-05T07:47:58Z</time>
      </trkpt>
      <trkpt lat="49.3593" lon="1.14067">
        <ele>58.3</ele>
        <time>2013-05-05T07:48:01Z</time>
      </trkpt>
      <trkpt lat="49.35894" lon="1.14047">
        <ele>58.78</ele>
        <time>2013-05-05T07:48:11Z</time>
      </trkpt>
      <trkpt lat="49.35887" lon="1.14037">
        <ele>57.82</ele>
        <time>2013-05-05T07:48:13Z</time>
      </trkpt>
      <trkpt lat="49.35865" lon="1.14014">
        <ele>57.82</ele>
        <time>2013-05-05T07:48:19Z</time>
      </trkpt>
      <trkpt lat="49.35834" lon="1.14017">
        <ele>55.89</ele>
        <time>2013-05-05T07:48:25Z</time>
      </trkpt>
      <trkpt lat="49.35798" lon="1.14037">
        <ele>50.13</ele>
        <time>2013-05-05T07:48:30Z</time>
      </trkpt>
      <trkpt lat="49.35789" lon="1.14041">
        <ele>49.65</ele>
        <time>2013-05-05T07:48:31Z</time>
      </trkpt>
      <trkpt lat="49.35728" lon="1.1407">
        <ele>49.16</ele>
        <time>2013-05-05T07:48:40Z</time>
      </trkpt>
      <trkpt lat="49.35709" lon="1.14097">
        <ele>49.65</ele>
        <time>2013-05-05T07:48:45Z</time>
      </trkpt>
      <trkpt lat="49.35693" lon="1.14169">
        <ele>51.57</ele>
        <time>2013-05-05T07:48:57Z</time>
      </trkpt>
      <trkpt lat="49.3569" lon="1.1418">
        <ele>52.05</ele>
        <time>2013-05-05T07:48:59Z</time>
      </trkpt>
      <trkpt lat="49.35675" lon="1.14207">
        <ele>53.01</ele>
        <time>2013-05-05T07:49:06Z</time>
      </trkpt>
      <trkpt lat="49.35667" lon="1.1421">
        <ele>53.49</ele>
        <time>2013-05-05T07:49:09Z</time>
      </trkpt>
      <trkpt lat="49.35656" lon="1.14224">
        <ele>55.89</ele>
        <time>2013-05-05T07:49:16Z</time>
      </trkpt>
      <trkpt lat="49.3565" lon="1.14231">
        <ele>57.82</ele>
        <time>2013-05-05T07:49:25Z</time>
      </trkpt>
      <trkpt lat="49.35638" lon="1.14243">
        <ele>61.18</ele>
        <time>2013-05-05T07:49:39Z</time>
      </trkpt>
      <trkpt lat="49.35634" lon="1.14246">
        <ele>62.62</ele>
        <time>2013-05-05T07:49:43Z</time>
      </trkpt>
      <trkpt lat="49.35623" lon="1.14259">
        <ele>65.99</ele>
        <time>2013-05-05T07:49:56Z</time>
      </trkpt>
      <trkpt lat="49.3561" lon="1.14272">
        <ele>68.87</ele>
        <time>2013-05-05T07:50:09Z</time>
      </trkpt>
      <trkpt lat="49.35599" lon="1.14277">
        <ele>70.31</ele>
        <time>2013-05-05T07:50:19Z</time>
      </trkpt>
      <trkpt lat="49.35591" lon="1.14283">
        <ele>71.27</ele>
        <time>2013-05-05T07:50:33Z</time>
      </trkpt>
      <trkpt lat="49.35571" lon="1.1429">
        <ele>72.24</ele>
        <time>2013-05-05T07:50:44Z</time>
      </trkpt>
      <trkpt lat="49.35531" lon="1.14292">
        <ele>73.2</ele>
        <time>2013-05-05T07:50:59Z</time>
      </trkpt>
      <trkpt lat="49.35488" lon="1.1429">
        <ele>73.2</ele>
        <time>2013-05-05T07:51:11Z</time>
      </trkpt>
      <trkpt lat="49.35481" lon="1.14288">
        <ele>73.2</ele>
        <time>2013-05-05T07:51:13Z</time>
      </trkpt>
      <trkpt lat="49.35479" lon="1.14283">
        <ele>73.2</ele>
        <time>2013-05-05T07:51:14Z</time>
      </trkpt>
      <trkpt lat="49.35478" lon="1.14277">
        <ele>73.2</ele>
        <time>2013-05-05T07:51:15Z</time>
      </trkpt>
      <trkpt lat="49.35476" lon="1.14263">
        <ele>73.2</ele>
        <time>2013-05-05T07:51:17Z</time>
      </trkpt>
      <trkpt lat="49.35484" lon="1.14189">
        <ele>73.2</ele>
        <time>2013-05-05T07:51:29Z</time>
      </trkpt>
      <trkpt lat="49.35481" lon="1.14123">
        <ele>73.68</ele>
        <time>2013-05-05T07:51:41Z</time>
      </trkpt>
      <trkpt lat="49.35478" lon="1.1412">
        <ele>73.68</ele>
        <time>2013-05-05T07:51:42Z</time>
      </trkpt>
      <trkpt lat="49.35474" lon="1.14118">
        <ele>73.2</ele>
        <time>2013-05-05T07:51:43Z</time>
      </trkpt>
      <trkpt lat="49.3547" lon="1.14117">
        <ele>75.6</ele>
        <time>2013-05-05T07:51:44Z</time>
      </trkpt>
      <trkpt lat="49.35467" lon="1.14117">
        <ele>74.16</ele>
        <time>2013-05-05T07:51:45Z</time>
      </trkpt>
      <trkpt lat="49.35464" lon="1.14118">
        <ele>74.16</ele>
        <time>2013-05-05T07:51:46Z</time>
      </trkpt>
      <trkpt lat="49.3546" lon="1.14117">
        <ele>74.16</ele>
        <time>2013-05-05T07:51:47Z</time>
      </trkpt>
      <trkpt lat="49.35456" lon="1.14117">
        <ele>74.16</ele>
        <time>2013-05-05T07:51:48Z</time>
      </trkpt>
      <trkpt lat="49.35413" lon="1.14119">
        <ele>75.12</ele>
        <time>2013-05-05T07:52:00Z</time>
      </trkpt>
      <trkpt lat="49.35398" lon="1.14094">
        <ele>74.64</ele>
        <time>2013-05-05T07:52:08Z</time>
      </trkpt>
      <trkpt lat="49.35398" lon="1.14079">
        <ele>74.64</ele>
        <time>2013-05-05T07:52:15Z</time>
      </trkpt>
      <trkpt lat="49.35391" lon="1.14059">
        <ele>71.27</ele>
        <time>2013-05-05T07:52:27Z</time>
      </trkpt>
      <trkpt lat="49.35393" lon="1.14039">
        <ele>67.43</ele>
        <time>2013-05-05T07:52:33Z</time>
      </trkpt>
      <trkpt lat="49.35395" lon="1.14026">
        <ele>65.99</ele>
        <time>2013-05-05T07:52:46Z</time>
      </trkpt>
      <trkpt lat="49.35398" lon="1.14017">
        <ele>64.07</ele>
        <time>2013-05-05T07:53:02Z</time>
      </trkpt>
      <trkpt lat="49.35398" lon="1.1401">
        <ele>62.62</ele>
        <time>2013-05-05T07:53:04Z</time>
      </trkpt>
      <trkpt lat="49.35398" lon="1.1399">
        <ele>59.74</ele>
        <time>2013-05-05T07:53:09Z</time>
      </trkpt>
      <trkpt lat="49.35401" lon="1.13967">
        <ele>56.37</ele>
        <time>2013-05-05T07:53:14Z</time>
      </trkpt>
      <trkpt lat="49.35404" lon="1.13946">
        <ele>53.49</ele>
        <time>2013-05-05T07:53:19Z</time>
      </trkpt>
      <trkpt lat="49.35407" lon="1.13933">
        <ele>50.13</ele>
        <time>2013-05-05T07:53:22Z</time>
      </trkpt>
      <trkpt lat="49.35414" lon="1.13913">
        <ele>45.32</ele>
        <time>2013-05-05T07:53:27Z</time>
      </trkpt>
      <trkpt lat="49.35415" lon="1.13909">
        <ele>44.84</ele>
        <time>2013-05-05T07:53:28Z</time>
      </trkpt>
      <trkpt lat="49.35415" lon="1.13901">
        <ele>43.88</ele>
        <time>2013-05-05T07:53:32Z</time>
      </trkpt>
      <trkpt lat="49.35413" lon="1.13892">
        <ele>40.99</ele>
        <time>2013-05-05T07:53:36Z</time>
      </trkpt>
      <trkpt lat="49.35412" lon="1.13892">
        <ele>41.47</ele>
        <time>2013-05-05T07:53:37Z</time>
      </trkpt>
      <trkpt lat="49.35413" lon="1.13891">
        <ele>40.99</ele>
        <time>2013-05-05T07:53:38Z</time>
      </trkpt>
      <trkpt lat="49.35415" lon="1.1387">
        <ele>37.15</ele>
        <time>2013-05-05T07:53:44Z</time>
      </trkpt>
      <trkpt lat="49.35412" lon="1.13858">
        <ele>34.26</ele>
        <time>2013-05-05T07:53:47Z</time>
      </trkpt>
      <trkpt lat="49.3541" lon="1.13841">
        <ele>30.9</ele>
        <time>2013-05-05T07:53:53Z</time>
      </trkpt>
      <trkpt lat="49.35409" lon="1.13832">
        <ele>28.98</ele>
        <time>2013-05-05T07:53:55Z</time>
      </trkpt>
      <trkpt lat="49.3541" lon="1.13827">
        <ele>28.5</ele>
        <time>2013-05-05T07:53:56Z</time>
      </trkpt>
      <trkpt lat="49.3542" lon="1.13766">
        <ele>27.05</ele>
        <time>2013-05-05T07:54:06Z</time>
      </trkpt>
      <trkpt lat="49.35421" lon="1.13758">
        <ele>26.57</ele>
        <time>2013-05-05T07:54:07Z</time>
      </trkpt>
      <trkpt lat="49.35427" lon="1.13689">
        <ele>25.61</ele>
        <time>2013-05-05T07:54:16Z</time>
      </trkpt>
      <trkpt lat="49.35432" lon="1.13656">
        <ele>24.65</ele>
        <time>2013-05-05T07:54:20Z</time>
      </trkpt>
      <trkpt lat="49.35438" lon="1.13632">
        <ele>24.65</ele>
        <time>2013-05-05T07:54:23Z</time>
      </trkpt>
      <trkpt lat="49.35441" lon="1.13572">
        <ele>23.21</ele>
        <time>2013-05-05T07:54:31Z</time>
      </trkpt>
      <trkpt lat="49.35439" lon="1.13566">
        <ele>23.21</ele>
        <time>2013-05-05T07:54:32Z</time>
      </trkpt>
      <trkpt lat="49.35437" lon="1.13561">
        <ele>23.21</ele>
        <time>2013-05-05T07:54:33Z</time>
      </trkpt>
      <trkpt lat="49.35433" lon="1.13558">
        <ele>23.21</ele>
        <time>2013-05-05T07:54:34Z</time>
      </trkpt>
      <trkpt lat="49.35429" lon="1.13556">
        <ele>23.21</ele>
        <time>2013-05-05T07:54:35Z</time>
      </trkpt>
      <trkpt lat="49.35423" lon="1.13555">
        <ele>23.21</ele>
        <time>2013-05-05T07:54:36Z</time>
      </trkpt>
      <trkpt lat="49.35368" lon="1.13548">
        <ele>23.69</ele>
        <time>2013-05-05T07:54:47Z</time>
      </trkpt>
      <trkpt lat="49.35358" lon="1.13544">
        <ele>23.69</ele>
        <time>2013-05-05T07:54:49Z</time>
      </trkpt>
      <trkpt lat="49.35349" lon="1.13537">
        <ele>23.21</ele>
        <time>2013-05-05T07:54:51Z</time>
      </trkpt>
      <trkpt lat="49.35346" lon="1.13532">
        <ele>23.21</ele>
        <time>2013-05-05T07:54:52Z</time>
      </trkpt>
      <trkpt lat="49.35342" lon="1.13527">
        <ele>23.21</ele>
        <time>2013-05-05T07:54:53Z</time>
      </trkpt>
      <trkpt lat="49.35319" lon="1.13482">
        <ele>21.29</ele>
        <time>2013-05-05T07:55:00Z</time>
      </trkpt>
      <trkpt lat="49.35315" lon="1.13476">
        <ele>21.29</ele>
        <time>2013-05-05T07:55:01Z</time>
      </trkpt>
      <trkpt lat="49.35311" lon="1.13468">
        <ele>20.81</ele>
        <time>2013-05-05T07:55:02Z</time>
      </trkpt>
      <trkpt lat="49.35307" lon="1.13458">
        <ele>20.32</ele>
        <time>2013-05-05T07:55:03Z</time>
      </trkpt>
      <trkpt lat="49.35304" lon="1.13447">
        <ele>20.32</ele>
        <time>2013-05-05T07:55:04Z</time>
      </trkpt>
      <trkpt lat="49.35298" lon="1.13424">
        <ele>18.88</ele>
        <time>2013-05-05T07:55:06Z</time>
      </trkpt>
      <trkpt lat="49.35297" lon="1.13411">
        <ele>18.4</ele>
        <time>2013-05-05T07:55:07Z</time>
      </trkpt>
      <trkpt lat="49.35295" lon="1.13399">
        <ele>18.4</ele>
        <time>2013-05-05T07:55:08Z</time>
      </trkpt>
      <trkpt lat="49.35263" lon="1.1328">
        <ele>16.48</ele>
        <time>2013-05-05T07:55:19Z</time>
      </trkpt>
      <trkpt lat="49.35231" lon="1.13207">
        <ele>16</ele>
        <time>2013-05-05T07:55:28Z</time>
      </trkpt>
      <trkpt lat="49.35227" lon="1.13201">
        <ele>16</ele>
        <time>2013-05-05T07:55:29Z</time>
      </trkpt>
      <trkpt lat="49.35223" lon="1.13199">
        <ele>16.48</ele>
        <time>2013-05-05T07:55:30Z</time>
      </trkpt>
      <trkpt lat="49.3522" lon="1.13201">
        <ele>16.96</ele>
        <time>2013-05-05T07:55:31Z</time>
      </trkpt>
      <trkpt lat="49.35217" lon="1.13203">
        <ele>17.44</ele>
        <time>2013-05-05T07:55:32Z</time>
      </trkpt>
      <trkpt lat="49.35215" lon="1.13204">
        <ele>17.44</ele>
        <time>2013-05-05T07:55:33Z</time>
      </trkpt>
      <trkpt lat="49.35212" lon="1.13205">
        <ele>17.44</ele>
        <time>2013-05-05T07:55:34Z</time>
      </trkpt>
      <trkpt lat="49.3521" lon="1.13204">
        <ele>17.44</ele>
        <time>2013-05-05T07:55:35Z</time>
      </trkpt>
      <trkpt lat="49.35208" lon="1.13201">
        <ele>17.44</ele>
        <time>2013-05-05T07:55:36Z</time>
      </trkpt>
      <trkpt lat="49.35207" lon="1.13198">
        <ele>17.44</ele>
        <time>2013-05-05T07:55:37Z</time>
      </trkpt>
      <trkpt lat="49.352" lon="1.13156">
        <ele>16</ele>
        <time>2013-05-05T07:55:44Z</time>
      </trkpt>
      <trkpt lat="49.35199" lon="1.13149">
        <ele>16</ele>
        <time>2013-05-05T07:55:45Z</time>
      </trkpt>
      <trkpt lat="49.35197" lon="1.13126">
        <ele>15.04</ele>
        <time>2013-05-05T07:55:49Z</time>
      </trkpt>
      <trkpt lat="49.35192" lon="1.13115">
        <ele>14.56</ele>
        <time>2013-05-05T07:55:51Z</time>
      </trkpt>
      <trkpt lat="49.35179" lon="1.13091">
        <ele>13.12</ele>
        <time>2013-05-05T07:55:56Z</time>
      </trkpt>
      <trkpt lat="49.35174" lon="1.13093">
        <ele>14.08</ele>
        <time>2013-05-05T07:55:58Z</time>
      </trkpt>
      <trkpt lat="49.35173" lon="1.13097">
        <ele>14.08</ele>
        <time>2013-05-05T07:55:59Z</time>
      </trkpt>
      <trkpt lat="49.35174" lon="1.13101">
        <ele>14.56</ele>
        <time>2013-05-05T07:56:00Z</time>
      </trkpt>
      <trkpt lat="49.35176" lon="1.13132">
        <ele>17.44</ele>
        <time>2013-05-05T07:56:09Z</time>
      </trkpt>
      <trkpt lat="49.35178" lon="1.13159">
        <ele>19.84</ele>
        <time>2013-05-05T07:56:17Z</time>
      </trkpt>
      <trkpt lat="49.35178" lon="1.13162">
        <ele>20.32</ele>
        <time>2013-05-05T07:56:18Z</time>
      </trkpt>
      <trkpt lat="49.35179" lon="1.13165">
        <ele>20.32</ele>
        <time>2013-05-05T07:56:19Z</time>
      </trkpt>
      <trkpt lat="49.35179" lon="1.13174">
        <ele>21.77</ele>
        <time>2013-05-05T07:56:22Z</time>
      </trkpt>
      <trkpt lat="49.35179" lon="1.13177">
        <ele>21.77</ele>
        <time>2013-05-05T07:56:23Z</time>
      </trkpt>
      <trkpt lat="49.3518" lon="1.1318">
        <ele>22.25</ele>
        <time>2013-05-05T07:56:24Z</time>
      </trkpt>
      <trkpt lat="49.35184" lon="1.13213">
        <ele>25.13</ele>
        <time>2013-05-05T07:56:35Z</time>
      </trkpt>
      <trkpt lat="49.35186" lon="1.13257">
        <ele>28.5</ele>
        <time>2013-05-05T07:56:49Z</time>
      </trkpt>
      <trkpt lat="49.35184" lon="1.13307">
        <ele>31.38</ele>
        <time>2013-05-05T07:57:03Z</time>
      </trkpt>
      <trkpt lat="49.35174" lon="1.13351">
        <ele>33.78</ele>
        <time>2013-05-05T07:57:17Z</time>
      </trkpt>
      <trkpt lat="49.35162" lon="1.13388">
        <ele>36.67</ele>
        <time>2013-05-05T07:57:30Z</time>
      </trkpt>
      <trkpt lat="49.3515" lon="1.13426">
        <ele>39.07</ele>
        <time>2013-05-05T07:57:44Z</time>
      </trkpt>
      <trkpt lat="49.35144" lon="1.13442">
        <ele>40.99</ele>
        <time>2013-05-05T07:57:51Z</time>
      </trkpt>
      <trkpt lat="49.35144" lon="1.13445">
        <ele>40.99</ele>
        <time>2013-05-05T07:57:52Z</time>
      </trkpt>
      <trkpt lat="49.35143" lon="1.13447">
        <ele>41.47</ele>
        <time>2013-05-05T07:57:53Z</time>
      </trkpt>
      <trkpt lat="49.35143" lon="1.13449">
        <ele>41.47</ele>
        <time>2013-05-05T07:57:54Z</time>
      </trkpt>
      <trkpt lat="49.35142" lon="1.13451">
        <ele>41.95</ele>
        <time>2013-05-05T07:57:55Z</time>
      </trkpt>
      <trkpt lat="49.35129" lon="1.13474">
        <ele>44.84</ele>
        <time>2013-05-05T07:58:07Z</time>
      </trkpt>
      <trkpt lat="49.35113" lon="1.13494">
        <ele>48.2</ele>
        <time>2013-05-05T07:58:19Z</time>
      </trkpt>
      <trkpt lat="49.3511" lon="1.13511">
        <ele>51.09</ele>
        <time>2013-05-05T07:58:31Z</time>
      </trkpt>
      <trkpt lat="49.3511" lon="1.13513">
        <ele>51.57</ele>
        <time>2013-05-05T07:58:32Z</time>
      </trkpt>
      <trkpt lat="49.3511" lon="1.13516">
        <ele>51.57</ele>
        <time>2013-05-05T07:58:33Z</time>
      </trkpt>
      <trkpt lat="49.3511" lon="1.13519">
        <ele>52.05</ele>
        <time>2013-05-05T07:58:34Z</time>
      </trkpt>
      <trkpt lat="49.35115" lon="1.13538">
        <ele>54.93</ele>
        <time>2013-05-05T07:58:45Z</time>
      </trkpt>
      <trkpt lat="49.35117" lon="1.13543">
        <ele>55.89</ele>
        <time>2013-05-05T07:58:48Z</time>
      </trkpt>
      <trkpt lat="49.35121" lon="1.13552">
        <ele>57.82</ele>
        <time>2013-05-05T07:58:54Z</time>
      </trkpt>
      <trkpt lat="49.35131" lon="1.13575">
        <ele>60.22</ele>
        <time>2013-05-05T07:59:08Z</time>
      </trkpt>
      <trkpt lat="49.35134" lon="1.13592">
        <ele>62.14</ele>
        <time>2013-05-05T07:59:17Z</time>
      </trkpt>
      <trkpt lat="49.35123" lon="1.13606">
        <ele>64.55</ele>
        <time>2013-05-05T07:59:29Z</time>
      </trkpt>
      <trkpt lat="49.35119" lon="1.13609">
        <ele>65.03</ele>
        <time>2013-05-05T07:59:33Z</time>
      </trkpt>
      <trkpt lat="49.35098" lon="1.13633">
        <ele>68.39</ele>
        <time>2013-05-05T07:59:47Z</time>
      </trkpt>
      <trkpt lat="49.35082" lon="1.13661">
        <ele>70.31</ele>
        <time>2013-05-05T08:00:01Z</time>
      </trkpt>
      <trkpt lat="49.35077" lon="1.13675">
        <ele>70.79</ele>
        <time>2013-05-05T08:00:06Z</time>
      </trkpt>
      <trkpt lat="49.35069" lon="1.13688">
        <ele>70.79</ele>
        <time>2013-05-05T08:00:11Z</time>
      </trkpt>
      <trkpt lat="49.35041" lon="1.1375">
        <ele>72.24</ele>
        <time>2013-05-05T08:00:29Z</time>
      </trkpt>
      <trkpt lat="49.35014" lon="1.13809">
        <ele>73.68</ele>
        <time>2013-05-05T08:00:44Z</time>
      </trkpt>
      <trkpt lat="49.34972" lon="1.13904">
        <ele>75.6</ele>
        <time>2013-05-05T08:01:03Z</time>
      </trkpt>
      <trkpt lat="49.34936" lon="1.13968">
        <ele>76.56</ele>
        <time>2013-05-05T08:01:17Z</time>
      </trkpt>
      <trkpt lat="49.34864" lon="1.14041">
        <ele>78.97</ele>
        <time>2013-05-05T08:01:39Z</time>
      </trkpt>
      <trkpt lat="49.34801" lon="1.14098">
        <ele>79.45</ele>
        <time>2013-05-05T08:01:57Z</time>
      </trkpt>
      <trkpt lat="49.34736" lon="1.14156">
        <ele>79.93</ele>
        <time>2013-05-05T08:02:13Z</time>
      </trkpt>
      <trkpt lat="49.34645" lon="1.14229">
        <ele>80.89</ele>
        <time>2013-05-05T08:02:34Z</time>
      </trkpt>
      <trkpt lat="49.3462" lon="1.1425">
        <ele>80.89</ele>
        <time>2013-05-05T08:02:40Z</time>
      </trkpt>
      <trkpt lat="49.34616" lon="1.1425">
        <ele>80.89</ele>
        <time>2013-05-05T08:02:41Z</time>
      </trkpt>
      <trkpt lat="49.34611" lon="1.14247">
        <ele>81.37</ele>
        <time>2013-05-05T08:02:42Z</time>
      </trkpt>
      <trkpt lat="49.34608" lon="1.14243">
        <ele>81.37</ele>
        <time>2013-05-05T08:02:43Z</time>
      </trkpt>
      <trkpt lat="49.34605" lon="1.14237">
        <ele>81.37</ele>
        <time>2013-05-05T08:02:44Z</time>
      </trkpt>
      <trkpt lat="49.34565" lon="1.14164">
        <ele>81.85</ele>
        <time>2013-05-05T08:02:57Z</time>
      </trkpt>
      <trkpt lat="49.34562" lon="1.14158">
        <ele>81.85</ele>
        <time>2013-05-05T08:02:58Z</time>
      </trkpt>
      <trkpt lat="49.34523" lon="1.14084">
        <ele>82.33</ele>
        <time>2013-05-05T08:03:10Z</time>
      </trkpt>
      <trkpt lat="49.34517" lon="1.14071">
        <ele>81.85</ele>
        <time>2013-05-05T08:03:12Z</time>
      </trkpt>
      <trkpt lat="49.34511" lon="1.1406">
        <ele>82.33</ele>
        <time>2013-05-05T08:03:14Z</time>
      </trkpt>
      <trkpt lat="49.34507" lon="1.14057">
        <ele>82.33</ele>
        <time>2013-05-05T08:03:15Z</time>
      </trkpt>
      <trkpt lat="49.34503" lon="1.14056">
        <ele>82.33</ele>
        <time>2013-05-05T08:03:16Z</time>
      </trkpt>
      <trkpt lat="49.34495" lon="1.14061">
        <ele>81.85</ele>
        <time>2013-05-05T08:03:18Z</time>
      </trkpt>
      <trkpt lat="49.34433" lon="1.14114">
        <ele>83.29</ele>
        <time>2013-05-05T08:03:32Z</time>
      </trkpt>
      <trkpt lat="49.34358" lon="1.14179">
        <ele>84.73</ele>
        <time>2013-05-05T08:03:50Z</time>
      </trkpt>
      <trkpt lat="49.34354" lon="1.14191">
        <ele>85.21</ele>
        <time>2013-05-05T08:03:53Z</time>
      </trkpt>
      <trkpt lat="49.34355" lon="1.14196">
        <ele>85.21</ele>
        <time>2013-05-05T08:03:54Z</time>
      </trkpt>
      <trkpt lat="49.34369" lon="1.14255">
        <ele>84.73</ele>
        <time>2013-05-05T08:04:03Z</time>
      </trkpt>
      <trkpt lat="49.34379" lon="1.14322">
        <ele>83.77</ele>
        <time>2013-05-05T08:04:13Z</time>
      </trkpt>
      <trkpt lat="49.3438" lon="1.14329">
        <ele>83.77</ele>
        <time>2013-05-05T08:04:14Z</time>
      </trkpt>
      <trkpt lat="49.34381" lon="1.14335">
        <ele>83.77</ele>
        <time>2013-05-05T08:04:15Z</time>
      </trkpt>
      <trkpt lat="49.34384" lon="1.14352">
        <ele>83.77</ele>
        <time>2013-05-05T08:04:18Z</time>
      </trkpt>
      <trkpt lat="49.34383" lon="1.14357">
        <ele>83.77</ele>
        <time>2013-05-05T08:04:19Z</time>
      </trkpt>
      <trkpt lat="49.34373" lon="1.14356">
        <ele>83.77</ele>
        <time>2013-05-05T08:04:22Z</time>
      </trkpt>
      <trkpt lat="49.34369" lon="1.14353">
        <ele>83.77</ele>
        <time>2013-05-05T08:04:23Z</time>
      </trkpt>
      <trkpt lat="49.34357" lon="1.1434">
        <ele>83.77</ele>
        <time>2013-05-05T08:04:26Z</time>
      </trkpt>
      <trkpt lat="49.34341" lon="1.14322">
        <ele>84.25</ele>
        <time>2013-05-05T08:04:30Z</time>
      </trkpt>
      <trkpt lat="49.34303" lon="1.14268">
        <ele>84.73</ele>
        <time>2013-05-05T08:04:41Z</time>
      </trkpt>
      <trkpt lat="49.34246" lon="1.14206">
        <ele>86.18</ele>
        <time>2013-05-05T08:04:55Z</time>
      </trkpt>
      <trkpt lat="49.34239" lon="1.14196">
        <ele>86.18</ele>
        <time>2013-05-05T08:04:57Z</time>
      </trkpt>
      <trkpt lat="49.34229" lon="1.14179">
        <ele>86.18</ele>
        <time>2013-05-05T08:05:00Z</time>
      </trkpt>
      <trkpt lat="49.34194" lon="1.14073">
        <ele>87.62</ele>
        <time>2013-05-05T08:05:16Z</time>
      </trkpt>
      <trkpt lat="49.34173" lon="1.13977">
        <ele>87.62</ele>
        <time>2013-05-05T08:05:29Z</time>
      </trkpt>
      <trkpt lat="49.34143" lon="1.13888">
        <ele>88.1</ele>
        <time>2013-05-05T08:05:42Z</time>
      </trkpt>
      <trkpt lat="49.34127" lon="1.13848">
        <ele>88.1</ele>
        <time>2013-05-05T08:05:48Z</time>
      </trkpt>
      <trkpt lat="49.3411" lon="1.13838">
        <ele>88.1</ele>
        <time>2013-05-05T08:05:52Z</time>
      </trkpt>
      <trkpt lat="49.34024" lon="1.13882">
        <ele>86.18</ele>
        <time>2013-05-05T08:06:08Z</time>
      </trkpt>
      <trkpt lat="49.33918" lon="1.13931">
        <ele>85.21</ele>
        <time>2013-05-05T08:06:28Z</time>
      </trkpt>
      <trkpt lat="49.33877" lon="1.13949">
        <ele>85.21</ele>
        <time>2013-05-05T08:06:36Z</time>
      </trkpt>
      <trkpt lat="49.33856" lon="1.13951">
        <ele>84.73</ele>
        <time>2013-05-05T08:06:40Z</time>
      </trkpt>
      <trkpt lat="49.33752" lon="1.13994">
        <ele>84.73</ele>
        <time>2013-05-05T08:07:00Z</time>
      </trkpt>
      <trkpt lat="49.33723" lon="1.14007">
        <ele>85.21</ele>
        <time>2013-05-05T08:07:06Z</time>
      </trkpt>
      <trkpt lat="49.33704" lon="1.13988">
        <ele>85.21</ele>
        <time>2013-05-05T08:07:12Z</time>
      </trkpt>
      <trkpt lat="49.33667" lon="1.13883">
        <ele>84.73</ele>
        <time>2013-05-05T08:07:29Z</time>
      </trkpt>
      <trkpt lat="49.33629" lon="1.13785">
        <ele>84.25</ele>
        <time>2013-05-05T08:07:45Z</time>
      </trkpt>
      <trkpt lat="49.33595" lon="1.13693">
        <ele>84.73</ele>
        <time>2013-05-05T08:08:00Z</time>
      </trkpt>
      <trkpt lat="49.33556" lon="1.13591">
        <ele>84.25</ele>
        <time>2013-05-05T08:08:17Z</time>
      </trkpt>
      <trkpt lat="49.33539" lon="1.13549">
        <ele>84.25</ele>
        <time>2013-05-05T08:08:26Z</time>
      </trkpt>
      <trkpt lat="49.3353" lon="1.13529">
        <ele>84.25</ele>
        <time>2013-05-05T08:08:30Z</time>
      </trkpt>
      <trkpt lat="49.33501" lon="1.13444">
        <ele>84.25</ele>
        <time>2013-05-05T08:08:46Z</time>
      </trkpt>
      <trkpt lat="49.33475" lon="1.13349">
        <ele>84.25</ele>
        <time>2013-05-05T08:09:03Z</time>
      </trkpt>
      <trkpt lat="49.33466" lon="1.13315">
        <ele>84.25</ele>
        <time>2013-05-05T08:09:09Z</time>
      </trkpt>
      <trkpt lat="49.33449" lon="1.13251">
        <ele>84.25</ele>
        <time>2013-05-05T08:09:20Z</time>
      </trkpt>
      <trkpt lat="49.33448" lon="1.13244">
        <ele>84.25</ele>
        <time>2013-05-05T08:09:21Z</time>
      </trkpt>
      <trkpt lat="49.33435" lon="1.13185">
        <ele>84.25</ele>
        <time>2013-05-05T08:09:31Z</time>
      </trkpt>
      <trkpt lat="49.33433" lon="1.13179">
        <ele>84.25</ele>
        <time>2013-05-05T08:09:32Z</time>
      </trkpt>
      <trkpt lat="49.33414" lon="1.1312">
        <ele>83.77</ele>
        <time>2013-05-05T08:09:43Z</time>
      </trkpt>
      <trkpt lat="49.3341" lon="1.1312">
        <ele>83.77</ele>
        <time>2013-05-05T08:09:44Z</time>
      </trkpt>
      <trkpt lat="49.33406" lon="1.13121">
        <ele>83.77</ele>
        <time>2013-05-05T08:09:45Z</time>
      </trkpt>
      <trkpt lat="49.33402" lon="1.13123">
        <ele>83.77</ele>
        <time>2013-05-05T08:09:46Z</time>
      </trkpt>
      <trkpt lat="49.33398" lon="1.13124">
        <ele>83.77</ele>
        <time>2013-05-05T08:09:47Z</time>
      </trkpt>
      <trkpt lat="49.33362" lon="1.13139">
        <ele>83.77</ele>
        <time>2013-05-05T08:09:56Z</time>
      </trkpt>
      <trkpt lat="49.33358" lon="1.13142">
        <ele>83.77</ele>
        <time>2013-05-05T08:09:57Z</time>
      </trkpt>
      <trkpt lat="49.33354" lon="1.13146">
        <ele>83.29</ele>
        <time>2013-05-05T08:09:58Z</time>
      </trkpt>
      <trkpt lat="49.3335" lon="1.13148">
        <ele>83.29</ele>
        <time>2013-05-05T08:09:59Z</time>
      </trkpt>
      <trkpt lat="49.33345" lon="1.13149">
        <ele>83.29</ele>
        <time>2013-05-05T08:10:00Z</time>
      </trkpt>
      <trkpt lat="49.3333" lon="1.13149">
        <ele>83.29</ele>
        <time>2013-05-05T08:10:03Z</time>
      </trkpt>
      <trkpt lat="49.33324" lon="1.13151">
        <ele>83.29</ele>
        <time>2013-05-05T08:10:04Z</time>
      </trkpt>
      <trkpt lat="49.33237" lon="1.13183">
        <ele>82.33</ele>
        <time>2013-05-05T08:10:20Z</time>
      </trkpt>
      <trkpt lat="49.33164" lon="1.1321">
        <ele>80.41</ele>
        <time>2013-05-05T08:10:32Z</time>
      </trkpt>
      <trkpt lat="49.33151" lon="1.13216">
        <ele>79.45</ele>
        <time>2013-05-05T08:10:34Z</time>
      </trkpt>
      <trkpt lat="49.33143" lon="1.13217">
        <ele>79.45</ele>
        <time>2013-05-05T08:10:35Z</time>
      </trkpt>
      <trkpt lat="49.33136" lon="1.13219">
        <ele>78.97</ele>
        <time>2013-05-05T08:10:36Z</time>
      </trkpt>
      <trkpt lat="49.33068" lon="1.1324">
        <ele>79.93</ele>
        <time>2013-05-05T08:10:48Z</time>
      </trkpt>
      <trkpt lat="49.33069" lon="1.13235">
        <ele>80.41</ele>
        <time>2013-05-05T08:10:50Z</time>
      </trkpt>
      <trkpt lat="49.33071" lon="1.13232">
        <ele>79.93</ele>
        <time>2013-05-05T08:10:51Z</time>
      </trkpt>
      <trkpt lat="49.33072" lon="1.13229">
        <ele>79.93</ele>
        <time>2013-05-05T08:10:52Z</time>
      </trkpt>
      <trkpt lat="49.33071" lon="1.13217">
        <ele>79.45</ele>
        <time>2013-05-05T08:10:55Z</time>
      </trkpt>
      <trkpt lat="49.33069" lon="1.13205">
        <ele>79.45</ele>
        <time>2013-05-05T08:10:57Z</time>
      </trkpt>
      <trkpt lat="49.33054" lon="1.13157">
        <ele>78.97</ele>
        <time>2013-05-05T08:11:05Z</time>
      </trkpt>
      <trkpt lat="49.33044" lon="1.13076">
        <ele>78.97</ele>
        <time>2013-05-05T08:11:16Z</time>
      </trkpt>
      <trkpt lat="49.33039" lon="1.13048">
        <ele>79.45</ele>
        <time>2013-05-05T08:11:20Z</time>
      </trkpt>
      <trkpt lat="49.33029" lon="1.12976">
        <ele>79.45</ele>
        <time>2013-05-05T08:11:30Z</time>
      </trkpt>
      <trkpt lat="49.33023" lon="1.12944">
        <ele>78.48</ele>
        <time>2013-05-05T08:11:34Z</time>
      </trkpt>
      <trkpt lat="49.33017" lon="1.129">
        <ele>79.45</ele>
        <time>2013-05-05T08:11:40Z</time>
      </trkpt>
      <trkpt lat="49.33004" lon="1.12807">
        <ele>78.97</ele>
        <time>2013-05-05T08:11:53Z</time>
      </trkpt>
      <trkpt lat="49.33001" lon="1.12796">
        <ele>78.97</ele>
        <time>2013-05-05T08:11:55Z</time>
      </trkpt>
      <trkpt lat="49.33" lon="1.12782">
        <ele>78.97</ele>
        <time>2013-05-05T08:11:58Z</time>
      </trkpt>
      <trkpt lat="49.32992" lon="1.12737">
        <ele>78.97</ele>
        <time>2013-05-05T08:12:08Z</time>
      </trkpt>
      <trkpt lat="49.3299" lon="1.12726">
        <ele>78.97</ele>
        <time>2013-05-05T08:12:10Z</time>
      </trkpt>
      <trkpt lat="49.3298" lon="1.12646">
        <ele>78</ele>
        <time>2013-05-05T08:12:23Z</time>
      </trkpt>
      <trkpt lat="49.32974" lon="1.12613">
        <ele>76.56</ele>
        <time>2013-05-05T08:12:28Z</time>
      </trkpt>
      <trkpt lat="49.3297" lon="1.12595">
        <ele>74.64</ele>
        <time>2013-05-05T08:12:31Z</time>
      </trkpt>
      <trkpt lat="49.32971" lon="1.12579">
        <ele>72.24</ele>
        <time>2013-05-05T08:12:34Z</time>
      </trkpt>
      <trkpt lat="49.32971" lon="1.12561">
        <ele>68.39</ele>
        <time>2013-05-05T08:12:39Z</time>
      </trkpt>
      <trkpt lat="49.32967" lon="1.12536">
        <ele>62.14</ele>
        <time>2013-05-05T08:12:44Z</time>
      </trkpt>
      <trkpt lat="49.32967" lon="1.1253">
        <ele>60.22</ele>
        <time>2013-05-05T08:12:45Z</time>
      </trkpt>
      <trkpt lat="49.32968" lon="1.12497">
        <ele>56.37</ele>
        <time>2013-05-05T08:12:49Z</time>
      </trkpt>
      <trkpt lat="49.32948" lon="1.12471">
        <ele>59.74</ele>
        <time>2013-05-05T08:12:57Z</time>
      </trkpt>
      <trkpt lat="49.32925" lon="1.12446">
        <ele>62.62</ele>
        <time>2013-05-05T08:13:08Z</time>
      </trkpt>
      <trkpt lat="49.32907" lon="1.12416">
        <ele>65.51</ele>
        <time>2013-05-05T08:13:21Z</time>
      </trkpt>
      <trkpt lat="49.32893" lon="1.12388">
        <ele>67.43</ele>
        <time>2013-05-05T08:13:33Z</time>
      </trkpt>
      <trkpt lat="49.32873" lon="1.12365">
        <ele>70.31</ele>
        <time>2013-05-05T08:13:46Z</time>
      </trkpt>
      <trkpt lat="49.32853" lon="1.12342">
        <ele>72.24</ele>
        <time>2013-05-05T08:14:00Z</time>
      </trkpt>
      <trkpt lat="49.32851" lon="1.12339">
        <ele>72.24</ele>
        <time>2013-05-05T08:14:02Z</time>
      </trkpt>
      <trkpt lat="49.32846" lon="1.12312">
        <ele>74.64</ele>
        <time>2013-05-05T08:14:14Z</time>
      </trkpt>
      <trkpt lat="49.32843" lon="1.12302">
        <ele>76.08</ele>
        <time>2013-05-05T08:14:18Z</time>
      </trkpt>
      <trkpt lat="49.32836" lon="1.12283">
        <ele>77.52</ele>
        <time>2013-05-05T08:14:24Z</time>
      </trkpt>
      <trkpt lat="49.32831" lon="1.12265">
        <ele>79.45</ele>
        <time>2013-05-05T08:14:34Z</time>
      </trkpt>
      <trkpt lat="49.32829" lon="1.12253">
        <ele>79.45</ele>
        <time>2013-05-05T08:14:39Z</time>
      </trkpt>
      <trkpt lat="49.32822" lon="1.12214">
        <ele>79.93</ele>
        <time>2013-05-05T08:14:52Z</time>
      </trkpt>
      <trkpt lat="49.32818" lon="1.12175">
        <ele>79.93</ele>
        <time>2013-05-05T08:15:01Z</time>
      </trkpt>
      <trkpt lat="49.32808" lon="1.12106">
        <ele>79.45</ele>
        <time>2013-05-05T08:15:13Z</time>
      </trkpt>
      <trkpt lat="49.328" lon="1.12032">
        <ele>78.97</ele>
        <time>2013-05-05T08:15:24Z</time>
      </trkpt>
      <trkpt lat="49.3279" lon="1.1198">
        <ele>78.48</ele>
        <time>2013-05-05T08:15:31Z</time>
      </trkpt>
      <trkpt lat="49.32789" lon="1.11964">
        <ele>78.48</ele>
        <time>2013-05-05T08:15:33Z</time>
      </trkpt>
      <trkpt lat="49.32784" lon="1.11928">
        <ele>78</ele>
        <time>2013-05-05T08:15:38Z</time>
      </trkpt>
      <trkpt lat="49.32773" lon="1.11864">
        <ele>77.52</ele>
        <time>2013-05-05T08:15:49Z</time>
      </trkpt>
      <trkpt lat="49.32781" lon="1.11847">
        <ele>77.04</ele>
        <time>2013-05-05T08:15:54Z</time>
      </trkpt>
      <trkpt lat="49.32828" lon="1.11819">
        <ele>76.56</ele>
        <time>2013-05-05T08:16:07Z</time>
      </trkpt>
      <trkpt lat="49.32832" lon="1.11818">
        <ele>76.56</ele>
        <time>2013-05-05T08:16:08Z</time>
      </trkpt>
      <trkpt lat="49.32836" lon="1.11801">
        <ele>76.56</ele>
        <time>2013-05-05T08:16:12Z</time>
      </trkpt>
      <trkpt lat="49.32829" lon="1.11745">
        <ele>75.6</ele>
        <time>2013-05-05T08:16:22Z</time>
      </trkpt>
      <trkpt lat="49.32828" lon="1.11716">
        <ele>75.12</ele>
        <time>2013-05-05T08:16:27Z</time>
      </trkpt>
      <trkpt lat="49.32832" lon="1.11674">
        <ele>74.64</ele>
        <time>2013-05-05T08:16:35Z</time>
      </trkpt>
      <trkpt lat="49.32841" lon="1.11667">
        <ele>75.12</ele>
        <time>2013-05-05T08:16:41Z</time>
      </trkpt>
      <trkpt lat="49.32848" lon="1.11645">
        <ele>75.12</ele>
        <time>2013-05-05T08:16:47Z</time>
      </trkpt>
      <trkpt lat="49.32854" lon="1.11643">
        <ele>75.12</ele>
        <time>2013-05-05T08:16:51Z</time>
      </trkpt>
      <trkpt lat="49.32898" lon="1.11675">
        <ele>76.56</ele>
        <time>2013-05-05T08:17:04Z</time>
      </trkpt>
      <trkpt lat="49.3293" lon="1.11704">
        <ele>76.56</ele>
        <time>2013-05-05T08:17:15Z</time>
      </trkpt>
      <trkpt lat="49.32966" lon="1.11736">
        <ele>77.04</ele>
        <time>2013-05-05T08:17:26Z</time>
      </trkpt>
      <trkpt lat="49.33" lon="1.11767">
        <ele>77.04</ele>
        <time>2013-05-05T08:17:36Z</time>
      </trkpt>
      <trkpt lat="49.33037" lon="1.11797">
        <ele>77.52</ele>
        <time>2013-05-05T08:17:47Z</time>
      </trkpt>
      <trkpt lat="49.33064" lon="1.1178">
        <ele>76.56</ele>
        <time>2013-05-05T08:17:54Z</time>
      </trkpt>
      <trkpt lat="49.33075" lon="1.11769">
        <ele>76.56</ele>
        <time>2013-05-05T08:17:57Z</time>
      </trkpt>
      <trkpt lat="49.3309" lon="1.11756">
        <ele>76.56</ele>
        <time>2013-05-05T08:18:01Z</time>
      </trkpt>
      <trkpt lat="49.33099" lon="1.11734">
        <ele>76.08</ele>
        <time>2013-05-05T08:18:05Z</time>
      </trkpt>
      <trkpt lat="49.3311" lon="1.11717">
        <ele>75.6</ele>
        <time>2013-05-05T08:18:09Z</time>
      </trkpt>
      <trkpt lat="49.33118" lon="1.11709">
        <ele>75.6</ele>
        <time>2013-05-05T08:18:11Z</time>
      </trkpt>
      <trkpt lat="49.3314" lon="1.11689">
        <ele>74.64</ele>
        <time>2013-05-05T08:18:17Z</time>
      </trkpt>
      <trkpt lat="49.33154" lon="1.11662">
        <ele>73.68</ele>
        <time>2013-05-05T08:18:21Z</time>
      </trkpt>
      <trkpt lat="49.33166" lon="1.11644">
        <ele>73.2</ele>
        <time>2013-05-05T08:18:24Z</time>
      </trkpt>
      <trkpt lat="49.33176" lon="1.11622">
        <ele>71.27</ele>
        <time>2013-05-05T08:18:27Z</time>
      </trkpt>
      <trkpt lat="49.33186" lon="1.11605">
        <ele>68.87</ele>
        <time>2013-05-05T08:18:30Z</time>
      </trkpt>
      <trkpt lat="49.33199" lon="1.11591">
        <ele>65.51</ele>
        <time>2013-05-05T08:18:35Z</time>
      </trkpt>
      <trkpt lat="49.33199" lon="1.11591">
        <ele>65.03</ele>
        <time>2013-05-05T08:18:36Z</time>
      </trkpt>
      <trkpt lat="49.33201" lon="1.11589">
        <ele>65.99</ele>
        <time>2013-05-05T08:18:55Z</time>
      </trkpt>
      <trkpt lat="49.33202" lon="1.11588">
        <ele>69.35</ele>
        <time>2013-05-05T08:19:04Z</time>
      </trkpt>
      <trkpt lat="49.33202" lon="1.11588">
        <ele>65.99</ele>
        <time>2013-05-05T08:19:05Z</time>
      </trkpt>
      <trkpt lat="49.33202" lon="1.11587">
        <ele>65.51</ele>
        <time>2013-05-05T08:19:20Z</time>
      </trkpt>
      <trkpt lat="49.33201" lon="1.11586">
        <ele>65.51</ele>
        <time>2013-05-05T08:19:38Z</time>
      </trkpt>
      <trkpt lat="49.33202" lon="1.11586">
        <ele>65.51</ele>
        <time>2013-05-05T08:19:47Z</time>
      </trkpt>
      <trkpt lat="49.33211" lon="1.11575">
        <ele>62.62</ele>
        <time>2013-05-05T08:19:52Z</time>
      </trkpt>
      <trkpt lat="49.33217" lon="1.11569">
        <ele>60.22</ele>
        <time>2013-05-05T08:19:55Z</time>
      </trkpt>
      <trkpt lat="49.33222" lon="1.11536">
        <ele>55.89</ele>
        <time>2013-05-05T08:20:03Z</time>
      </trkpt>
      <trkpt lat="49.33218" lon="1.11527">
        <ele>55.41</ele>
        <time>2013-05-05T08:20:06Z</time>
      </trkpt>
      <trkpt lat="49.33202" lon="1.11518">
        <ele>58.78</ele>
        <time>2013-05-05T08:20:16Z</time>
      </trkpt>
      <trkpt lat="49.33178" lon="1.11505">
        <ele>62.14</ele>
        <time>2013-05-05T08:20:27Z</time>
      </trkpt>
      <trkpt lat="49.3315" lon="1.11488">
        <ele>64.55</ele>
        <time>2013-05-05T08:20:39Z</time>
      </trkpt>
      <trkpt lat="49.33117" lon="1.11471">
        <ele>67.91</ele>
        <time>2013-05-05T08:20:52Z</time>
      </trkpt>
      <trkpt lat="49.33098" lon="1.11462">
        <ele>69.83</ele>
        <time>2013-05-05T08:21:02Z</time>
      </trkpt>
      <trkpt lat="49.33067" lon="1.11465">
        <ele>72.72</ele>
        <time>2013-05-05T08:21:16Z</time>
      </trkpt>
      <trkpt lat="49.33033" lon="1.11477">
        <ele>74.16</ele>
        <time>2013-05-05T08:21:30Z</time>
      </trkpt>
      <trkpt lat="49.32999" lon="1.11497">
        <ele>74.64</ele>
        <time>2013-05-05T08:21:42Z</time>
      </trkpt>
      <trkpt lat="49.32955" lon="1.11521">
        <ele>76.08</ele>
        <time>2013-05-05T08:21:55Z</time>
      </trkpt>
      <trkpt lat="49.32915" lon="1.11547">
        <ele>76.08</ele>
        <time>2013-05-05T08:22:06Z</time>
      </trkpt>
      <trkpt lat="49.32892" lon="1.11561">
        <ele>76.56</ele>
        <time>2013-05-05T08:22:12Z</time>
      </trkpt>
      <trkpt lat="49.32834" lon="1.11593">
        <ele>74.16</ele>
        <time>2013-05-05T08:22:25Z</time>
      </trkpt>
      <trkpt lat="49.32814" lon="1.11598">
        <ele>73.2</ele>
        <time>2013-05-05T08:22:29Z</time>
      </trkpt>
      <trkpt lat="49.32771" lon="1.1159">
        <ele>75.12</ele>
        <time>2013-05-05T08:22:39Z</time>
      </trkpt>
      <trkpt lat="49.32735" lon="1.11604">
        <ele>77.04</ele>
        <time>2013-05-05T08:22:49Z</time>
      </trkpt>
      <trkpt lat="49.32698" lon="1.11638">
        <ele>78</ele>
        <time>2013-05-05T08:23:00Z</time>
      </trkpt>
      <trkpt lat="49.32662" lon="1.11686">
        <ele>78.97</ele>
        <time>2013-05-05T08:23:12Z</time>
      </trkpt>
      <trkpt lat="49.32623" lon="1.11733">
        <ele>80.41</ele>
        <time>2013-05-05T08:23:25Z</time>
      </trkpt>
      <trkpt lat="49.32616" lon="1.11732">
        <ele>80.41</ele>
        <time>2013-05-05T08:23:27Z</time>
      </trkpt>
      <trkpt lat="49.32613" lon="1.1173">
        <ele>80.41</ele>
        <time>2013-05-05T08:23:28Z</time>
      </trkpt>
      <trkpt lat="49.3261" lon="1.11727">
        <ele>80.41</ele>
        <time>2013-05-05T08:23:29Z</time>
      </trkpt>
      <trkpt lat="49.32583" lon="1.11693">
        <ele>79.93</ele>
        <time>2013-05-05T08:23:37Z</time>
      </trkpt>
      <trkpt lat="49.32569" lon="1.11676">
        <ele>79.93</ele>
        <time>2013-05-05T08:23:45Z</time>
      </trkpt>
      <trkpt lat="49.32567" lon="1.11671">
        <ele>79.93</ele>
        <time>2013-05-05T08:23:56Z</time>
      </trkpt>
      <trkpt lat="49.32548" lon="1.11641">
        <ele>79.93</ele>
        <time>2013-05-05T08:24:06Z</time>
      </trkpt>
      <trkpt lat="49.32524" lon="1.11607">
        <ele>79.45</ele>
        <time>2013-05-05T08:24:14Z</time>
      </trkpt>
      <trkpt lat="49.32521" lon="1.11603">
        <ele>79.45</ele>
        <time>2013-05-05T08:24:15Z</time>
      </trkpt>
      <trkpt lat="49.32518" lon="1.11599">
        <ele>79.45</ele>
        <time>2013-05-05T08:24:16Z</time>
      </trkpt>
      <trkpt lat="49.32513" lon="1.1159">
        <ele>79.45</ele>
        <time>2013-05-05T08:24:18Z</time>
      </trkpt>
      <trkpt lat="49.32509" lon="1.11585">
        <ele>78.97</ele>
        <time>2013-05-05T08:24:19Z</time>
      </trkpt>
      <trkpt lat="49.32502" lon="1.11575">
        <ele>78.97</ele>
        <time>2013-05-05T08:24:21Z</time>
      </trkpt>
      <trkpt lat="49.32492" lon="1.11557">
        <ele>78.48</ele>
        <time>2013-05-05T08:24:24Z</time>
      </trkpt>
      <trkpt lat="49.32488" lon="1.11553">
        <ele>78.48</ele>
        <time>2013-05-05T08:24:25Z</time>
      </trkpt>
      <trkpt lat="49.32484" lon="1.11548">
        <ele>78</ele>
        <time>2013-05-05T08:24:26Z</time>
      </trkpt>
      <trkpt lat="49.32481" lon="1.11543">
        <ele>78</ele>
        <time>2013-05-05T08:24:27Z</time>
      </trkpt>
      <trkpt lat="49.32478" lon="1.11536">
        <ele>78</ele>
        <time>2013-05-05T08:24:28Z</time>
      </trkpt>
      <trkpt lat="49.32476" lon="1.1153">
        <ele>77.52</ele>
        <time>2013-05-05T08:24:29Z</time>
      </trkpt>
      <trkpt lat="49.32472" lon="1.11525">
        <ele>77.52</ele>
        <time>2013-05-05T08:24:30Z</time>
      </trkpt>
      <trkpt lat="49.32468" lon="1.11521">
        <ele>77.52</ele>
        <time>2013-05-05T08:24:31Z</time>
      </trkpt>
      <trkpt lat="49.32464" lon="1.11516">
        <ele>77.52</ele>
        <time>2013-05-05T08:24:32Z</time>
      </trkpt>
      <trkpt lat="49.32461" lon="1.11511">
        <ele>77.52</ele>
        <time>2013-05-05T08:24:33Z</time>
      </trkpt>
      <trkpt lat="49.32458" lon="1.11505">
        <ele>77.04</ele>
        <time>2013-05-05T08:24:34Z</time>
      </trkpt>
      <trkpt lat="49.32454" lon="1.11499">
        <ele>77.04</ele>
        <time>2013-05-05T08:24:35Z</time>
      </trkpt>
      <trkpt lat="49.32451" lon="1.11494">
        <ele>76.56</ele>
        <time>2013-05-05T08:24:36Z</time>
      </trkpt>
      <trkpt lat="49.32437" lon="1.11474">
        <ele>75.6</ele>
        <time>2013-05-05T08:24:40Z</time>
      </trkpt>
      <trkpt lat="49.32433" lon="1.11474">
        <ele>75.6</ele>
        <time>2013-05-05T08:24:41Z</time>
      </trkpt>
      <trkpt lat="49.32427" lon="1.11474">
        <ele>75.6</ele>
        <time>2013-05-05T08:24:43Z</time>
      </trkpt>
      <trkpt lat="49.32425" lon="1.11473">
        <ele>75.6</ele>
        <time>2013-05-05T08:24:44Z</time>
      </trkpt>
      <trkpt lat="49.32424" lon="1.11474">
        <ele>75.12</ele>
        <time>2013-05-05T08:24:54Z</time>
      </trkpt>
      <trkpt lat="49.32424" lon="1.11473">
        <ele>75.12</ele>
        <time>2013-05-05T08:25:39Z</time>
      </trkpt>
      <trkpt lat="49.32423" lon="1.11473">
        <ele>75.12</ele>
        <time>2013-05-05T08:26:11Z</time>
      </trkpt>
      <trkpt lat="49.32423" lon="1.11476">
        <ele>75.12</ele>
        <time>2013-05-05T08:26:37Z</time>
      </trkpt>
      <trkpt lat="49.32423" lon="1.11476">
        <ele>75.12</ele>
        <time>2013-05-05T08:27:01Z</time>
      </trkpt>
      <trkpt lat="49.32425" lon="1.11476">
        <ele>75.12</ele>
        <time>2013-05-05T08:27:30Z</time>
      </trkpt>
      <trkpt lat="49.32425" lon="1.11475">
        <ele>75.12</ele>
        <time>2013-05-05T08:27:56Z</time>
      </trkpt>
      <trkpt lat="49.32424" lon="1.11476">
        <ele>75.12</ele>
        <time>2013-05-05T08:28:24Z</time>
      </trkpt>
      <trkpt lat="49.32425" lon="1.11476">
        <ele>75.12</ele>
        <time>2013-05-05T08:28:55Z</time>
      </trkpt>
      <trkpt lat="49.32425" lon="1.11475">
        <ele>75.12</ele>
        <time>2013-05-05T08:29:19Z</time>
      </trkpt>
      <trkpt lat="49.32425" lon="1.11476">
        <ele>75.12</ele>
        <time>2013-05-05T08:29:49Z</time>
      </trkpt>
      <trkpt lat="49.32424" lon="1.11473">
        <ele>75.6</ele>
        <time>2013-05-05T08:30:27Z</time>
      </trkpt>
      <trkpt lat="49.32423" lon="1.11476">
        <ele>75.12</ele>
        <time>2013-05-05T08:30:55Z</time>
      </trkpt>
      <trkpt lat="49.32422" lon="1.1148">
        <ele>75.6</ele>
        <time>2013-05-05T08:31:32Z</time>
      </trkpt>
      <trkpt lat="49.32422" lon="1.11478">
        <ele>75.6</ele>
        <time>2013-05-05T08:32:08Z</time>
      </trkpt>
      <trkpt lat="49.32423" lon="1.11475">
        <ele>75.6</ele>
        <time>2013-05-05T08:32:38Z</time>
      </trkpt>
      <trkpt lat="49.32424" lon="1.11474">
        <ele>75.6</ele>
        <time>2013-05-05T08:33:21Z</time>
      </trkpt>
      <trkpt lat="49.32424" lon="1.11475">
        <ele>75.12</ele>
        <time>2013-05-05T08:33:52Z</time>
      </trkpt>
      <trkpt lat="49.32424" lon="1.11474">
        <ele>75.6</ele>
        <time>2013-05-05T08:34:15Z</time>
      </trkpt>
      <trkpt lat="49.32424" lon="1.11473">
        <ele>75.6</ele>
        <time>2013-05-05T08:34:33Z</time>
      </trkpt>
      <trkpt lat="49.32423" lon="1.11468">
        <ele>75.6</ele>
        <time>2013-05-05T08:34:43Z</time>
      </trkpt>
      <trkpt lat="49.32423" lon="1.11464">
        <ele>75.6</ele>
        <time>2013-05-05T08:34:45Z</time>
      </trkpt>
      <trkpt lat="49.32423" lon="1.11462">
        <ele>75.6</ele>
        <time>2013-05-05T08:34:46Z</time>
      </trkpt>
      <trkpt lat="49.32423" lon="1.11459">
        <ele>75.12</ele>
        <time>2013-05-05T08:34:47Z</time>
      </trkpt>
      <trkpt lat="49.32422" lon="1.11456">
        <ele>75.12</ele>
        <time>2013-05-05T08:34:48Z</time>
      </trkpt>
      <trkpt lat="49.3242" lon="1.11453">
        <ele>75.12</ele>
        <time>2013-05-05T08:34:49Z</time>
      </trkpt>
      <trkpt lat="49.32419" lon="1.11451">
        <ele>74.64</ele>
        <time>2013-05-05T08:34:50Z</time>
      </trkpt>
      <trkpt lat="49.32416" lon="1.11446">
        <ele>74.64</ele>
        <time>2013-05-05T08:35:00Z</time>
      </trkpt>
      <trkpt lat="49.32416" lon="1.11444">
        <ele>74.64</ele>
        <time>2013-05-05T08:35:01Z</time>
      </trkpt>
      <trkpt lat="49.32415" lon="1.11441">
        <ele>74.64</ele>
        <time>2013-05-05T08:35:02Z</time>
      </trkpt>
      <trkpt lat="49.32413" lon="1.11438">
        <ele>74.64</ele>
        <time>2013-05-05T08:35:03Z</time>
      </trkpt>
      <trkpt lat="49.32411" lon="1.11434">
        <ele>74.16</ele>
        <time>2013-05-05T08:35:04Z</time>
      </trkpt>
      <trkpt lat="49.3241" lon="1.11428">
        <ele>73.68</ele>
        <time>2013-05-05T08:35:05Z</time>
      </trkpt>
      <trkpt lat="49.32411" lon="1.11422">
        <ele>73.68</ele>
        <time>2013-05-05T08:35:06Z</time>
      </trkpt>
      <trkpt lat="49.32413" lon="1.11416">
        <ele>73.2</ele>
        <time>2013-05-05T08:35:07Z</time>
      </trkpt>
      <trkpt lat="49.32415" lon="1.1141">
        <ele>72.72</ele>
        <time>2013-05-05T08:35:08Z</time>
      </trkpt>
      <trkpt lat="49.32422" lon="1.11387">
        <ele>71.76</ele>
        <time>2013-05-05T08:35:11Z</time>
      </trkpt>
      <trkpt lat="49.32424" lon="1.11378">
        <ele>71.27</ele>
        <time>2013-05-05T08:35:12Z</time>
      </trkpt>
      <trkpt lat="49.32425" lon="1.11369">
        <ele>70.79</ele>
        <time>2013-05-05T08:35:13Z</time>
      </trkpt>
      <trkpt lat="49.32425" lon="1.1136">
        <ele>70.79</ele>
        <time>2013-05-05T08:35:14Z</time>
      </trkpt>
      <trkpt lat="49.32423" lon="1.11326">
        <ele>70.79</ele>
        <time>2013-05-05T08:35:18Z</time>
      </trkpt>
      <trkpt lat="49.3242" lon="1.11295">
        <ele>70.31</ele>
        <time>2013-05-05T08:35:22Z</time>
      </trkpt>
      <trkpt lat="49.32413" lon="1.11165">
        <ele>69.83</ele>
        <time>2013-05-05T08:35:37Z</time>
      </trkpt>
      <trkpt lat="49.32413" lon="1.11156">
        <ele>69.83</ele>
        <time>2013-05-05T08:35:38Z</time>
      </trkpt>
      <trkpt lat="49.32412" lon="1.11147">
        <ele>69.83</ele>
        <time>2013-05-05T08:35:39Z</time>
      </trkpt>
      <trkpt lat="49.32412" lon="1.1112">
        <ele>69.35</ele>
        <time>2013-05-05T08:35:42Z</time>
      </trkpt>
      <trkpt lat="49.32408" lon="1.11056">
        <ele>68.39</ele>
        <time>2013-05-05T08:35:49Z</time>
      </trkpt>
      <trkpt lat="49.32408" lon="1.11048">
        <ele>68.39</ele>
        <time>2013-05-05T08:35:50Z</time>
      </trkpt>
      <trkpt lat="49.32414" lon="1.10913">
        <ele>65.03</ele>
        <time>2013-05-05T08:36:04Z</time>
      </trkpt>
      <trkpt lat="49.32425" lon="1.10848">
        <ele>61.66</ele>
        <time>2013-05-05T08:36:10Z</time>
      </trkpt>
      <trkpt lat="49.32427" lon="1.10836">
        <ele>61.18</ele>
        <time>2013-05-05T08:36:11Z</time>
      </trkpt>
      <trkpt lat="49.32435" lon="1.10772">
        <ele>57.82</ele>
        <time>2013-05-05T08:36:16Z</time>
      </trkpt>
      <trkpt lat="49.32438" lon="1.10745">
        <ele>56.86</ele>
        <time>2013-05-05T08:36:18Z</time>
      </trkpt>
      <trkpt lat="49.32437" lon="1.1073">
        <ele>55.89</ele>
        <time>2013-05-05T08:36:19Z</time>
      </trkpt>
      <trkpt lat="49.32435" lon="1.10699">
        <ele>53.49</ele>
        <time>2013-05-05T08:36:21Z</time>
      </trkpt>
      <trkpt lat="49.32433" lon="1.10683">
        <ele>52.53</ele>
        <time>2013-05-05T08:36:22Z</time>
      </trkpt>
      <trkpt lat="49.32426" lon="1.10635">
        <ele>48.68</ele>
        <time>2013-05-05T08:36:25Z</time>
      </trkpt>
      <trkpt lat="49.32409" lon="1.10559">
        <ele>45.32</ele>
        <time>2013-05-05T08:36:30Z</time>
      </trkpt>
      <trkpt lat="49.32395" lon="1.10512">
        <ele>43.4</ele>
        <time>2013-05-05T08:36:34Z</time>
      </trkpt>
      <trkpt lat="49.32392" lon="1.10502">
        <ele>42.92</ele>
        <time>2013-05-05T08:36:35Z</time>
      </trkpt>
      <trkpt lat="49.32387" lon="1.10489">
        <ele>42.44</ele>
        <time>2013-05-05T08:36:37Z</time>
      </trkpt>
      <trkpt lat="49.32384" lon="1.10484">
        <ele>42.44</ele>
        <time>2013-05-05T08:36:38Z</time>
      </trkpt>
      <trkpt lat="49.3238" lon="1.10481">
        <ele>41.95</ele>
        <time>2013-05-05T08:36:39Z</time>
      </trkpt>
      <trkpt lat="49.32375" lon="1.10479">
        <ele>41.95</ele>
        <time>2013-05-05T08:36:40Z</time>
      </trkpt>
      <trkpt lat="49.32369" lon="1.10477">
        <ele>41.47</ele>
        <time>2013-05-05T08:36:41Z</time>
      </trkpt>
      <trkpt lat="49.32362" lon="1.10476">
        <ele>41.47</ele>
        <time>2013-05-05T08:36:42Z</time>
      </trkpt>
      <trkpt lat="49.32355" lon="1.10476">
        <ele>40.99</ele>
        <time>2013-05-05T08:36:43Z</time>
      </trkpt>
      <trkpt lat="49.32287" lon="1.10484">
        <ele>37.63</ele>
        <time>2013-05-05T08:36:52Z</time>
      </trkpt>
      <trkpt lat="49.32279" lon="1.10485">
        <ele>37.63</ele>
        <time>2013-05-05T08:36:53Z</time>
      </trkpt>
      <trkpt lat="49.32216" lon="1.10493">
        <ele>34.26</ele>
        <time>2013-05-05T08:37:01Z</time>
      </trkpt>
      <trkpt lat="49.32209" lon="1.10492">
        <ele>34.26</ele>
        <time>2013-05-05T08:37:02Z</time>
      </trkpt>
      <trkpt lat="49.32203" lon="1.10489">
        <ele>34.26</ele>
        <time>2013-05-05T08:37:03Z</time>
      </trkpt>
      <trkpt lat="49.32178" lon="1.1047">
        <ele>31.38</ele>
        <time>2013-05-05T08:37:07Z</time>
      </trkpt>
      <trkpt lat="49.32171" lon="1.10463">
        <ele>30.9</ele>
        <time>2013-05-05T08:37:08Z</time>
      </trkpt>
      <trkpt lat="49.32165" lon="1.10455">
        <ele>30.42</ele>
        <time>2013-05-05T08:37:09Z</time>
      </trkpt>
      <trkpt lat="49.3216" lon="1.10446">
        <ele>29.94</ele>
        <time>2013-05-05T08:37:10Z</time>
      </trkpt>
      <trkpt lat="49.32154" lon="1.10437">
        <ele>29.46</ele>
        <time>2013-05-05T08:37:11Z</time>
      </trkpt>
      <trkpt lat="49.32138" lon="1.10409">
        <ele>28.02</ele>
        <time>2013-05-05T08:37:14Z</time>
      </trkpt>
      <trkpt lat="49.32132" lon="1.10401">
        <ele>28.02</ele>
        <time>2013-05-05T08:37:15Z</time>
      </trkpt>
      <trkpt lat="49.32125" lon="1.10396">
        <ele>28.02</ele>
        <time>2013-05-05T08:37:16Z</time>
      </trkpt>
      <trkpt lat="49.32118" lon="1.10392">
        <ele>27.53</ele>
        <time>2013-05-05T08:37:17Z</time>
      </trkpt>
      <trkpt lat="49.3211" lon="1.10391">
        <ele>27.53</ele>
        <time>2013-05-05T08:37:18Z</time>
      </trkpt>
      <trkpt lat="49.32102" lon="1.10392">
        <ele>27.53</ele>
        <time>2013-05-05T08:37:19Z</time>
      </trkpt>
      <trkpt lat="49.32094" lon="1.10393">
        <ele>27.05</ele>
        <time>2013-05-05T08:37:20Z</time>
      </trkpt>
      <trkpt lat="49.32012" lon="1.10407">
        <ele>24.17</ele>
        <time>2013-05-05T08:37:30Z</time>
      </trkpt>
      <trkpt lat="49.31914" lon="1.10441">
        <ele>21.77</ele>
        <time>2013-05-05T08:37:43Z</time>
      </trkpt>
      <trkpt lat="49.31908" lon="1.10448">
        <ele>21.29</ele>
        <time>2013-05-05T08:37:44Z</time>
      </trkpt>
      <trkpt lat="49.31869" lon="1.10497">
        <ele>17.44</ele>
        <time>2013-05-05T08:37:50Z</time>
      </trkpt>
      <trkpt lat="49.31837" lon="1.1054">
        <ele>14.08</ele>
        <time>2013-05-05T08:37:55Z</time>
      </trkpt>
      <trkpt lat="49.31805" lon="1.10583">
        <ele>10.71</ele>
        <time>2013-05-05T08:38:00Z</time>
      </trkpt>
      <trkpt lat="49.31785" lon="1.10614">
        <ele>9.75</ele>
        <time>2013-05-05T08:38:07Z</time>
      </trkpt>
      <trkpt lat="49.31785" lon="1.10619">
        <ele>9.75</ele>
        <time>2013-05-05T08:38:08Z</time>
      </trkpt>
      <trkpt lat="49.31786" lon="1.10625">
        <ele>9.27</ele>
        <time>2013-05-05T08:38:09Z</time>
      </trkpt>
      <trkpt lat="49.31788" lon="1.10631">
        <ele>9.27</ele>
        <time>2013-05-05T08:38:10Z</time>
      </trkpt>
      <trkpt lat="49.3179" lon="1.10638">
        <ele>9.27</ele>
        <time>2013-05-05T08:38:11Z</time>
      </trkpt>
      <trkpt lat="49.31792" lon="1.10645">
        <ele>9.27</ele>
        <time>2013-05-05T08:38:12Z</time>
      </trkpt>
      <trkpt lat="49.31796" lon="1.10652">
        <ele>8.79</ele>
        <time>2013-05-05T08:38:13Z</time>
      </trkpt>
      <trkpt lat="49.318" lon="1.10659">
        <ele>8.31</ele>
        <time>2013-05-05T08:38:14Z</time>
      </trkpt>
      <trkpt lat="49.31804" lon="1.10665">
        <ele>8.31</ele>
        <time>2013-05-05T08:38:15Z</time>
      </trkpt>
      <trkpt lat="49.31811" lon="1.10681">
        <ele>8.31</ele>
        <time>2013-05-05T08:38:18Z</time>
      </trkpt>
      <trkpt lat="49.31809" lon="1.10685">
        <ele>8.31</ele>
        <time>2013-05-05T08:38:19Z</time>
      </trkpt>
      <trkpt lat="49.31806" lon="1.1069">
        <ele>8.31</ele>
        <time>2013-05-05T08:38:20Z</time>
      </trkpt>
      <trkpt lat="49.31804" lon="1.10696">
        <ele>8.31</ele>
        <time>2013-05-05T08:38:21Z</time>
      </trkpt>
      <trkpt lat="49.31803" lon="1.10704">
        <ele>7.83</ele>
        <time>2013-05-05T08:38:22Z</time>
      </trkpt>
      <trkpt lat="49.3178" lon="1.10844">
        <ele>7.35</ele>
        <time>2013-05-05T08:38:37Z</time>
      </trkpt>
      <trkpt lat="49.31768" lon="1.10992">
        <ele>7.83</ele>
        <time>2013-05-05T08:38:53Z</time>
      </trkpt>
      <trkpt lat="49.31762" lon="1.11098">
        <ele>8.79</ele>
        <time>2013-05-05T08:39:07Z</time>
      </trkpt>
      <trkpt lat="49.31764" lon="1.11145">
        <ele>8.79</ele>
        <time>2013-05-05T08:39:14Z</time>
      </trkpt>
      <trkpt lat="49.31763" lon="1.11267">
        <ele>8.79</ele>
        <time>2013-05-05T08:39:31Z</time>
      </trkpt>
      <trkpt lat="49.31764" lon="1.11319">
        <ele>8.79</ele>
        <time>2013-05-05T08:39:38Z</time>
      </trkpt>
      <trkpt lat="49.31765" lon="1.11431">
        <ele>8.31</ele>
        <time>2013-05-05T08:39:52Z</time>
      </trkpt>
      <trkpt lat="49.31765" lon="1.1156">
        <ele>8.79</ele>
        <time>2013-05-05T08:40:09Z</time>
      </trkpt>
      <trkpt lat="49.31765" lon="1.11575">
        <ele>8.79</ele>
        <time>2013-05-05T08:40:11Z</time>
      </trkpt>
      <trkpt lat="49.3177" lon="1.11724">
        <ele>8.31</ele>
        <time>2013-05-05T08:40:30Z</time>
      </trkpt>
      <trkpt lat="49.31771" lon="1.11763">
        <ele>7.83</ele>
        <time>2013-05-05T08:40:35Z</time>
      </trkpt>
      <trkpt lat="49.31772" lon="1.11771">
        <ele>7.83</ele>
        <time>2013-05-05T08:40:36Z</time>
      </trkpt>
      <trkpt lat="49.31775" lon="1.11777">
        <ele>8.31</ele>
        <time>2013-05-05T08:40:37Z</time>
      </trkpt>
      <trkpt lat="49.31776" lon="1.11783">
        <ele>8.31</ele>
        <time>2013-05-05T08:40:38Z</time>
      </trkpt>
      <trkpt lat="49.31777" lon="1.11789">
        <ele>8.31</ele>
        <time>2013-05-05T08:40:39Z</time>
      </trkpt>
      <trkpt lat="49.31777" lon="1.11796">
        <ele>8.31</ele>
        <time>2013-05-05T08:40:40Z</time>
      </trkpt>
      <trkpt lat="49.31776" lon="1.11914">
        <ele>8.31</ele>
        <time>2013-05-05T08:40:54Z</time>
      </trkpt>
      <trkpt lat="49.31772" lon="1.1196">
        <ele>8.31</ele>
        <time>2013-05-05T08:40:59Z</time>
      </trkpt>
      <trkpt lat="49.31772" lon="1.12022">
        <ele>8.31</ele>
        <time>2013-05-05T08:41:06Z</time>
      </trkpt>
      <trkpt lat="49.31778" lon="1.12166">
        <ele>9.27</ele>
        <time>2013-05-05T08:41:22Z</time>
      </trkpt>
      <trkpt lat="49.31785" lon="1.1229">
        <ele>9.27</ele>
        <time>2013-05-05T08:41:36Z</time>
      </trkpt>
      <trkpt lat="49.31793" lon="1.12349">
        <ele>9.27</ele>
        <time>2013-05-05T08:41:43Z</time>
      </trkpt>
      <trkpt lat="49.31793" lon="1.12357">
        <ele>9.27</ele>
        <time>2013-05-05T08:41:44Z</time>
      </trkpt>
      <trkpt lat="49.31792" lon="1.12364">
        <ele>9.75</ele>
        <time>2013-05-05T08:41:45Z</time>
      </trkpt>
      <trkpt lat="49.31789" lon="1.1237">
        <ele>9.27</ele>
        <time>2013-05-05T08:41:46Z</time>
      </trkpt>
      <trkpt lat="49.31785" lon="1.12374">
        <ele>9.27</ele>
        <time>2013-05-05T08:41:47Z</time>
      </trkpt>
      <trkpt lat="49.3178" lon="1.12376">
        <ele>8.79</ele>
        <time>2013-05-05T08:41:48Z</time>
      </trkpt>
      <trkpt lat="49.31775" lon="1.12379">
        <ele>8.79</ele>
        <time>2013-05-05T08:41:49Z</time>
      </trkpt>
      <trkpt lat="49.31764" lon="1.12384">
        <ele>8.79</ele>
        <time>2013-05-05T08:41:51Z</time>
      </trkpt>
      <trkpt lat="49.31749" lon="1.12398">
        <ele>8.31</ele>
        <time>2013-05-05T08:41:54Z</time>
      </trkpt>
      <trkpt lat="49.31744" lon="1.12404">
        <ele>8.79</ele>
        <time>2013-05-05T08:41:55Z</time>
      </trkpt>
      <trkpt lat="49.31724" lon="1.12437">
        <ele>8.79</ele>
        <time>2013-05-05T08:42:00Z</time>
      </trkpt>
      <trkpt lat="49.31708" lon="1.12471">
        <ele>8.79</ele>
        <time>2013-05-05T08:42:05Z</time>
      </trkpt>
      <trkpt lat="49.31697" lon="1.12498">
        <ele>8.79</ele>
        <time>2013-05-05T08:42:09Z</time>
      </trkpt>
      <trkpt lat="49.31694" lon="1.12504">
        <ele>9.27</ele>
        <time>2013-05-05T08:42:10Z</time>
      </trkpt>
      <trkpt lat="49.31687" lon="1.12518">
        <ele>9.75</ele>
        <time>2013-05-05T08:42:13Z</time>
      </trkpt>
      <trkpt lat="49.31683" lon="1.12515">
        <ele>10.23</ele>
        <time>2013-05-05T08:42:18Z</time>
      </trkpt>
      <trkpt lat="49.31682" lon="1.12515">
        <ele>10.23</ele>
        <time>2013-05-05T08:42:19Z</time>
      </trkpt>
      <trkpt lat="49.3168" lon="1.12516">
        <ele>10.23</ele>
        <time>2013-05-05T08:42:20Z</time>
      </trkpt>
      <trkpt lat="49.31677" lon="1.12516">
        <ele>10.71</ele>
        <time>2013-05-05T08:42:21Z</time>
      </trkpt>
      <trkpt lat="49.31674" lon="1.12517">
        <ele>10.71</ele>
        <time>2013-05-05T08:42:22Z</time>
      </trkpt>
      <trkpt lat="49.31671" lon="1.12519">
        <ele>10.23</ele>
        <time>2013-05-05T08:42:23Z</time>
      </trkpt>
      <trkpt lat="49.31667" lon="1.12523">
        <ele>9.75</ele>
        <time>2013-05-05T08:42:24Z</time>
      </trkpt>
      <trkpt lat="49.31663" lon="1.12527">
        <ele>10.23</ele>
        <time>2013-05-05T08:42:25Z</time>
      </trkpt>
      <trkpt lat="49.3164" lon="1.12545">
        <ele>10.23</ele>
        <time>2013-05-05T08:42:31Z</time>
      </trkpt>
      <trkpt lat="49.31632" lon="1.12552">
        <ele>10.23</ele>
        <time>2013-05-05T08:42:33Z</time>
      </trkpt>
      <trkpt lat="49.31614" lon="1.12578">
        <ele>9.75</ele>
        <time>2013-05-05T08:42:40Z</time>
      </trkpt>
      <trkpt lat="49.31611" lon="1.12585">
        <ele>9.75</ele>
        <time>2013-05-05T08:42:41Z</time>
      </trkpt>
      <trkpt lat="49.3161" lon="1.12592">
        <ele>9.75</ele>
        <time>2013-05-05T08:42:42Z</time>
      </trkpt>
      <trkpt lat="49.31609" lon="1.12599">
        <ele>9.75</ele>
        <time>2013-05-05T08:42:43Z</time>
      </trkpt>
      <trkpt lat="49.3161" lon="1.12633">
        <ele>9.75</ele>
        <time>2013-05-05T08:42:48Z</time>
      </trkpt>
      <trkpt lat="49.3161" lon="1.12662">
        <ele>9.75</ele>
        <time>2013-05-05T08:42:52Z</time>
      </trkpt>
      <trkpt lat="49.31609" lon="1.12742">
        <ele>9.75</ele>
        <time>2013-05-05T08:43:03Z</time>
      </trkpt>
      <trkpt lat="49.31609" lon="1.12763">
        <ele>10.23</ele>
        <time>2013-05-05T08:43:06Z</time>
      </trkpt>
      <trkpt lat="49.3161" lon="1.12791">
        <ele>9.75</ele>
        <time>2013-05-05T08:43:10Z</time>
      </trkpt>
      <trkpt lat="49.3161" lon="1.12804">
        <ele>9.75</ele>
        <time>2013-05-05T08:43:12Z</time>
      </trkpt>
      <trkpt lat="49.31617" lon="1.12832">
        <ele>10.23</ele>
        <time>2013-05-05T08:43:19Z</time>
      </trkpt>
      <trkpt lat="49.31617" lon="1.12859">
        <ele>9.75</ele>
        <time>2013-05-05T08:43:23Z</time>
      </trkpt>
      <trkpt lat="49.31622" lon="1.12934">
        <ele>9.75</ele>
        <time>2013-05-05T08:43:36Z</time>
      </trkpt>
      <trkpt lat="49.31624" lon="1.12956">
        <ele>9.75</ele>
        <time>2013-05-05T08:43:41Z</time>
      </trkpt>
      <trkpt lat="49.31628" lon="1.1297">
        <ele>9.75</ele>
        <time>2013-05-05T08:43:43Z</time>
      </trkpt>
      <trkpt lat="49.31631" lon="1.12984">
        <ele>9.75</ele>
        <time>2013-05-05T08:43:45Z</time>
      </trkpt>
      <trkpt lat="49.31633" lon="1.13018">
        <ele>10.23</ele>
        <time>2013-05-05T08:43:51Z</time>
      </trkpt>
      <trkpt lat="49.31641" lon="1.1303">
        <ele>9.75</ele>
        <time>2013-05-05T08:43:54Z</time>
      </trkpt>
      <trkpt lat="49.3165" lon="1.13035">
        <ele>9.75</ele>
        <time>2013-05-05T08:43:57Z</time>
      </trkpt>
      <trkpt lat="49.31668" lon="1.13052">
        <ele>9.75</ele>
        <time>2013-05-05T08:44:02Z</time>
      </trkpt>
      <trkpt lat="49.3168" lon="1.13068">
        <ele>10.23</ele>
        <time>2013-05-05T08:44:07Z</time>
      </trkpt>
      <trkpt lat="49.31681" lon="1.13091">
        <ele>10.23</ele>
        <time>2013-05-05T08:44:10Z</time>
      </trkpt>
      <trkpt lat="49.31685" lon="1.13195">
        <ele>10.23</ele>
        <time>2013-05-05T08:44:24Z</time>
      </trkpt>
      <trkpt lat="49.3169" lon="1.13305">
        <ele>10.23</ele>
        <time>2013-05-05T08:44:39Z</time>
      </trkpt>
      <trkpt lat="49.31694" lon="1.13376">
        <ele>9.75</ele>
        <time>2013-05-05T08:44:48Z</time>
      </trkpt>
      <trkpt lat="49.31697" lon="1.13419">
        <ele>10.23</ele>
        <time>2013-05-05T08:44:56Z</time>
      </trkpt>
      <trkpt lat="49.31709" lon="1.13426">
        <ele>10.23</ele>
        <time>2013-05-05T08:45:03Z</time>
      </trkpt>
      <trkpt lat="49.31697" lon="1.13455">
        <ele>9.75</ele>
        <time>2013-05-05T08:45:11Z</time>
      </trkpt>
      <trkpt lat="49.31699" lon="1.1347">
        <ele>10.23</ele>
        <time>2013-05-05T08:45:13Z</time>
      </trkpt>
      <trkpt lat="49.31707" lon="1.13584">
        <ele>9.75</ele>
        <time>2013-05-05T08:45:27Z</time>
      </trkpt>
      <trkpt lat="49.31712" lon="1.13671">
        <ele>10.23</ele>
        <time>2013-05-05T08:45:38Z</time>
      </trkpt>
      <trkpt lat="49.31719" lon="1.13716">
        <ele>9.75</ele>
        <time>2013-05-05T08:45:44Z</time>
      </trkpt>
      <trkpt lat="49.3172" lon="1.1373">
        <ele>9.75</ele>
        <time>2013-05-05T08:45:46Z</time>
      </trkpt>
      <trkpt lat="49.31721" lon="1.13757">
        <ele>9.75</ele>
        <time>2013-05-05T08:45:50Z</time>
      </trkpt>
      <trkpt lat="49.31718" lon="1.13793">
        <ele>9.75</ele>
        <time>2013-05-05T08:45:55Z</time>
      </trkpt>
      <trkpt lat="49.31703" lon="1.13918">
        <ele>9.75</ele>
        <time>2013-05-05T08:46:11Z</time>
      </trkpt>
      <trkpt lat="49.31697" lon="1.14039">
        <ele>9.75</ele>
        <time>2013-05-05T08:46:26Z</time>
      </trkpt>
      <trkpt lat="49.31705" lon="1.14172">
        <ele>9.75</ele>
        <time>2013-05-05T08:46:43Z</time>
      </trkpt>
      <trkpt lat="49.31714" lon="1.14258">
        <ele>9.75</ele>
        <time>2013-05-05T08:46:54Z</time>
      </trkpt>
      <trkpt lat="49.31717" lon="1.14296">
        <ele>9.75</ele>
        <time>2013-05-05T08:46:59Z</time>
      </trkpt>
      <trkpt lat="49.31717" lon="1.14319">
        <ele>9.75</ele>
        <time>2013-05-05T08:47:02Z</time>
      </trkpt>
      <trkpt lat="49.31713" lon="1.14372">
        <ele>9.75</ele>
        <time>2013-05-05T08:47:09Z</time>
      </trkpt>
      <trkpt lat="49.3172" lon="1.14396">
        <ele>9.75</ele>
        <time>2013-05-05T08:47:13Z</time>
      </trkpt>
      <trkpt lat="49.31728" lon="1.14404">
        <ele>10.23</ele>
        <time>2013-05-05T08:47:15Z</time>
      </trkpt>
      <trkpt lat="49.31734" lon="1.14412">
        <ele>9.75</ele>
        <time>2013-05-05T08:47:17Z</time>
      </trkpt>
      <trkpt lat="49.31737" lon="1.14418">
        <ele>10.23</ele>
        <time>2013-05-05T08:47:18Z</time>
      </trkpt>
      <trkpt lat="49.31739" lon="1.14424">
        <ele>10.23</ele>
        <time>2013-05-05T08:47:19Z</time>
      </trkpt>
      <trkpt lat="49.31739" lon="1.14431">
        <ele>10.23</ele>
        <time>2013-05-05T08:47:20Z</time>
      </trkpt>
      <trkpt lat="49.31739" lon="1.14439">
        <ele>10.23</ele>
        <time>2013-05-05T08:47:21Z</time>
      </trkpt>
      <trkpt lat="49.31738" lon="1.14447">
        <ele>10.23</ele>
        <time>2013-05-05T08:47:22Z</time>
      </trkpt>
      <trkpt lat="49.31733" lon="1.14539">
        <ele>9.75</ele>
        <time>2013-05-05T08:47:33Z</time>
      </trkpt>
      <trkpt lat="49.31732" lon="1.14547">
        <ele>9.75</ele>
        <time>2013-05-05T08:47:34Z</time>
      </trkpt>
      <trkpt lat="49.3173" lon="1.14555">
        <ele>9.75</ele>
        <time>2013-05-05T08:47:35Z</time>
      </trkpt>
      <trkpt lat="49.31719" lon="1.14604">
        <ele>9.75</ele>
        <time>2013-05-05T08:47:41Z</time>
      </trkpt>
      <trkpt lat="49.31715" lon="1.14621">
        <ele>9.75</ele>
        <time>2013-05-05T08:47:43Z</time>
      </trkpt>
      <trkpt lat="49.31706" lon="1.14663">
        <ele>9.75</ele>
        <time>2013-05-05T08:47:48Z</time>
      </trkpt>
      <trkpt lat="49.31706" lon="1.14671">
        <ele>9.75</ele>
        <time>2013-05-05T08:47:49Z</time>
      </trkpt>
      <trkpt lat="49.31709" lon="1.14678">
        <ele>10.23</ele>
        <time>2013-05-05T08:47:50Z</time>
      </trkpt>
      <trkpt lat="49.31714" lon="1.14682">
        <ele>10.23</ele>
        <time>2013-05-05T08:47:51Z</time>
      </trkpt>
      <trkpt lat="49.31719" lon="1.14682">
        <ele>9.75</ele>
        <time>2013-05-05T08:47:52Z</time>
      </trkpt>
      <trkpt lat="49.31724" lon="1.14678">
        <ele>9.75</ele>
        <time>2013-05-05T08:47:53Z</time>
      </trkpt>
      <trkpt lat="49.31729" lon="1.14674">
        <ele>9.75</ele>
        <time>2013-05-05T08:47:54Z</time>
      </trkpt>
      <trkpt lat="49.31764" lon="1.14639">
        <ele>10.23</ele>
        <time>2013-05-05T08:48:02Z</time>
      </trkpt>
      <trkpt lat="49.3179" lon="1.14611">
        <ele>9.75</ele>
        <time>2013-05-05T08:48:08Z</time>
      </trkpt>
      <trkpt lat="49.31807" lon="1.14591">
        <ele>9.75</ele>
        <time>2013-05-05T08:48:12Z</time>
      </trkpt>
      <trkpt lat="49.31855" lon="1.14539">
        <ele>10.23</ele>
        <time>2013-05-05T08:48:24Z</time>
      </trkpt>
      <trkpt lat="49.31857" lon="1.1454">
        <ele>10.23</ele>
        <time>2013-05-05T08:48:25Z</time>
      </trkpt>
      <trkpt lat="49.31858" lon="1.14549">
        <ele>10.23</ele>
        <time>2013-05-05T08:48:27Z</time>
      </trkpt>
      <trkpt lat="49.31858" lon="1.14555">
        <ele>10.23</ele>
        <time>2013-05-05T08:48:28Z</time>
      </trkpt>
      <trkpt lat="49.31864" lon="1.14652">
        <ele>10.23</ele>
        <time>2013-05-05T08:48:41Z</time>
      </trkpt>
      <trkpt lat="49.31865" lon="1.14658">
        <ele>10.71</ele>
        <time>2013-05-05T08:48:42Z</time>
      </trkpt>
      <trkpt lat="49.31867" lon="1.1468">
        <ele>10.71</ele>
        <time>2013-05-05T08:48:47Z</time>
      </trkpt>
      <trkpt lat="49.31864" lon="1.14696">
        <ele>10.71</ele>
        <time>2013-05-05T08:48:51Z</time>
      </trkpt>
      <trkpt lat="49.31863" lon="1.14703">
        <ele>10.23</ele>
        <time>2013-05-05T08:48:52Z</time>
      </trkpt>
      <trkpt lat="49.31852" lon="1.1481">
        <ele>10.23</ele>
        <time>2013-05-05T08:49:05Z</time>
      </trkpt>
      <trkpt lat="49.31853" lon="1.14861">
        <ele>9.75</ele>
        <time>2013-05-05T08:49:11Z</time>
      </trkpt>
      <trkpt lat="49.31853" lon="1.14876">
        <ele>9.75</ele>
        <time>2013-05-05T08:49:13Z</time>
      </trkpt>
      <trkpt lat="49.31853" lon="1.14889">
        <ele>9.27</ele>
        <time>2013-05-05T08:49:15Z</time>
      </trkpt>
      <trkpt lat="49.31856" lon="1.14893">
        <ele>9.27</ele>
        <time>2013-05-05T08:49:16Z</time>
      </trkpt>
      <trkpt lat="49.3186" lon="1.14894">
        <ele>9.27</ele>
        <time>2013-05-05T08:49:17Z</time>
      </trkpt>
      <trkpt lat="49.31895" lon="1.14885">
        <ele>9.75</ele>
        <time>2013-05-05T08:49:24Z</time>
      </trkpt>
      <trkpt lat="49.319" lon="1.14886">
        <ele>9.75</ele>
        <time>2013-05-05T08:49:25Z</time>
      </trkpt>
      <trkpt lat="49.31909" lon="1.14885">
        <ele>10.23</ele>
        <time>2013-05-05T08:49:28Z</time>
      </trkpt>
      <trkpt lat="49.31911" lon="1.1488">
        <ele>10.23</ele>
        <time>2013-05-05T08:49:29Z</time>
      </trkpt>
      <trkpt lat="49.31912" lon="1.14867">
        <ele>10.23</ele>
        <time>2013-05-05T08:49:31Z</time>
      </trkpt>
      <trkpt lat="49.31912" lon="1.14859">
        <ele>10.71</ele>
        <time>2013-05-05T08:49:32Z</time>
      </trkpt>
      <trkpt lat="49.31916" lon="1.14806">
        <ele>10.71</ele>
        <time>2013-05-05T08:49:39Z</time>
      </trkpt>
      <trkpt lat="49.31919" lon="1.148">
        <ele>10.71</ele>
        <time>2013-05-05T08:49:40Z</time>
      </trkpt>
      <trkpt lat="49.31922" lon="1.14796">
        <ele>10.71</ele>
        <time>2013-05-05T08:49:41Z</time>
      </trkpt>
      <trkpt lat="49.31926" lon="1.14795">
        <ele>10.71</ele>
        <time>2013-05-05T08:49:42Z</time>
      </trkpt>
      <trkpt lat="49.31931" lon="1.14797">
        <ele>10.71</ele>
        <time>2013-05-05T08:49:43Z</time>
      </trkpt>
      <trkpt lat="49.31936" lon="1.14799">
        <ele>10.71</ele>
        <time>2013-05-05T08:49:44Z</time>
      </trkpt>
      <trkpt lat="49.31972" lon="1.1481">
        <ele>10.71</ele>
        <time>2013-05-05T08:49:51Z</time>
      </trkpt>
      <trkpt lat="49.31997" lon="1.14814">
        <ele>11.19</ele>
        <time>2013-05-05T08:49:56Z</time>
      </trkpt>
      <trkpt lat="49.32002" lon="1.14815">
        <ele>11.67</ele>
        <time>2013-05-05T08:49:57Z</time>
      </trkpt>
      <trkpt lat="49.32025" lon="1.1482">
        <ele>12.15</ele>
        <time>2013-05-05T08:50:02Z</time>
      </trkpt>
      <trkpt lat="49.32047" lon="1.14817">
        <ele>12.63</ele>
        <time>2013-05-05T08:50:07Z</time>
      </trkpt>
      <trkpt lat="49.32051" lon="1.14816">
        <ele>12.63</ele>
        <time>2013-05-05T08:50:08Z</time>
      </trkpt>
      <trkpt lat="49.32088" lon="1.14809">
        <ele>15.04</ele>
        <time>2013-05-05T08:50:18Z</time>
      </trkpt>
      <trkpt lat="49.32117" lon="1.1479">
        <ele>17.92</ele>
        <time>2013-05-05T08:50:30Z</time>
      </trkpt>
      <trkpt lat="49.32124" lon="1.14786">
        <ele>17.92</ele>
        <time>2013-05-05T08:50:46Z</time>
      </trkpt>
      <trkpt lat="49.32129" lon="1.14775">
        <ele>17.44</ele>
        <time>2013-05-05T08:50:48Z</time>
      </trkpt>
      <trkpt lat="49.32131" lon="1.14769">
        <ele>17.44</ele>
        <time>2013-05-05T08:50:49Z</time>
      </trkpt>
      <trkpt lat="49.32133" lon="1.14762">
        <ele>17.44</ele>
        <time>2013-05-05T08:50:50Z</time>
      </trkpt>
      <trkpt lat="49.32135" lon="1.14755">
        <ele>17.44</ele>
        <time>2013-05-05T08:50:51Z</time>
      </trkpt>
      <trkpt lat="49.32137" lon="1.14748">
        <ele>17.44</ele>
        <time>2013-05-05T08:50:52Z</time>
      </trkpt>
      <trkpt lat="49.32144" lon="1.14729">
        <ele>16.96</ele>
        <time>2013-05-05T08:50:55Z</time>
      </trkpt>
      <trkpt lat="49.32146" lon="1.14726">
        <ele>16.96</ele>
        <time>2013-05-05T08:50:56Z</time>
      </trkpt>
      <trkpt lat="49.3215" lon="1.14726">
        <ele>16.96</ele>
        <time>2013-05-05T08:50:57Z</time>
      </trkpt>
      <trkpt lat="49.32153" lon="1.14726">
        <ele>16.96</ele>
        <time>2013-05-05T08:50:58Z</time>
      </trkpt>
      <trkpt lat="49.32157" lon="1.14727">
        <ele>16.96</ele>
        <time>2013-05-05T08:50:59Z</time>
      </trkpt>
      <trkpt lat="49.32161" lon="1.14729">
        <ele>16.48</ele>
        <time>2013-05-05T08:51:00Z</time>
      </trkpt>
      <trkpt lat="49.32178" lon="1.14735">
        <ele>16.48</ele>
        <time>2013-05-05T08:51:04Z</time>
      </trkpt>
      <trkpt lat="49.32191" lon="1.14732">
        <ele>16.48</ele>
        <time>2013-05-05T08:51:07Z</time>
      </trkpt>
      <trkpt lat="49.32196" lon="1.14731">
        <ele>16.48</ele>
        <time>2013-05-05T08:51:08Z</time>
      </trkpt>
      <trkpt lat="49.32218" lon="1.14725">
        <ele>16.96</ele>
        <time>2013-05-05T08:51:13Z</time>
      </trkpt>
      <trkpt lat="49.32228" lon="1.14726">
        <ele>17.44</ele>
        <time>2013-05-05T08:51:15Z</time>
      </trkpt>
      <trkpt lat="49.32232" lon="1.14729">
        <ele>17.44</ele>
        <time>2013-05-05T08:51:16Z</time>
      </trkpt>
      <trkpt lat="49.32236" lon="1.14733">
        <ele>17.44</ele>
        <time>2013-05-05T08:51:17Z</time>
      </trkpt>
      <trkpt lat="49.32243" lon="1.14744">
        <ele>17.44</ele>
        <time>2013-05-05T08:51:19Z</time>
      </trkpt>
      <trkpt lat="49.32244" lon="1.1475">
        <ele>17.92</ele>
        <time>2013-05-05T08:51:20Z</time>
      </trkpt>
      <trkpt lat="49.32248" lon="1.14771">
        <ele>17.92</ele>
        <time>2013-05-05T08:51:23Z</time>
      </trkpt>
      <trkpt lat="49.3225" lon="1.14777">
        <ele>17.92</ele>
        <time>2013-05-05T08:51:24Z</time>
      </trkpt>
      <trkpt lat="49.32253" lon="1.14781">
        <ele>18.4</ele>
        <time>2013-05-05T08:51:25Z</time>
      </trkpt>
      <trkpt lat="49.32256" lon="1.14784">
        <ele>17.92</ele>
        <time>2013-05-05T08:51:26Z</time>
      </trkpt>
      <trkpt lat="49.32259" lon="1.14786">
        <ele>18.4</ele>
        <time>2013-05-05T08:51:27Z</time>
      </trkpt>
      <trkpt lat="49.32262" lon="1.14791">
        <ele>18.4</ele>
        <time>2013-05-05T08:51:28Z</time>
      </trkpt>
      <trkpt lat="49.32264" lon="1.14796">
        <ele>18.4</ele>
        <time>2013-05-05T08:51:29Z</time>
      </trkpt>
      <trkpt lat="49.32264" lon="1.14803">
        <ele>18.4</ele>
        <time>2013-05-05T08:51:30Z</time>
      </trkpt>
      <trkpt lat="49.32274" lon="1.14881">
        <ele>19.84</ele>
        <time>2013-05-05T08:51:43Z</time>
      </trkpt>
      <trkpt lat="49.32275" lon="1.14886">
        <ele>19.84</ele>
        <time>2013-05-05T08:51:44Z</time>
      </trkpt>
      <trkpt lat="49.32277" lon="1.14889">
        <ele>19.84</ele>
        <time>2013-05-05T08:51:45Z</time>
      </trkpt>
      <trkpt lat="49.32282" lon="1.149">
        <ele>20.32</ele>
        <time>2013-05-05T08:51:48Z</time>
      </trkpt>
      <trkpt lat="49.32281" lon="1.14903">
        <ele>20.32</ele>
        <time>2013-05-05T08:51:49Z</time>
      </trkpt>
      <trkpt lat="49.32279" lon="1.14905">
        <ele>20.32</ele>
        <time>2013-05-05T08:51:50Z</time>
      </trkpt>
      <trkpt lat="49.32277" lon="1.14908">
        <ele>20.81</ele>
        <time>2013-05-05T08:51:51Z</time>
      </trkpt>
      <trkpt lat="49.32276" lon="1.1491">
        <ele>21.29</ele>
        <time>2013-05-05T08:51:52Z</time>
      </trkpt>
      <trkpt lat="49.32274" lon="1.14919">
        <ele>22.73</ele>
        <time>2013-05-05T08:51:58Z</time>
      </trkpt>
      <trkpt lat="49.32272" lon="1.1494">
        <ele>25.61</ele>
        <time>2013-05-05T08:52:10Z</time>
      </trkpt>
      <trkpt lat="49.3227" lon="1.14952">
        <ele>28.02</ele>
        <time>2013-05-05T08:52:21Z</time>
      </trkpt>
      <trkpt lat="49.32259" lon="1.14937">
        <ele>31.38</ele>
        <time>2013-05-05T08:52:36Z</time>
      </trkpt>
      <trkpt lat="49.32251" lon="1.14931">
        <ele>33.3</ele>
        <time>2013-05-05T08:52:51Z</time>
      </trkpt>
      <trkpt lat="49.32233" lon="1.14932">
        <ele>35.23</ele>
        <time>2013-05-05T08:53:04Z</time>
      </trkpt>
      <trkpt lat="49.32217" lon="1.14941">
        <ele>38.11</ele>
        <time>2013-05-05T08:53:18Z</time>
      </trkpt>
      <trkpt lat="49.3221" lon="1.1496">
        <ele>41.47</ele>
        <time>2013-05-05T08:53:31Z</time>
      </trkpt>
      <trkpt lat="49.3221" lon="1.14981">
        <ele>43.88</ele>
        <time>2013-05-05T08:53:45Z</time>
      </trkpt>
      <trkpt lat="49.32214" lon="1.15005">
        <ele>44.84</ele>
        <time>2013-05-05T08:53:57Z</time>
      </trkpt>
      <trkpt lat="49.32228" lon="1.15031">
        <ele>47.24</ele>
        <time>2013-05-05T08:54:14Z</time>
      </trkpt>
      <trkpt lat="49.32236" lon="1.15057">
        <ele>48.68</ele>
        <time>2013-05-05T08:54:28Z</time>
      </trkpt>
      <trkpt lat="49.32238" lon="1.15069">
        <ele>49.16</ele>
        <time>2013-05-05T08:54:34Z</time>
      </trkpt>
      <trkpt lat="49.3224" lon="1.15082">
        <ele>51.09</ele>
        <time>2013-05-05T08:54:47Z</time>
      </trkpt>
      <trkpt lat="49.32257" lon="1.15119">
        <ele>53.01</ele>
        <time>2013-05-05T08:55:01Z</time>
      </trkpt>
      <trkpt lat="49.32275" lon="1.15165">
        <ele>55.41</ele>
        <time>2013-05-05T08:55:16Z</time>
      </trkpt>
      <trkpt lat="49.32297" lon="1.15223">
        <ele>56.86</ele>
        <time>2013-05-05T08:55:30Z</time>
      </trkpt>
      <trkpt lat="49.32321" lon="1.15289">
        <ele>59.26</ele>
        <time>2013-05-05T08:55:45Z</time>
      </trkpt>
      <trkpt lat="49.32348" lon="1.15362">
        <ele>61.66</ele>
        <time>2013-05-05T08:56:01Z</time>
      </trkpt>
      <trkpt lat="49.32369" lon="1.15413">
        <ele>63.1</ele>
        <time>2013-05-05T08:56:12Z</time>
      </trkpt>
      <trkpt lat="49.32409" lon="1.15505">
        <ele>64.07</ele>
        <time>2013-05-05T08:56:28Z</time>
      </trkpt>
      <trkpt lat="49.32461" lon="1.15572">
        <ele>64.55</ele>
        <time>2013-05-05T08:56:41Z</time>
      </trkpt>
      <trkpt lat="49.32466" lon="1.15576">
        <ele>64.55</ele>
        <time>2013-05-05T08:56:42Z</time>
      </trkpt>
      <trkpt lat="49.32496" lon="1.15599">
        <ele>64.55</ele>
        <time>2013-05-05T08:56:48Z</time>
      </trkpt>
      <trkpt lat="49.325" lon="1.15604">
        <ele>64.55</ele>
        <time>2013-05-05T08:56:49Z</time>
      </trkpt>
      <trkpt lat="49.32505" lon="1.15609">
        <ele>64.55</ele>
        <time>2013-05-05T08:56:50Z</time>
      </trkpt>
      <trkpt lat="49.32552" lon="1.15669">
        <ele>63.58</ele>
        <time>2013-05-05T08:57:00Z</time>
      </trkpt>
      <trkpt lat="49.3259" lon="1.15785">
        <ele>65.03</ele>
        <time>2013-05-05T08:57:14Z</time>
      </trkpt>
      <trkpt lat="49.32592" lon="1.15798">
        <ele>65.51</ele>
        <time>2013-05-05T08:57:16Z</time>
      </trkpt>
      <trkpt lat="49.32596" lon="1.15871">
        <ele>68.39</ele>
        <time>2013-05-05T08:57:29Z</time>
      </trkpt>
      <trkpt lat="49.32588" lon="1.15954">
        <ele>71.76</ele>
        <time>2013-05-05T08:57:45Z</time>
      </trkpt>
      <trkpt lat="49.32584" lon="1.16052">
        <ele>74.64</ele>
        <time>2013-05-05T08:58:03Z</time>
      </trkpt>
      <trkpt lat="49.32599" lon="1.1611">
        <ele>76.56</ele>
        <time>2013-05-05T08:58:16Z</time>
      </trkpt>
      <trkpt lat="49.32598" lon="1.16113">
        <ele>76.56</ele>
        <time>2013-05-05T08:58:17Z</time>
      </trkpt>
      <trkpt lat="49.32595" lon="1.16114">
        <ele>76.56</ele>
        <time>2013-05-05T08:58:18Z</time>
      </trkpt>
      <trkpt lat="49.32592" lon="1.16114">
        <ele>76.56</ele>
        <time>2013-05-05T08:58:19Z</time>
      </trkpt>
      <trkpt lat="49.32588" lon="1.16113">
        <ele>76.56</ele>
        <time>2013-05-05T08:58:20Z</time>
      </trkpt>
      <trkpt lat="49.32585" lon="1.16111">
        <ele>76.08</ele>
        <time>2013-05-05T08:58:21Z</time>
      </trkpt>
      <trkpt lat="49.32581" lon="1.16108">
        <ele>76.56</ele>
        <time>2013-05-05T08:58:22Z</time>
      </trkpt>
      <trkpt lat="49.3252" lon="1.16077">
        <ele>76.08</ele>
        <time>2013-05-05T08:58:36Z</time>
      </trkpt>
      <trkpt lat="49.32511" lon="1.16073">
        <ele>76.56</ele>
        <time>2013-05-05T08:58:38Z</time>
      </trkpt>
      <trkpt lat="49.32494" lon="1.16066">
        <ele>77.04</ele>
        <time>2013-05-05T08:58:42Z</time>
      </trkpt>
      <trkpt lat="49.32485" lon="1.16065">
        <ele>77.04</ele>
        <time>2013-05-05T08:58:44Z</time>
      </trkpt>
      <trkpt lat="49.32448" lon="1.16054">
        <ele>78</ele>
        <time>2013-05-05T08:58:53Z</time>
      </trkpt>
      <trkpt lat="49.3239" lon="1.1603">
        <ele>80.41</ele>
        <time>2013-05-05T08:59:08Z</time>
      </trkpt>
      <trkpt lat="49.32329" lon="1.15985">
        <ele>81.37</ele>
        <time>2013-05-05T08:59:24Z</time>
      </trkpt>
      <trkpt lat="49.32261" lon="1.15971">
        <ele>81.37</ele>
        <time>2013-05-05T08:59:39Z</time>
      </trkpt>
      <trkpt lat="49.32244" lon="1.15971">
        <ele>81.37</ele>
        <time>2013-05-05T08:59:43Z</time>
      </trkpt>
      <trkpt lat="49.32236" lon="1.15972">
        <ele>80.89</ele>
        <time>2013-05-05T08:59:45Z</time>
      </trkpt>
      <trkpt lat="49.32202" lon="1.15966">
        <ele>76.56</ele>
        <time>2013-05-05T08:59:52Z</time>
      </trkpt>
      <trkpt lat="49.32198" lon="1.15964">
        <ele>76.56</ele>
        <time>2013-05-05T08:59:53Z</time>
      </trkpt>
      <trkpt lat="49.32181" lon="1.15958">
        <ele>73.2</ele>
        <time>2013-05-05T08:59:58Z</time>
      </trkpt>
      <trkpt lat="49.32175" lon="1.15957">
        <ele>71.27</ele>
        <time>2013-05-05T09:00:08Z</time>
      </trkpt>
      <trkpt lat="49.32175" lon="1.15957">
        <ele>71.27</ele>
        <time>2013-05-05T09:00:27Z</time>
      </trkpt>
      <trkpt lat="49.32164" lon="1.15952">
        <ele>67.91</ele>
        <time>2013-05-05T09:00:33Z</time>
      </trkpt>
      <trkpt lat="49.32162" lon="1.15951">
        <ele>66.95</ele>
        <time>2013-05-05T09:00:34Z</time>
      </trkpt>
      <trkpt lat="49.32152" lon="1.15947">
        <ele>63.1</ele>
        <time>2013-05-05T09:00:39Z</time>
      </trkpt>
      <trkpt lat="49.32143" lon="1.15944">
        <ele>59.74</ele>
        <time>2013-05-05T09:00:44Z</time>
      </trkpt>
      <trkpt lat="49.32136" lon="1.15941">
        <ele>56.37</ele>
        <time>2013-05-05T09:00:49Z</time>
      </trkpt>
      <trkpt lat="49.32133" lon="1.1594">
        <ele>55.41</ele>
        <time>2013-05-05T09:00:51Z</time>
      </trkpt>
      <trkpt lat="49.32123" lon="1.15941">
        <ele>51.57</ele>
        <time>2013-05-05T09:00:56Z</time>
      </trkpt>
      <trkpt lat="49.32121" lon="1.15941">
        <ele>50.61</ele>
        <time>2013-05-05T09:00:57Z</time>
      </trkpt>
      <trkpt lat="49.3211" lon="1.15942">
        <ele>46.28</ele>
        <time>2013-05-05T09:01:02Z</time>
      </trkpt>
      <trkpt lat="49.32099" lon="1.15943">
        <ele>41.47</ele>
        <time>2013-05-05T09:01:07Z</time>
      </trkpt>
      <trkpt lat="49.32084" lon="1.15941">
        <ele>36.19</ele>
        <time>2013-05-05T09:01:11Z</time>
      </trkpt>
      <trkpt lat="49.32074" lon="1.15942">
        <ele>32.82</ele>
        <time>2013-05-05T09:01:14Z</time>
      </trkpt>
      <trkpt lat="49.32068" lon="1.15943">
        <ele>29.94</ele>
        <time>2013-05-05T09:01:18Z</time>
      </trkpt>
      <trkpt lat="49.32067" lon="1.15943">
        <ele>29.94</ele>
        <time>2013-05-05T09:01:20Z</time>
      </trkpt>
      <trkpt lat="49.32064" lon="1.15943">
        <ele>29.46</ele>
        <time>2013-05-05T09:01:22Z</time>
      </trkpt>
      <trkpt lat="49.32061" lon="1.1594">
        <ele>28.5</ele>
        <time>2013-05-05T09:01:26Z</time>
      </trkpt>
      <trkpt lat="49.3206" lon="1.1594">
        <ele>28.5</ele>
        <time>2013-05-05T09:01:27Z</time>
      </trkpt>
      <trkpt lat="49.32057" lon="1.1594">
        <ele>27.53</ele>
        <time>2013-05-05T09:01:30Z</time>
      </trkpt>
      <trkpt lat="49.32054" lon="1.15941">
        <ele>27.53</ele>
        <time>2013-05-05T09:01:31Z</time>
      </trkpt>
      <trkpt lat="49.3205" lon="1.15941">
        <ele>27.05</ele>
        <time>2013-05-05T09:01:32Z</time>
      </trkpt>
      <trkpt lat="49.32044" lon="1.1594">
        <ele>26.09</ele>
        <time>2013-05-05T09:01:33Z</time>
      </trkpt>
      <trkpt lat="49.32037" lon="1.15939">
        <ele>23.69</ele>
        <time>2013-05-05T09:01:34Z</time>
      </trkpt>
      <trkpt lat="49.32028" lon="1.15937">
        <ele>22.25</ele>
        <time>2013-05-05T09:01:35Z</time>
      </trkpt>
      <trkpt lat="49.32019" lon="1.15936">
        <ele>20.81</ele>
        <time>2013-05-05T09:01:36Z</time>
      </trkpt>
      <trkpt lat="49.31998" lon="1.15933">
        <ele>17.44</ele>
        <time>2013-05-05T09:01:38Z</time>
      </trkpt>
      <trkpt lat="49.31963" lon="1.15927">
        <ele>13.12</ele>
        <time>2013-05-05T09:01:41Z</time>
      </trkpt>
      <trkpt lat="49.31926" lon="1.1592">
        <ele>10.23</ele>
        <time>2013-05-05T09:01:45Z</time>
      </trkpt>
      <trkpt lat="49.31904" lon="1.1592">
        <ele>8.79</ele>
        <time>2013-05-05T09:01:49Z</time>
      </trkpt>
      <trkpt lat="49.31901" lon="1.15924">
        <ele>8.31</ele>
        <time>2013-05-05T09:01:50Z</time>
      </trkpt>
      <trkpt lat="49.319" lon="1.15931">
        <ele>8.31</ele>
        <time>2013-05-05T09:01:51Z</time>
      </trkpt>
      <trkpt lat="49.31899" lon="1.15938">
        <ele>8.79</ele>
        <time>2013-05-05T09:01:52Z</time>
      </trkpt>
      <trkpt lat="49.31899" lon="1.15946">
        <ele>8.79</ele>
        <time>2013-05-05T09:01:53Z</time>
      </trkpt>
      <trkpt lat="49.319" lon="1.15954">
        <ele>8.79</ele>
        <time>2013-05-05T09:01:54Z</time>
      </trkpt>
      <trkpt lat="49.31903" lon="1.16078">
        <ele>9.27</ele>
        <time>2013-05-05T09:02:08Z</time>
      </trkpt>
      <trkpt lat="49.31904" lon="1.16095">
        <ele>9.27</ele>
        <time>2013-05-05T09:02:10Z</time>
      </trkpt>
      <trkpt lat="49.31907" lon="1.16157">
        <ele>9.27</ele>
        <time>2013-05-05T09:02:17Z</time>
      </trkpt>
      <trkpt lat="49.31909" lon="1.16164">
        <ele>9.27</ele>
        <time>2013-05-05T09:02:18Z</time>
      </trkpt>
      <trkpt lat="49.31913" lon="1.1617">
        <ele>9.27</ele>
        <time>2013-05-05T09:02:19Z</time>
      </trkpt>
      <trkpt lat="49.31924" lon="1.16187">
        <ele>10.23</ele>
        <time>2013-05-05T09:02:22Z</time>
      </trkpt>
      <trkpt lat="49.31946" lon="1.1624">
        <ele>11.67</ele>
        <time>2013-05-05T09:02:30Z</time>
      </trkpt>
      <trkpt lat="49.31947" lon="1.16248">
        <ele>11.67</ele>
        <time>2013-05-05T09:02:31Z</time>
      </trkpt>
      <trkpt lat="49.31948" lon="1.16256">
        <ele>12.15</ele>
        <time>2013-05-05T09:02:32Z</time>
      </trkpt>
      <trkpt lat="49.31949" lon="1.16271">
        <ele>12.15</ele>
        <time>2013-05-05T09:02:34Z</time>
      </trkpt>
      <trkpt lat="49.31952" lon="1.16345">
        <ele>12.63</ele>
        <time>2013-05-05T09:02:43Z</time>
      </trkpt>
      <trkpt lat="49.31952" lon="1.16354">
        <ele>12.63</ele>
        <time>2013-05-05T09:02:44Z</time>
      </trkpt>
      <trkpt lat="49.31963" lon="1.16494">
        <ele>13.12</ele>
        <time>2013-05-05T09:03:01Z</time>
      </trkpt>
      <trkpt lat="49.31966" lon="1.16519">
        <ele>13.6</ele>
        <time>2013-05-05T09:03:04Z</time>
      </trkpt>
      <trkpt lat="49.31968" lon="1.16527">
        <ele>13.12</ele>
        <time>2013-05-05T09:03:05Z</time>
      </trkpt>
      <trkpt lat="49.31969" lon="1.16536">
        <ele>13.12</ele>
        <time>2013-05-05T09:03:06Z</time>
      </trkpt>
      <trkpt lat="49.31978" lon="1.16678">
        <ele>12.15</ele>
        <time>2013-05-05T09:03:21Z</time>
      </trkpt>
      <trkpt lat="49.31984" lon="1.16733">
        <ele>12.63</ele>
        <time>2013-05-05T09:03:27Z</time>
      </trkpt>
      <trkpt lat="49.31987" lon="1.16776">
        <ele>12.63</ele>
        <time>2013-05-05T09:03:32Z</time>
      </trkpt>
      <trkpt lat="49.32007" lon="1.16912">
        <ele>13.6</ele>
        <time>2013-05-05T09:03:48Z</time>
      </trkpt>
      <trkpt lat="49.32011" lon="1.16928">
        <ele>14.08</ele>
        <time>2013-05-05T09:03:50Z</time>
      </trkpt>
      <trkpt lat="49.32015" lon="1.16958">
        <ele>13.6</ele>
        <time>2013-05-05T09:03:54Z</time>
      </trkpt>
      <trkpt lat="49.32017" lon="1.16972">
        <ele>13.12</ele>
        <time>2013-05-05T09:03:57Z</time>
      </trkpt>
      <trkpt lat="49.32019" lon="1.16975">
        <ele>13.12</ele>
        <time>2013-05-05T09:03:58Z</time>
      </trkpt>
      <trkpt lat="49.32021" lon="1.16977">
        <ele>13.12</ele>
        <time>2013-05-05T09:03:59Z</time>
      </trkpt>
      <trkpt lat="49.32025" lon="1.16978">
        <ele>13.12</ele>
        <time>2013-05-05T09:04:00Z</time>
      </trkpt>
      <trkpt lat="49.32029" lon="1.16977">
        <ele>13.6</ele>
        <time>2013-05-05T09:04:01Z</time>
      </trkpt>
      <trkpt lat="49.32033" lon="1.16976">
        <ele>13.6</ele>
        <time>2013-05-05T09:04:02Z</time>
      </trkpt>
      <trkpt lat="49.32036" lon="1.16975">
        <ele>14.08</ele>
        <time>2013-05-05T09:04:03Z</time>
      </trkpt>
      <trkpt lat="49.32073" lon="1.16967">
        <ele>17.44</ele>
        <time>2013-05-05T09:04:14Z</time>
      </trkpt>
      <trkpt lat="49.32085" lon="1.16972">
        <ele>18.88</ele>
        <time>2013-05-05T09:04:19Z</time>
      </trkpt>
      <trkpt lat="49.32086" lon="1.16975">
        <ele>19.36</ele>
        <time>2013-05-05T09:04:20Z</time>
      </trkpt>
      <trkpt lat="49.321" lon="1.17048">
        <ele>20.81</ele>
        <time>2013-05-05T09:04:35Z</time>
      </trkpt>
      <trkpt lat="49.32115" lon="1.17124">
        <ele>21.77</ele>
        <time>2013-05-05T09:04:49Z</time>
      </trkpt>
      <trkpt lat="49.32127" lon="1.17198">
        <ele>23.21</ele>
        <time>2013-05-05T09:05:02Z</time>
      </trkpt>
      <trkpt lat="49.32135" lon="1.17238">
        <ele>23.69</ele>
        <time>2013-05-05T09:05:09Z</time>
      </trkpt>
      <trkpt lat="49.32141" lon="1.1726">
        <ele>23.69</ele>
        <time>2013-05-05T09:05:13Z</time>
      </trkpt>
      <trkpt lat="49.32158" lon="1.17331">
        <ele>25.61</ele>
        <time>2013-05-05T09:05:26Z</time>
      </trkpt>
      <trkpt lat="49.32159" lon="1.17335">
        <ele>25.61</ele>
        <time>2013-05-05T09:05:33Z</time>
      </trkpt>
      <trkpt lat="49.3216" lon="1.17338">
        <ele>25.61</ele>
        <time>2013-05-05T09:05:36Z</time>
      </trkpt>
      <trkpt lat="49.32163" lon="1.17362">
        <ele>25.13</ele>
        <time>2013-05-05T09:05:42Z</time>
      </trkpt>
      <trkpt lat="49.32166" lon="1.17375">
        <ele>25.61</ele>
        <time>2013-05-05T09:05:44Z</time>
      </trkpt>
      <trkpt lat="49.32169" lon="1.17394">
        <ele>25.13</ele>
        <time>2013-05-05T09:05:47Z</time>
      </trkpt>
      <trkpt lat="49.32173" lon="1.17418">
        <ele>25.13</ele>
        <time>2013-05-05T09:05:51Z</time>
      </trkpt>
      <trkpt lat="49.32177" lon="1.17441">
        <ele>24.65</ele>
        <time>2013-05-05T09:06:00Z</time>
      </trkpt>
      <trkpt lat="49.32177" lon="1.17443">
        <ele>25.13</ele>
        <time>2013-05-05T09:06:02Z</time>
      </trkpt>
      <trkpt lat="49.32184" lon="1.1749">
        <ele>24.65</ele>
        <time>2013-05-05T09:06:13Z</time>
      </trkpt>
      <trkpt lat="49.32187" lon="1.1751">
        <ele>23.69</ele>
        <time>2013-05-05T09:06:18Z</time>
      </trkpt>
      <trkpt lat="49.32192" lon="1.17513">
        <ele>23.69</ele>
        <time>2013-05-05T09:06:20Z</time>
      </trkpt>
      <trkpt lat="49.32195" lon="1.17513">
        <ele>24.17</ele>
        <time>2013-05-05T09:06:21Z</time>
      </trkpt>
      <trkpt lat="49.32224" lon="1.17508">
        <ele>27.53</ele>
        <time>2013-05-05T09:06:33Z</time>
      </trkpt>
      <trkpt lat="49.32252" lon="1.17504">
        <ele>30.42</ele>
        <time>2013-05-05T09:06:46Z</time>
      </trkpt>
      <trkpt lat="49.32272" lon="1.17503">
        <ele>33.78</ele>
        <time>2013-05-05T09:06:58Z</time>
      </trkpt>
      <trkpt lat="49.32291" lon="1.17501">
        <ele>36.67</ele>
        <time>2013-05-05T09:07:10Z</time>
      </trkpt>
      <trkpt lat="49.32308" lon="1.17502">
        <ele>40.03</ele>
        <time>2013-05-05T09:07:22Z</time>
      </trkpt>
      <trkpt lat="49.32307" lon="1.17504">
        <ele>40.51</ele>
        <time>2013-05-05T09:07:38Z</time>
      </trkpt>
      <trkpt lat="49.32322" lon="1.17502">
        <ele>42.92</ele>
        <time>2013-05-05T09:07:50Z</time>
      </trkpt>
      <trkpt lat="49.32324" lon="1.17503">
        <ele>42.92</ele>
        <time>2013-05-05T09:07:51Z</time>
      </trkpt>
      <trkpt lat="49.32325" lon="1.17503">
        <ele>43.4</ele>
        <time>2013-05-05T09:07:52Z</time>
      </trkpt>
      <trkpt lat="49.32327" lon="1.17502">
        <ele>43.88</ele>
        <time>2013-05-05T09:07:53Z</time>
      </trkpt>
      <trkpt lat="49.32328" lon="1.17501">
        <ele>43.88</ele>
        <time>2013-05-05T09:07:54Z</time>
      </trkpt>
      <trkpt lat="49.3233" lon="1.175">
        <ele>44.36</ele>
        <time>2013-05-05T09:07:55Z</time>
      </trkpt>
      <trkpt lat="49.32334" lon="1.17498">
        <ele>45.32</ele>
        <time>2013-05-05T09:07:58Z</time>
      </trkpt>
      <trkpt lat="49.32336" lon="1.17499">
        <ele>45.8</ele>
        <time>2013-05-05T09:07:59Z</time>
      </trkpt>
      <trkpt lat="49.32337" lon="1.175">
        <ele>46.28</ele>
        <time>2013-05-05T09:08:00Z</time>
      </trkpt>
      <trkpt lat="49.32339" lon="1.175">
        <ele>46.28</ele>
        <time>2013-05-05T09:08:01Z</time>
      </trkpt>
      <trkpt lat="49.3234" lon="1.175">
        <ele>46.76</ele>
        <time>2013-05-05T09:08:02Z</time>
      </trkpt>
      <trkpt lat="49.32341" lon="1.17499">
        <ele>46.76</ele>
        <time>2013-05-05T09:08:03Z</time>
      </trkpt>
      <trkpt lat="49.32343" lon="1.17499">
        <ele>47.24</ele>
        <time>2013-05-05T09:08:04Z</time>
      </trkpt>
      <trkpt lat="49.32344" lon="1.17499">
        <ele>47.24</ele>
        <time>2013-05-05T09:08:05Z</time>
      </trkpt>
      <trkpt lat="49.32351" lon="1.17498">
        <ele>49.16</ele>
        <time>2013-05-05T09:08:19Z</time>
      </trkpt>
      <trkpt lat="49.3235" lon="1.175">
        <ele>49.16</ele>
        <time>2013-05-05T09:08:34Z</time>
      </trkpt>
      <trkpt lat="49.32352" lon="1.175">
        <ele>49.65</ele>
        <time>2013-05-05T09:08:35Z</time>
      </trkpt>
      <trkpt lat="49.3236" lon="1.17502">
        <ele>51.57</ele>
        <time>2013-05-05T09:08:42Z</time>
      </trkpt>
      <trkpt lat="49.32362" lon="1.17502">
        <ele>51.57</ele>
        <time>2013-05-05T09:08:43Z</time>
      </trkpt>
      <trkpt lat="49.32363" lon="1.17502">
        <ele>52.05</ele>
        <time>2013-05-05T09:08:44Z</time>
      </trkpt>
      <trkpt lat="49.32364" lon="1.17503">
        <ele>52.53</ele>
        <time>2013-05-05T09:08:45Z</time>
      </trkpt>
      <trkpt lat="49.32365" lon="1.17505">
        <ele>52.53</ele>
        <time>2013-05-05T09:08:46Z</time>
      </trkpt>
      <trkpt lat="49.32366" lon="1.17506">
        <ele>53.01</ele>
        <time>2013-05-05T09:08:47Z</time>
      </trkpt>
      <trkpt lat="49.32368" lon="1.17506">
        <ele>53.01</ele>
        <time>2013-05-05T09:08:48Z</time>
      </trkpt>
      <trkpt lat="49.32369" lon="1.17505">
        <ele>53.49</ele>
        <time>2013-05-05T09:08:49Z</time>
      </trkpt>
      <trkpt lat="49.3237" lon="1.17506">
        <ele>53.97</ele>
        <time>2013-05-05T09:08:50Z</time>
      </trkpt>
      <trkpt lat="49.32372" lon="1.17506">
        <ele>53.97</ele>
        <time>2013-05-05T09:08:51Z</time>
      </trkpt>
      <trkpt lat="49.32373" lon="1.17506">
        <ele>54.45</ele>
        <time>2013-05-05T09:08:52Z</time>
      </trkpt>
      <trkpt lat="49.32374" lon="1.17507">
        <ele>54.45</ele>
        <time>2013-05-05T09:08:53Z</time>
      </trkpt>
      <trkpt lat="49.32375" lon="1.17508">
        <ele>54.93</ele>
        <time>2013-05-05T09:08:54Z</time>
      </trkpt>
      <trkpt lat="49.32377" lon="1.17509">
        <ele>54.93</ele>
        <time>2013-05-05T09:08:55Z</time>
      </trkpt>
      <trkpt lat="49.32378" lon="1.17509">
        <ele>55.41</ele>
        <time>2013-05-05T09:08:56Z</time>
      </trkpt>
      <trkpt lat="49.32384" lon="1.17511">
        <ele>56.86</ele>
        <time>2013-05-05T09:09:05Z</time>
      </trkpt>
      <trkpt lat="49.32389" lon="1.17527">
        <ele>57.34</ele>
        <time>2013-05-05T09:09:18Z</time>
      </trkpt>
      <trkpt lat="49.32404" lon="1.17555">
        <ele>60.22</ele>
        <time>2013-05-05T09:09:33Z</time>
      </trkpt>
      <trkpt lat="49.32415" lon="1.17578">
        <ele>63.1</ele>
        <time>2013-05-05T09:09:46Z</time>
      </trkpt>
      <trkpt lat="49.32429" lon="1.17602">
        <ele>65.99</ele>
        <time>2013-05-05T09:09:59Z</time>
      </trkpt>
      <trkpt lat="49.32438" lon="1.1761">
        <ele>67.43</ele>
        <time>2013-05-05T09:10:11Z</time>
      </trkpt>
      <trkpt lat="49.32442" lon="1.17619">
        <ele>67.91</ele>
        <time>2013-05-05T09:10:33Z</time>
      </trkpt>
      <trkpt lat="49.32447" lon="1.17626">
        <ele>69.83</ele>
        <time>2013-05-05T09:10:38Z</time>
      </trkpt>
      <trkpt lat="49.3246" lon="1.17647">
        <ele>72.24</ele>
        <time>2013-05-05T09:10:50Z</time>
      </trkpt>
      <trkpt lat="49.32471" lon="1.17662">
        <ele>75.6</ele>
        <time>2013-05-05T09:11:01Z</time>
      </trkpt>
      <trkpt lat="49.32472" lon="1.17664">
        <ele>75.6</ele>
        <time>2013-05-05T09:11:02Z</time>
      </trkpt>
      <trkpt lat="49.32481" lon="1.17672">
        <ele>77.52</ele>
        <time>2013-05-05T09:11:15Z</time>
      </trkpt>
      <trkpt lat="49.32484" lon="1.17672">
        <ele>78</ele>
        <time>2013-05-05T09:11:18Z</time>
      </trkpt>
      <trkpt lat="49.32501" lon="1.1768">
        <ele>81.85</ele>
        <time>2013-05-05T09:11:34Z</time>
      </trkpt>
      <trkpt lat="49.32515" lon="1.1769">
        <ele>84.25</ele>
        <time>2013-05-05T09:11:47Z</time>
      </trkpt>
      <trkpt lat="49.3252" lon="1.17694">
        <ele>85.21</ele>
        <time>2013-05-05T09:11:58Z</time>
      </trkpt>
      <trkpt lat="49.32518" lon="1.17697">
        <ele>85.21</ele>
        <time>2013-05-05T09:12:26Z</time>
      </trkpt>
      <trkpt lat="49.32521" lon="1.17698">
        <ele>85.69</ele>
        <time>2013-05-05T09:12:29Z</time>
      </trkpt>
      <trkpt lat="49.32537" lon="1.17706">
        <ele>89.54</ele>
        <time>2013-05-05T09:12:44Z</time>
      </trkpt>
      <trkpt lat="49.32547" lon="1.17716">
        <ele>92.42</ele>
        <time>2013-05-05T09:12:56Z</time>
      </trkpt>
      <trkpt lat="49.3256" lon="1.17731">
        <ele>95.31</ele>
        <time>2013-05-05T09:13:10Z</time>
      </trkpt>
      <trkpt lat="49.32572" lon="1.17751">
        <ele>98.19</ele>
        <time>2013-05-05T09:13:25Z</time>
      </trkpt>
      <trkpt lat="49.32583" lon="1.17765">
        <ele>101.08</ele>
        <time>2013-05-05T09:13:39Z</time>
      </trkpt>
      <trkpt lat="49.32584" lon="1.17765">
        <ele>101.56</ele>
        <time>2013-05-05T09:13:40Z</time>
      </trkpt>
      <trkpt lat="49.32588" lon="1.17768">
        <ele>102.52</ele>
        <time>2013-05-05T09:13:44Z</time>
      </trkpt>
      <trkpt lat="49.32597" lon="1.17766">
        <ele>103.48</ele>
        <time>2013-05-05T09:13:55Z</time>
      </trkpt>
      <trkpt lat="49.32602" lon="1.17762">
        <ele>103.96</ele>
        <time>2013-05-05T09:13:59Z</time>
      </trkpt>
      <trkpt lat="49.32621" lon="1.17756">
        <ele>106.36</ele>
        <time>2013-05-05T09:14:13Z</time>
      </trkpt>
      <trkpt lat="49.32638" lon="1.17744">
        <ele>107.81</ele>
        <time>2013-05-05T09:14:24Z</time>
      </trkpt>
      <trkpt lat="49.32641" lon="1.17742">
        <ele>107.81</ele>
        <time>2013-05-05T09:14:26Z</time>
      </trkpt>
      <trkpt lat="49.32668" lon="1.17712">
        <ele>110.21</ele>
        <time>2013-05-05T09:14:42Z</time>
      </trkpt>
      <trkpt lat="49.32699" lon="1.1768">
        <ele>110.69</ele>
        <time>2013-05-05T09:14:56Z</time>
      </trkpt>
      <trkpt lat="49.32746" lon="1.17648">
        <ele>110.69</ele>
        <time>2013-05-05T09:15:10Z</time>
      </trkpt>
      <trkpt lat="49.32827" lon="1.17612">
        <ele>109.73</ele>
        <time>2013-05-05T09:15:27Z</time>
      </trkpt>
      <trkpt lat="49.32879" lon="1.17593">
        <ele>107.81</ele>
        <time>2013-05-05T09:15:37Z</time>
      </trkpt>
      <trkpt lat="49.32904" lon="1.17596">
        <ele>107.32</ele>
        <time>2013-05-05T09:15:42Z</time>
      </trkpt>
      <trkpt lat="49.32925" lon="1.17605">
        <ele>106.84</ele>
        <time>2013-05-05T09:15:46Z</time>
      </trkpt>
      <trkpt lat="49.3301" lon="1.17652">
        <ele>106.36</ele>
        <time>2013-05-05T09:16:03Z</time>
      </trkpt>
      <trkpt lat="49.33069" lon="1.17706">
        <ele>107.81</ele>
        <time>2013-05-05T09:16:18Z</time>
      </trkpt>
      <trkpt lat="49.33081" lon="1.17715">
        <ele>108.29</ele>
        <time>2013-05-05T09:16:21Z</time>
      </trkpt>
      <trkpt lat="49.33088" lon="1.1772">
        <ele>108.77</ele>
        <time>2013-05-05T09:16:23Z</time>
      </trkpt>
      <trkpt lat="49.33092" lon="1.17721">
        <ele>108.77</ele>
        <time>2013-05-05T09:16:24Z</time>
      </trkpt>
      <trkpt lat="49.33144" lon="1.17732">
        <ele>111.65</ele>
        <time>2013-05-05T09:16:39Z</time>
      </trkpt>
      <trkpt lat="49.33183" lon="1.1774">
        <ele>115.01</ele>
        <time>2013-05-05T09:16:53Z</time>
      </trkpt>
      <trkpt lat="49.33228" lon="1.17751">
        <ele>117.9</ele>
        <time>2013-05-05T09:17:09Z</time>
      </trkpt>
      <trkpt lat="49.33279" lon="1.17763">
        <ele>118.86</ele>
        <time>2013-05-05T09:17:25Z</time>
      </trkpt>
      <trkpt lat="49.33331" lon="1.1778">
        <ele>120.3</ele>
        <time>2013-05-05T09:17:40Z</time>
      </trkpt>
      <trkpt lat="49.3338" lon="1.17827">
        <ele>120.78</ele>
        <time>2013-05-05T09:17:55Z</time>
      </trkpt>
      <trkpt lat="49.33428" lon="1.17882">
        <ele>122.22</ele>
        <time>2013-05-05T09:18:10Z</time>
      </trkpt>
      <trkpt lat="49.33474" lon="1.17932">
        <ele>123.19</ele>
        <time>2013-05-05T09:18:24Z</time>
      </trkpt>
      <trkpt lat="49.33533" lon="1.17987">
        <ele>123.67</ele>
        <time>2013-05-05T09:18:39Z</time>
      </trkpt>
      <trkpt lat="49.33618" lon="1.18052">
        <ele>124.15</ele>
        <time>2013-05-05T09:18:59Z</time>
      </trkpt>
      <trkpt lat="49.33639" lon="1.18067">
        <ele>124.63</ele>
        <time>2013-05-05T09:19:04Z</time>
      </trkpt>
      <trkpt lat="49.33643" lon="1.18068">
        <ele>124.63</ele>
        <time>2013-05-05T09:19:05Z</time>
      </trkpt>
      <trkpt lat="49.33648" lon="1.18067">
        <ele>124.63</ele>
        <time>2013-05-05T09:19:06Z</time>
      </trkpt>
      <trkpt lat="49.33652" lon="1.18066">
        <ele>124.63</ele>
        <time>2013-05-05T09:19:07Z</time>
      </trkpt>
      <trkpt lat="49.33656" lon="1.18063">
        <ele>124.63</ele>
        <time>2013-05-05T09:19:08Z</time>
      </trkpt>
      <trkpt lat="49.33661" lon="1.18061">
        <ele>124.63</ele>
        <time>2013-05-05T09:19:09Z</time>
      </trkpt>
      <trkpt lat="49.33665" lon="1.18059">
        <ele>124.15</ele>
        <time>2013-05-05T09:19:10Z</time>
      </trkpt>
      <trkpt lat="49.33693" lon="1.18048">
        <ele>125.11</ele>
        <time>2013-05-05T09:19:16Z</time>
      </trkpt>
      <trkpt lat="49.33701" lon="1.18044">
        <ele>125.11</ele>
        <time>2013-05-05T09:19:18Z</time>
      </trkpt>
      <trkpt lat="49.33782" lon="1.18011">
        <ele>126.07</ele>
        <time>2013-05-05T09:19:37Z</time>
      </trkpt>
      <trkpt lat="49.3386" lon="1.17977">
        <ele>127.03</ele>
        <time>2013-05-05T09:19:56Z</time>
      </trkpt>
      <trkpt lat="49.33936" lon="1.17944">
        <ele>127.99</ele>
        <time>2013-05-05T09:20:15Z</time>
      </trkpt>
      <trkpt lat="49.33948" lon="1.17939">
        <ele>127.99</ele>
        <time>2013-05-05T09:20:18Z</time>
      </trkpt>
      <trkpt lat="49.34022" lon="1.17907">
        <ele>128.47</ele>
        <time>2013-05-05T09:20:37Z</time>
      </trkpt>
      <trkpt lat="49.34084" lon="1.17882">
        <ele>129.43</ele>
        <time>2013-05-05T09:20:54Z</time>
      </trkpt>
      <trkpt lat="49.34141" lon="1.17871">
        <ele>129.43</ele>
        <time>2013-05-05T09:21:09Z</time>
      </trkpt>
      <trkpt lat="49.342" lon="1.17863">
        <ele>130.4</ele>
        <time>2013-05-05T09:21:25Z</time>
      </trkpt>
      <trkpt lat="49.34265" lon="1.17857">
        <ele>131.36</ele>
        <time>2013-05-05T09:21:42Z</time>
      </trkpt>
      <trkpt lat="49.34334" lon="1.17859">
        <ele>131.84</ele>
        <time>2013-05-05T09:22:00Z</time>
      </trkpt>
      <trkpt lat="49.34397" lon="1.1786">
        <ele>132.8</ele>
        <time>2013-05-05T09:22:16Z</time>
      </trkpt>
      <trkpt lat="49.34469" lon="1.1786">
        <ele>133.76</ele>
        <time>2013-05-05T09:22:34Z</time>
      </trkpt>
      <trkpt lat="49.3454" lon="1.17856">
        <ele>133.76</ele>
        <time>2013-05-05T09:22:51Z</time>
      </trkpt>
      <trkpt lat="49.34629" lon="1.17849">
        <ele>133.28</ele>
        <time>2013-05-05T09:23:10Z</time>
      </trkpt>
      <trkpt lat="49.34713" lon="1.1783">
        <ele>132.8</ele>
        <time>2013-05-05T09:23:28Z</time>
      </trkpt>
      <trkpt lat="49.3479" lon="1.17808">
        <ele>131.84</ele>
        <time>2013-05-05T09:23:45Z</time>
      </trkpt>
      <trkpt lat="49.34812" lon="1.17802">
        <ele>130.88</ele>
        <time>2013-05-05T09:23:50Z</time>
      </trkpt>
      <trkpt lat="49.34816" lon="1.17804">
        <ele>130.88</ele>
        <time>2013-05-05T09:23:51Z</time>
      </trkpt>
      <trkpt lat="49.34819" lon="1.17809">
        <ele>131.36</ele>
        <time>2013-05-05T09:23:52Z</time>
      </trkpt>
      <trkpt lat="49.34821" lon="1.17814">
        <ele>131.36</ele>
        <time>2013-05-05T09:23:53Z</time>
      </trkpt>
      <trkpt lat="49.34823" lon="1.17821">
        <ele>131.36</ele>
        <time>2013-05-05T09:23:54Z</time>
      </trkpt>
      <trkpt lat="49.34825" lon="1.17827">
        <ele>131.84</ele>
        <time>2013-05-05T09:23:55Z</time>
      </trkpt>
      <trkpt lat="49.34828" lon="1.17831">
        <ele>131.84</ele>
        <time>2013-05-05T09:23:56Z</time>
      </trkpt>
      <trkpt lat="49.34831" lon="1.17835">
        <ele>131.84</ele>
        <time>2013-05-05T09:23:57Z</time>
      </trkpt>
      <trkpt lat="49.34833" lon="1.1784">
        <ele>131.84</ele>
        <time>2013-05-05T09:23:58Z</time>
      </trkpt>
      <trkpt lat="49.34835" lon="1.17846">
        <ele>132.32</ele>
        <time>2013-05-05T09:23:59Z</time>
      </trkpt>
      <trkpt lat="49.34843" lon="1.17868">
        <ele>132.8</ele>
        <time>2013-05-05T09:24:03Z</time>
      </trkpt>
      <trkpt lat="49.34858" lon="1.17933">
        <ele>134.24</ele>
        <time>2013-05-05T09:24:14Z</time>
      </trkpt>
      <trkpt lat="49.34863" lon="1.17951">
        <ele>134.24</ele>
        <time>2013-05-05T09:24:17Z</time>
      </trkpt>
      <trkpt lat="49.34877" lon="1.18011">
        <ele>135.68</ele>
        <time>2013-05-05T09:24:29Z</time>
      </trkpt>
      <trkpt lat="49.34882" lon="1.18055">
        <ele>135.68</ele>
        <time>2013-05-05T09:24:36Z</time>
      </trkpt>
      <trkpt lat="49.34887" lon="1.18072">
        <ele>135.68</ele>
        <time>2013-05-05T09:24:39Z</time>
      </trkpt>
      <trkpt lat="49.34891" lon="1.18083">
        <ele>136.16</ele>
        <time>2013-05-05T09:24:41Z</time>
      </trkpt>
      <trkpt lat="49.34934" lon="1.18132">
        <ele>136.64</ele>
        <time>2013-05-05T09:24:55Z</time>
      </trkpt>
      <trkpt lat="49.34997" lon="1.18173">
        <ele>137.61</ele>
        <time>2013-05-05T09:25:13Z</time>
      </trkpt>
      <trkpt lat="49.3505" lon="1.18199">
        <ele>138.57</ele>
        <time>2013-05-05T09:25:28Z</time>
      </trkpt>
      <trkpt lat="49.35103" lon="1.18216">
        <ele>139.53</ele>
        <time>2013-05-05T09:25:43Z</time>
      </trkpt>
      <trkpt lat="49.35137" lon="1.18208">
        <ele>139.53</ele>
        <time>2013-05-05T09:25:57Z</time>
      </trkpt>
      <trkpt lat="49.35139" lon="1.18209">
        <ele>140.01</ele>
        <time>2013-05-05T09:25:58Z</time>
      </trkpt>
      <trkpt lat="49.35141" lon="1.1821">
        <ele>140.01</ele>
        <time>2013-05-05T09:25:59Z</time>
      </trkpt>
      <trkpt lat="49.35182" lon="1.18199">
        <ele>140.01</ele>
        <time>2013-05-05T09:26:10Z</time>
      </trkpt>
      <trkpt lat="49.35233" lon="1.18175">
        <ele>140.49</ele>
        <time>2013-05-05T09:26:24Z</time>
      </trkpt>
      <trkpt lat="49.35283" lon="1.18141">
        <ele>140.97</ele>
        <time>2013-05-05T09:26:38Z</time>
      </trkpt>
      <trkpt lat="49.35335" lon="1.18103">
        <ele>141.45</ele>
        <time>2013-05-05T09:26:53Z</time>
      </trkpt>
      <trkpt lat="49.35387" lon="1.18082">
        <ele>141.93</ele>
        <time>2013-05-05T09:27:07Z</time>
      </trkpt>
      <trkpt lat="49.35438" lon="1.18063">
        <ele>141.93</ele>
        <time>2013-05-05T09:27:20Z</time>
      </trkpt>
      <trkpt lat="49.35497" lon="1.18026">
        <ele>142.41</ele>
        <time>2013-05-05T09:27:36Z</time>
      </trkpt>
      <trkpt lat="49.35552" lon="1.17993">
        <ele>142.41</ele>
        <time>2013-05-05T09:27:53Z</time>
      </trkpt>
      <trkpt lat="49.35561" lon="1.17987">
        <ele>141.45</ele>
        <time>2013-05-05T09:27:56Z</time>
      </trkpt>
      <trkpt lat="49.35562" lon="1.17982">
        <ele>140.97</ele>
        <time>2013-05-05T09:27:57Z</time>
      </trkpt>
      <trkpt lat="49.35563" lon="1.17977">
        <ele>140.49</ele>
        <time>2013-05-05T09:27:58Z</time>
      </trkpt>
      <trkpt lat="49.35563" lon="1.17972">
        <ele>140.97</ele>
        <time>2013-05-05T09:27:59Z</time>
      </trkpt>
      <trkpt lat="49.35561" lon="1.17967">
        <ele>140.49</ele>
        <time>2013-05-05T09:28:00Z</time>
      </trkpt>
      <trkpt lat="49.3556" lon="1.17962">
        <ele>140.49</ele>
        <time>2013-05-05T09:28:01Z</time>
      </trkpt>
      <trkpt lat="49.35558" lon="1.17957">
        <ele>140.97</ele>
        <time>2013-05-05T09:28:02Z</time>
      </trkpt>
      <trkpt lat="49.35558" lon="1.17951">
        <ele>140.49</ele>
        <time>2013-05-05T09:28:03Z</time>
      </trkpt>
      <trkpt lat="49.35557" lon="1.17944">
        <ele>140.97</ele>
        <time>2013-05-05T09:28:04Z</time>
      </trkpt>
      <trkpt lat="49.35556" lon="1.17938">
        <ele>140.49</ele>
        <time>2013-05-05T09:28:05Z</time>
      </trkpt>
      <trkpt lat="49.35556" lon="1.17931">
        <ele>140.49</ele>
        <time>2013-05-05T09:28:06Z</time>
      </trkpt>
      <trkpt lat="49.35543" lon="1.17793">
        <ele>139.53</ele>
        <time>2013-05-05T09:28:26Z</time>
      </trkpt>
      <trkpt lat="49.35542" lon="1.1776">
        <ele>139.05</ele>
        <time>2013-05-05T09:28:31Z</time>
      </trkpt>
      <trkpt lat="49.35536" lon="1.17722">
        <ele>138.57</ele>
        <time>2013-05-05T09:28:38Z</time>
      </trkpt>
      <trkpt lat="49.35537" lon="1.17717">
        <ele>138.57</ele>
        <time>2013-05-05T09:28:39Z</time>
      </trkpt>
      <trkpt lat="49.3554" lon="1.17705">
        <ele>138.57</ele>
        <time>2013-05-05T09:28:41Z</time>
      </trkpt>
      <trkpt lat="49.35541" lon="1.17699">
        <ele>138.57</ele>
        <time>2013-05-05T09:28:42Z</time>
      </trkpt>
      <trkpt lat="49.35542" lon="1.17692">
        <ele>138.57</ele>
        <time>2013-05-05T09:28:43Z</time>
      </trkpt>
      <trkpt lat="49.35542" lon="1.17577">
        <ele>136.16</ele>
        <time>2013-05-05T09:28:58Z</time>
      </trkpt>
      <trkpt lat="49.3554" lon="1.17536">
        <ele>135.2</ele>
        <time>2013-05-05T09:29:04Z</time>
      </trkpt>
      <trkpt lat="49.35539" lon="1.1753">
        <ele>135.2</ele>
        <time>2013-05-05T09:29:05Z</time>
      </trkpt>
      <trkpt lat="49.35538" lon="1.17524">
        <ele>134.72</ele>
        <time>2013-05-05T09:29:06Z</time>
      </trkpt>
      <trkpt lat="49.35537" lon="1.17519">
        <ele>134.72</ele>
        <time>2013-05-05T09:29:07Z</time>
      </trkpt>
      <trkpt lat="49.35538" lon="1.17514">
        <ele>134.72</ele>
        <time>2013-05-05T09:29:08Z</time>
      </trkpt>
      <trkpt lat="49.3554" lon="1.1751">
        <ele>134.24</ele>
        <time>2013-05-05T09:29:09Z</time>
      </trkpt>
      <trkpt lat="49.35542" lon="1.17506">
        <ele>134.72</ele>
        <time>2013-05-05T09:29:10Z</time>
      </trkpt>
      <trkpt lat="49.35545" lon="1.17501">
        <ele>134.72</ele>
        <time>2013-05-05T09:29:11Z</time>
      </trkpt>
      <trkpt lat="49.35548" lon="1.17498">
        <ele>134.72</ele>
        <time>2013-05-05T09:29:12Z</time>
      </trkpt>
      <trkpt lat="49.35552" lon="1.17496">
        <ele>134.72</ele>
        <time>2013-05-05T09:29:13Z</time>
      </trkpt>
      <trkpt lat="49.35555" lon="1.17493">
        <ele>135.2</ele>
        <time>2013-05-05T09:29:14Z</time>
      </trkpt>
      <trkpt lat="49.35557" lon="1.17488">
        <ele>134.72</ele>
        <time>2013-05-05T09:29:15Z</time>
      </trkpt>
      <trkpt lat="49.35558" lon="1.17482">
        <ele>134.72</ele>
        <time>2013-05-05T09:29:16Z</time>
      </trkpt>
      <trkpt lat="49.35559" lon="1.17475">
        <ele>134.72</ele>
        <time>2013-05-05T09:29:17Z</time>
      </trkpt>
      <trkpt lat="49.35559" lon="1.17468">
        <ele>134.72</ele>
        <time>2013-05-05T09:29:18Z</time>
      </trkpt>
      <trkpt lat="49.35559" lon="1.17461">
        <ele>134.72</ele>
        <time>2013-05-05T09:29:19Z</time>
      </trkpt>
      <trkpt lat="49.35559" lon="1.17454">
        <ele>134.72</ele>
        <time>2013-05-05T09:29:20Z</time>
      </trkpt>
      <trkpt lat="49.35558" lon="1.1744">
        <ele>134.72</ele>
        <time>2013-05-05T09:29:22Z</time>
      </trkpt>
      <trkpt lat="49.35551" lon="1.17398">
        <ele>134.24</ele>
        <time>2013-05-05T09:29:28Z</time>
      </trkpt>
      <trkpt lat="49.35531" lon="1.17313">
        <ele>132.32</ele>
        <time>2013-05-05T09:29:41Z</time>
      </trkpt>
      <trkpt lat="49.35526" lon="1.17296">
        <ele>132.8</ele>
        <time>2013-05-05T09:29:45Z</time>
      </trkpt>
      <trkpt lat="49.35525" lon="1.17293">
        <ele>132.32</ele>
        <time>2013-05-05T09:29:46Z</time>
      </trkpt>
      <trkpt lat="49.35524" lon="1.17288">
        <ele>132.32</ele>
        <time>2013-05-05T09:29:47Z</time>
      </trkpt>
      <trkpt lat="49.35524" lon="1.17282">
        <ele>131.84</ele>
        <time>2013-05-05T09:29:48Z</time>
      </trkpt>
      <trkpt lat="49.35525" lon="1.17276">
        <ele>131.84</ele>
        <time>2013-05-05T09:29:49Z</time>
      </trkpt>
      <trkpt lat="49.35525" lon="1.17272">
        <ele>132.32</ele>
        <time>2013-05-05T09:29:50Z</time>
      </trkpt>
      <trkpt lat="49.35525" lon="1.17268">
        <ele>131.84</ele>
        <time>2013-05-05T09:29:51Z</time>
      </trkpt>
      <trkpt lat="49.35523" lon="1.17258">
        <ele>132.32</ele>
        <time>2013-05-05T09:30:01Z</time>
      </trkpt>
      <trkpt lat="49.35526" lon="1.17257">
        <ele>132.32</ele>
        <time>2013-05-05T09:30:12Z</time>
      </trkpt>
      <trkpt lat="49.35526" lon="1.17257">
        <ele>132.32</ele>
        <time>2013-05-05T09:30:56Z</time>
      </trkpt>
      <trkpt lat="49.35528" lon="1.17257">
        <ele>132.32</ele>
        <time>2013-05-05T09:31:31Z</time>
      </trkpt>
      <trkpt lat="49.35528" lon="1.17253">
        <ele>132.32</ele>
        <time>2013-05-05T09:32:08Z</time>
      </trkpt>
      <trkpt lat="49.35528" lon="1.17254">
        <ele>132.32</ele>
        <time>2013-05-05T09:32:36Z</time>
      </trkpt>
      <trkpt lat="49.35527" lon="1.17256">
        <ele>132.32</ele>
        <time>2013-05-05T09:33:03Z</time>
      </trkpt>
      <trkpt lat="49.35527" lon="1.17256">
        <ele>132.32</ele>
        <time>2013-05-05T09:33:30Z</time>
      </trkpt>
      <trkpt lat="49.35527" lon="1.17254">
        <ele>132.32</ele>
        <time>2013-05-05T09:33:52Z</time>
      </trkpt>
      <trkpt lat="49.35526" lon="1.17254">
        <ele>132.8</ele>
        <time>2013-05-05T09:34:26Z</time>
      </trkpt>
      <trkpt lat="49.35526" lon="1.17255">
        <ele>132.8</ele>
        <time>2013-05-05T09:34:50Z</time>
      </trkpt>
      <trkpt lat="49.35526" lon="1.17257">
        <ele>132.8</ele>
        <time>2013-05-05T09:35:18Z</time>
      </trkpt>
      <trkpt lat="49.35527" lon="1.17258">
        <ele>132.8</ele>
        <time>2013-05-05T09:35:52Z</time>
      </trkpt>
      <trkpt lat="49.35527" lon="1.17258">
        <ele>132.8</ele>
        <time>2013-05-05T09:36:26Z</time>
      </trkpt>
      <trkpt lat="49.35526" lon="1.17258">
        <ele>133.28</ele>
        <time>2013-05-05T09:37:01Z</time>
      </trkpt>
      <trkpt lat="49.35524" lon="1.17258">
        <ele>133.28</ele>
        <time>2013-05-05T09:37:24Z</time>
      </trkpt>
      <trkpt lat="49.35524" lon="1.17256">
        <ele>133.28</ele>
        <time>2013-05-05T09:37:45Z</time>
      </trkpt>
      <trkpt lat="49.35522" lon="1.17253">
        <ele>133.28</ele>
        <time>2013-05-05T09:37:52Z</time>
      </trkpt>
      <trkpt lat="49.35522" lon="1.17251">
        <ele>132.8</ele>
        <time>2013-05-05T09:37:53Z</time>
      </trkpt>
      <trkpt lat="49.35522" lon="1.17248">
        <ele>132.8</ele>
        <time>2013-05-05T09:37:54Z</time>
      </trkpt>
      <trkpt lat="49.35522" lon="1.17244">
        <ele>132.8</ele>
        <time>2013-05-05T09:37:55Z</time>
      </trkpt>
      <trkpt lat="49.35523" lon="1.1724">
        <ele>132.8</ele>
        <time>2013-05-05T09:37:56Z</time>
      </trkpt>
      <trkpt lat="49.35524" lon="1.17236">
        <ele>132.8</ele>
        <time>2013-05-05T09:37:57Z</time>
      </trkpt>
      <trkpt lat="49.35525" lon="1.17232">
        <ele>132.8</ele>
        <time>2013-05-05T09:37:58Z</time>
      </trkpt>
      <trkpt lat="49.35529" lon="1.17215">
        <ele>133.28</ele>
        <time>2013-05-05T09:38:01Z</time>
      </trkpt>
      <trkpt lat="49.3553" lon="1.17209">
        <ele>133.28</ele>
        <time>2013-05-05T09:38:02Z</time>
      </trkpt>
      <trkpt lat="49.35535" lon="1.17191">
        <ele>133.28</ele>
        <time>2013-05-05T09:38:05Z</time>
      </trkpt>
      <trkpt lat="49.35537" lon="1.17186">
        <ele>133.28</ele>
        <time>2013-05-05T09:38:06Z</time>
      </trkpt>
      <trkpt lat="49.35539" lon="1.1718">
        <ele>133.28</ele>
        <time>2013-05-05T09:38:07Z</time>
      </trkpt>
      <trkpt lat="49.35541" lon="1.17174">
        <ele>133.28</ele>
        <time>2013-05-05T09:38:08Z</time>
      </trkpt>
      <trkpt lat="49.35544" lon="1.17169">
        <ele>133.76</ele>
        <time>2013-05-05T09:38:09Z</time>
      </trkpt>
      <trkpt lat="49.35547" lon="1.17165">
        <ele>133.76</ele>
        <time>2013-05-05T09:38:10Z</time>
      </trkpt>
      <trkpt lat="49.35549" lon="1.1716">
        <ele>133.76</ele>
        <time>2013-05-05T09:38:11Z</time>
      </trkpt>
      <trkpt lat="49.35551" lon="1.17154">
        <ele>133.76</ele>
        <time>2013-05-05T09:38:12Z</time>
      </trkpt>
      <trkpt lat="49.35554" lon="1.17149">
        <ele>134.24</ele>
        <time>2013-05-05T09:38:13Z</time>
      </trkpt>
      <trkpt lat="49.35572" lon="1.17108">
        <ele>135.2</ele>
        <time>2013-05-05T09:38:21Z</time>
      </trkpt>
      <trkpt lat="49.35574" lon="1.17102">
        <ele>135.2</ele>
        <time>2013-05-05T09:38:22Z</time>
      </trkpt>
      <trkpt lat="49.35577" lon="1.17089">
        <ele>135.68</ele>
        <time>2013-05-05T09:38:24Z</time>
      </trkpt>
      <trkpt lat="49.35578" lon="1.17083">
        <ele>135.68</ele>
        <time>2013-05-05T09:38:25Z</time>
      </trkpt>
      <trkpt lat="49.35579" lon="1.17076">
        <ele>135.68</ele>
        <time>2013-05-05T09:38:26Z</time>
      </trkpt>
      <trkpt lat="49.35578" lon="1.17055">
        <ele>136.16</ele>
        <time>2013-05-05T09:38:29Z</time>
      </trkpt>
      <trkpt lat="49.35575" lon="1.17041">
        <ele>136.16</ele>
        <time>2013-05-05T09:38:31Z</time>
      </trkpt>
      <trkpt lat="49.35543" lon="1.16962">
        <ele>134.24</ele>
        <time>2013-05-05T09:38:42Z</time>
      </trkpt>
      <trkpt lat="49.3553" lon="1.16932">
        <ele>133.28</ele>
        <time>2013-05-05T09:38:46Z</time>
      </trkpt>
      <trkpt lat="49.35496" lon="1.16793">
        <ele>132.32</ele>
        <time>2013-05-05T09:39:03Z</time>
      </trkpt>
      <trkpt lat="49.3549" lon="1.16771">
        <ele>132.32</ele>
        <time>2013-05-05T09:39:06Z</time>
      </trkpt>
      <trkpt lat="49.35481" lon="1.16734">
        <ele>132.32</ele>
        <time>2013-05-05T09:39:11Z</time>
      </trkpt>
      <trkpt lat="49.35479" lon="1.16685">
        <ele>131.84</ele>
        <time>2013-05-05T09:39:17Z</time>
      </trkpt>
      <trkpt lat="49.3548" lon="1.16668">
        <ele>131.84</ele>
        <time>2013-05-05T09:39:19Z</time>
      </trkpt>
      <trkpt lat="49.35486" lon="1.16616">
        <ele>130.4</ele>
        <time>2013-05-05T09:39:25Z</time>
      </trkpt>
      <trkpt lat="49.3548" lon="1.16551">
        <ele>127.03</ele>
        <time>2013-05-05T09:39:32Z</time>
      </trkpt>
      <trkpt lat="49.35458" lon="1.16516">
        <ele>123.67</ele>
        <time>2013-05-05T09:39:37Z</time>
      </trkpt>
      <trkpt lat="49.35445" lon="1.16515">
        <ele>123.19</ele>
        <time>2013-05-05T09:39:39Z</time>
      </trkpt>
      <trkpt lat="49.35421" lon="1.16513">
        <ele>121.74</ele>
        <time>2013-05-05T09:39:43Z</time>
      </trkpt>
      <trkpt lat="49.35407" lon="1.16513">
        <ele>121.26</ele>
        <time>2013-05-05T09:39:51Z</time>
      </trkpt>
      <trkpt lat="49.35405" lon="1.16512">
        <ele>121.26</ele>
        <time>2013-05-05T09:40:33Z</time>
      </trkpt>
      <trkpt lat="49.35406" lon="1.16511">
        <ele>121.26</ele>
        <time>2013-05-05T09:40:36Z</time>
      </trkpt>
      <trkpt lat="49.35407" lon="1.16507">
        <ele>120.78</ele>
        <time>2013-05-05T09:40:38Z</time>
      </trkpt>
      <trkpt lat="49.35406" lon="1.16489">
        <ele>119.82</ele>
        <time>2013-05-05T09:40:42Z</time>
      </trkpt>
      <trkpt lat="49.35391" lon="1.16453">
        <ele>116.46</ele>
        <time>2013-05-05T09:40:47Z</time>
      </trkpt>
      <trkpt lat="49.35369" lon="1.16427">
        <ele>113.09</ele>
        <time>2013-05-05T09:40:52Z</time>
      </trkpt>
      <trkpt lat="49.35362" lon="1.1642">
        <ele>111.65</ele>
        <time>2013-05-05T09:40:54Z</time>
      </trkpt>
      <trkpt lat="49.3536" lon="1.1641">
        <ele>110.69</ele>
        <time>2013-05-05T09:40:56Z</time>
      </trkpt>
      <trkpt lat="49.35363" lon="1.16397">
        <ele>110.21</ele>
        <time>2013-05-05T09:40:58Z</time>
      </trkpt>
      <trkpt lat="49.35374" lon="1.16371">
        <ele>109.73</ele>
        <time>2013-05-05T09:41:02Z</time>
      </trkpt>
      <trkpt lat="49.35393" lon="1.16351">
        <ele>109.25</ele>
        <time>2013-05-05T09:41:06Z</time>
      </trkpt>
      <trkpt lat="49.35412" lon="1.16341">
        <ele>109.73</ele>
        <time>2013-05-05T09:41:10Z</time>
      </trkpt>
      <trkpt lat="49.35448" lon="1.1634">
        <ele>108.77</ele>
        <time>2013-05-05T09:41:17Z</time>
      </trkpt>
      <trkpt lat="49.35457" lon="1.16334">
        <ele>108.77</ele>
        <time>2013-05-05T09:41:19Z</time>
      </trkpt>
      <trkpt lat="49.35486" lon="1.16307">
        <ele>112.13</ele>
        <time>2013-05-05T09:41:29Z</time>
      </trkpt>
      <trkpt lat="49.35526" lon="1.16273">
        <ele>115.01</ele>
        <time>2013-05-05T09:41:42Z</time>
      </trkpt>
      <trkpt lat="49.35557" lon="1.1625">
        <ele>116.94</ele>
        <time>2013-05-05T09:41:54Z</time>
      </trkpt>
      <trkpt lat="49.35561" lon="1.16248">
        <ele>117.42</ele>
        <time>2013-05-05T09:41:56Z</time>
      </trkpt>
      <trkpt lat="49.3557" lon="1.16241">
        <ele>118.38</ele>
        <time>2013-05-05T09:42:00Z</time>
      </trkpt>
      <trkpt lat="49.35603" lon="1.16228">
        <ele>121.26</ele>
        <time>2013-05-05T09:42:13Z</time>
      </trkpt>
      <trkpt lat="49.35613" lon="1.16221">
        <ele>121.74</ele>
        <time>2013-05-05T09:42:17Z</time>
      </trkpt>
      <trkpt lat="49.3564" lon="1.16191">
        <ele>122.71</ele>
        <time>2013-05-05T09:42:29Z</time>
      </trkpt>
      <trkpt lat="49.35668" lon="1.16168">
        <ele>123.67</ele>
        <time>2013-05-05T09:42:40Z</time>
      </trkpt>
      <trkpt lat="49.35702" lon="1.16141">
        <ele>125.11</ele>
        <time>2013-05-05T09:42:52Z</time>
      </trkpt>
      <trkpt lat="49.35737" lon="1.16115">
        <ele>126.07</ele>
        <time>2013-05-05T09:43:04Z</time>
      </trkpt>
      <trkpt lat="49.35773" lon="1.16088">
        <ele>127.03</ele>
        <time>2013-05-05T09:43:16Z</time>
      </trkpt>
      <trkpt lat="49.35797" lon="1.16073">
        <ele>127.51</ele>
        <time>2013-05-05T09:43:24Z</time>
      </trkpt>
      <trkpt lat="49.35816" lon="1.16025">
        <ele>125.59</ele>
        <time>2013-05-05T09:43:33Z</time>
      </trkpt>
      <trkpt lat="49.35831" lon="1.16002">
        <ele>124.15</ele>
        <time>2013-05-05T09:43:38Z</time>
      </trkpt>
      <trkpt lat="49.3584" lon="1.15997">
        <ele>123.67</ele>
        <time>2013-05-05T09:43:41Z</time>
      </trkpt>
      <trkpt lat="49.35841" lon="1.15981">
        <ele>122.71</ele>
        <time>2013-05-05T09:43:43Z</time>
      </trkpt>
      <trkpt lat="49.3586" lon="1.15915">
        <ele>118.86</ele>
        <time>2013-05-05T09:43:52Z</time>
      </trkpt>
      <trkpt lat="49.35867" lon="1.15881">
        <ele>115.98</ele>
        <time>2013-05-05T09:43:56Z</time>
      </trkpt>
      <trkpt lat="49.35872" lon="1.15859">
        <ele>114.53</ele>
        <time>2013-05-05T09:43:59Z</time>
      </trkpt>
      <trkpt lat="49.3589" lon="1.15817">
        <ele>110.21</ele>
        <time>2013-05-05T09:44:06Z</time>
      </trkpt>
      <trkpt lat="49.35892" lon="1.15815">
        <ele>111.17</ele>
        <time>2013-05-05T09:44:07Z</time>
      </trkpt>
      <trkpt lat="49.35896" lon="1.15805">
        <ele>110.69</ele>
        <time>2013-05-05T09:44:09Z</time>
      </trkpt>
      <trkpt lat="49.35894" lon="1.15759">
        <ele>106.84</ele>
        <time>2013-05-05T09:44:17Z</time>
      </trkpt>
      <trkpt lat="49.35893" lon="1.15754">
        <ele>106.84</ele>
        <time>2013-05-05T09:44:18Z</time>
      </trkpt>
      <trkpt lat="49.3589" lon="1.1573">
        <ele>105.88</ele>
        <time>2013-05-05T09:44:25Z</time>
      </trkpt>
      <trkpt lat="49.3588" lon="1.15702">
        <ele>103</ele>
        <time>2013-05-05T09:44:32Z</time>
      </trkpt>
      <trkpt lat="49.35875" lon="1.15671">
        <ele>97.71</ele>
        <time>2013-05-05T09:44:38Z</time>
      </trkpt>
      <trkpt lat="49.35874" lon="1.15656">
        <ele>96.27</ele>
        <time>2013-05-05T09:44:40Z</time>
      </trkpt>
      <trkpt lat="49.35866" lon="1.15616">
        <ele>92.42</ele>
        <time>2013-05-05T09:44:45Z</time>
      </trkpt>
      <trkpt lat="49.35861" lon="1.15597">
        <ele>91.46</ele>
        <time>2013-05-05T09:44:47Z</time>
      </trkpt>
      <trkpt lat="49.35812" lon="1.15507">
        <ele>87.14</ele>
        <time>2013-05-05T09:44:55Z</time>
      </trkpt>
      <trkpt lat="49.35786" lon="1.15464">
        <ele>85.21</ele>
        <time>2013-05-05T09:44:59Z</time>
      </trkpt>
      <trkpt lat="49.35766" lon="1.1543">
        <ele>82.81</ele>
        <time>2013-05-05T09:45:06Z</time>
      </trkpt>
      <trkpt lat="49.35767" lon="1.15431">
        <ele>82.81</ele>
        <time>2013-05-05T09:45:09Z</time>
      </trkpt>
      <trkpt lat="49.35771" lon="1.15415">
        <ele>82.81</ele>
        <time>2013-05-05T09:45:17Z</time>
      </trkpt>
      <trkpt lat="49.3577" lon="1.1541">
        <ele>82.81</ele>
        <time>2013-05-05T09:45:18Z</time>
      </trkpt>
      <trkpt lat="49.35757" lon="1.15341">
        <ele>80.41</ele>
        <time>2013-05-05T09:45:27Z</time>
      </trkpt>
      <trkpt lat="49.35762" lon="1.15314">
        <ele>78.97</ele>
        <time>2013-05-05T09:45:31Z</time>
      </trkpt>
      <trkpt lat="49.35766" lon="1.15298">
        <ele>78.48</ele>
        <time>2013-05-05T09:45:34Z</time>
      </trkpt>
      <trkpt lat="49.35764" lon="1.15289">
        <ele>78</ele>
        <time>2013-05-05T09:45:36Z</time>
      </trkpt>
      <trkpt lat="49.35755" lon="1.15258">
        <ele>77.52</ele>
        <time>2013-05-05T09:45:41Z</time>
      </trkpt>
      <trkpt lat="49.35755" lon="1.15252">
        <ele>77.04</ele>
        <time>2013-05-05T09:45:42Z</time>
      </trkpt>
      <trkpt lat="49.35756" lon="1.15247">
        <ele>76.56</ele>
        <time>2013-05-05T09:45:43Z</time>
      </trkpt>
      <trkpt lat="49.3576" lon="1.15244">
        <ele>77.04</ele>
        <time>2013-05-05T09:45:44Z</time>
      </trkpt>
      <trkpt lat="49.35764" lon="1.15242">
        <ele>77.04</ele>
        <time>2013-05-05T09:45:45Z</time>
      </trkpt>
      <trkpt lat="49.35768" lon="1.15241">
        <ele>77.04</ele>
        <time>2013-05-05T09:45:46Z</time>
      </trkpt>
      <trkpt lat="49.35772" lon="1.15241">
        <ele>77.04</ele>
        <time>2013-05-05T09:45:47Z</time>
      </trkpt>
      <trkpt lat="49.35777" lon="1.15239">
        <ele>77.04</ele>
        <time>2013-05-05T09:45:48Z</time>
      </trkpt>
      <trkpt lat="49.35781" lon="1.15238">
        <ele>77.52</ele>
        <time>2013-05-05T09:45:49Z</time>
      </trkpt>
      <trkpt lat="49.35785" lon="1.15235">
        <ele>77.52</ele>
        <time>2013-05-05T09:45:50Z</time>
      </trkpt>
      <trkpt lat="49.35855" lon="1.15181">
        <ele>79.93</ele>
        <time>2013-05-05T09:46:07Z</time>
      </trkpt>
      <trkpt lat="49.3587" lon="1.15166">
        <ele>80.89</ele>
        <time>2013-05-05T09:46:11Z</time>
      </trkpt>
      <trkpt lat="49.35874" lon="1.15164">
        <ele>80.89</ele>
        <time>2013-05-05T09:46:12Z</time>
      </trkpt>
      <trkpt lat="49.35879" lon="1.15162">
        <ele>80.89</ele>
        <time>2013-05-05T09:46:13Z</time>
      </trkpt>
      <trkpt lat="49.35882" lon="1.1516">
        <ele>81.37</ele>
        <time>2013-05-05T09:46:14Z</time>
      </trkpt>
      <trkpt lat="49.35887" lon="1.15158">
        <ele>81.37</ele>
        <time>2013-05-05T09:46:15Z</time>
      </trkpt>
      <trkpt lat="49.35891" lon="1.15157">
        <ele>81.85</ele>
        <time>2013-05-05T09:46:16Z</time>
      </trkpt>
      <trkpt lat="49.35895" lon="1.15157">
        <ele>81.85</ele>
        <time>2013-05-05T09:46:17Z</time>
      </trkpt>
      <trkpt lat="49.35907" lon="1.15158">
        <ele>82.33</ele>
        <time>2013-05-05T09:46:20Z</time>
      </trkpt>
      <trkpt lat="49.35911" lon="1.15159">
        <ele>82.33</ele>
        <time>2013-05-05T09:46:21Z</time>
      </trkpt>
      <trkpt lat="49.35945" lon="1.15164">
        <ele>82.81</ele>
        <time>2013-05-05T09:46:29Z</time>
      </trkpt>
      <trkpt lat="49.35954" lon="1.15162">
        <ele>83.29</ele>
        <time>2013-05-05T09:46:31Z</time>
      </trkpt>
      <trkpt lat="49.3598" lon="1.15144">
        <ele>83.77</ele>
        <time>2013-05-05T09:46:38Z</time>
      </trkpt>
      <trkpt lat="49.36015" lon="1.15133">
        <ele>87.14</ele>
        <time>2013-05-05T09:46:49Z</time>
      </trkpt>
      <trkpt lat="49.36042" lon="1.15148">
        <ele>89.54</ele>
        <time>2013-05-05T09:47:01Z</time>
      </trkpt>
      <trkpt lat="49.36054" lon="1.15158">
        <ele>90.98</ele>
        <time>2013-05-05T09:47:07Z</time>
      </trkpt>
      <trkpt lat="49.36054" lon="1.15162">
        <ele>91.46</ele>
        <time>2013-05-05T09:47:08Z</time>
      </trkpt>
      <trkpt lat="49.36052" lon="1.15165">
        <ele>91.46</ele>
        <time>2013-05-05T09:47:09Z</time>
      </trkpt>
      <trkpt lat="49.3605" lon="1.15173">
        <ele>90.98</ele>
        <time>2013-05-05T09:47:11Z</time>
      </trkpt>
      <trkpt lat="49.36051" lon="1.15177">
        <ele>91.46</ele>
        <time>2013-05-05T09:47:12Z</time>
      </trkpt>
      <trkpt lat="49.36055" lon="1.15182">
        <ele>91.46</ele>
        <time>2013-05-05T09:47:14Z</time>
      </trkpt>
      <trkpt lat="49.36072" lon="1.15202">
        <ele>94.83</ele>
        <time>2013-05-05T09:47:26Z</time>
      </trkpt>
      <trkpt lat="49.36092" lon="1.15226">
        <ele>98.19</ele>
        <time>2013-05-05T09:47:42Z</time>
      </trkpt>
      <trkpt lat="49.36104" lon="1.15236">
        <ele>101.08</ele>
        <time>2013-05-05T09:47:55Z</time>
      </trkpt>
      <trkpt lat="49.36114" lon="1.15241">
        <ele>102.52</ele>
        <time>2013-05-05T09:48:07Z</time>
      </trkpt>
      <trkpt lat="49.36126" lon="1.15252">
        <ele>103.48</ele>
        <time>2013-05-05T09:48:29Z</time>
      </trkpt>
      <trkpt lat="49.36146" lon="1.15274">
        <ele>106.36</ele>
        <time>2013-05-05T09:48:44Z</time>
      </trkpt>
      <trkpt lat="49.36172" lon="1.15298">
        <ele>108.77</ele>
        <time>2013-05-05T09:48:58Z</time>
      </trkpt>
      <trkpt lat="49.36192" lon="1.15322">
        <ele>110.69</ele>
        <time>2013-05-05T09:49:11Z</time>
      </trkpt>
      <trkpt lat="49.36218" lon="1.15335">
        <ele>113.57</ele>
        <time>2013-05-05T09:49:26Z</time>
      </trkpt>
      <trkpt lat="49.36241" lon="1.15349">
        <ele>116.94</ele>
        <time>2013-05-05T09:49:40Z</time>
      </trkpt>
      <trkpt lat="49.36271" lon="1.15367">
        <ele>119.82</ele>
        <time>2013-05-05T09:49:57Z</time>
      </trkpt>
      <trkpt lat="49.363" lon="1.15383">
        <ele>122.71</ele>
        <time>2013-05-05T09:50:12Z</time>
      </trkpt>
      <trkpt lat="49.36325" lon="1.15398">
        <ele>124.15</ele>
        <time>2013-05-05T09:50:24Z</time>
      </trkpt>
      <trkpt lat="49.36353" lon="1.15414">
        <ele>125.59</ele>
        <time>2013-05-05T09:50:38Z</time>
      </trkpt>
      <trkpt lat="49.36371" lon="1.15426">
        <ele>127.03</ele>
        <time>2013-05-05T09:50:48Z</time>
      </trkpt>
      <trkpt lat="49.36373" lon="1.15429">
        <ele>127.03</ele>
        <time>2013-05-05T09:50:49Z</time>
      </trkpt>
      <trkpt lat="49.36394" lon="1.15458">
        <ele>127.03</ele>
        <time>2013-05-05T09:50:57Z</time>
      </trkpt>
      <trkpt lat="49.36397" lon="1.15462">
        <ele>127.03</ele>
        <time>2013-05-05T09:50:58Z</time>
      </trkpt>
      <trkpt lat="49.36433" lon="1.1548">
        <ele>127.03</ele>
        <time>2013-05-05T09:51:08Z</time>
      </trkpt>
      <trkpt lat="49.36464" lon="1.15432">
        <ele>127.51</ele>
        <time>2013-05-05T09:51:19Z</time>
      </trkpt>
      <trkpt lat="49.36494" lon="1.15408">
        <ele>130.4</ele>
        <time>2013-05-05T09:51:30Z</time>
      </trkpt>
      <trkpt lat="49.36525" lon="1.15394">
        <ele>131.36</ele>
        <time>2013-05-05T09:51:42Z</time>
      </trkpt>
      <trkpt lat="49.36527" lon="1.15393">
        <ele>131.36</ele>
        <time>2013-05-05T09:51:43Z</time>
      </trkpt>
      <trkpt lat="49.36532" lon="1.15368">
        <ele>130.88</ele>
        <time>2013-05-05T09:51:51Z</time>
      </trkpt>
      <trkpt lat="49.36548" lon="1.15306">
        <ele>127.99</ele>
        <time>2013-05-05T09:52:02Z</time>
      </trkpt>
      <trkpt lat="49.36561" lon="1.15283">
        <ele>124.63</ele>
        <time>2013-05-05T09:52:07Z</time>
      </trkpt>
      <trkpt lat="49.36571" lon="1.15268">
        <ele>121.74</ele>
        <time>2013-05-05T09:52:10Z</time>
      </trkpt>
      <trkpt lat="49.36584" lon="1.15238">
        <ele>115.98</ele>
        <time>2013-05-05T09:52:14Z</time>
      </trkpt>
      <trkpt lat="49.36587" lon="1.1523">
        <ele>114.05</ele>
        <time>2013-05-05T09:52:15Z</time>
      </trkpt>
      <trkpt lat="49.36598" lon="1.15197">
        <ele>110.21</ele>
        <time>2013-05-05T09:52:19Z</time>
      </trkpt>
      <trkpt lat="49.36615" lon="1.15182">
        <ele>107.32</ele>
        <time>2013-05-05T09:52:24Z</time>
      </trkpt>
      <trkpt lat="49.36631" lon="1.15176">
        <ele>106.84</ele>
        <time>2013-05-05T09:52:28Z</time>
      </trkpt>
      <trkpt lat="49.36644" lon="1.15155">
        <ele>107.81</ele>
        <time>2013-05-05T09:52:33Z</time>
      </trkpt>
      <trkpt lat="49.36663" lon="1.15106">
        <ele>111.17</ele>
        <time>2013-05-05T09:52:45Z</time>
      </trkpt>
      <trkpt lat="49.36666" lon="1.15097">
        <ele>111.65</ele>
        <time>2013-05-05T09:52:47Z</time>
      </trkpt>
      <trkpt lat="49.36671" lon="1.15087">
        <ele>112.61</ele>
        <time>2013-05-05T09:52:50Z</time>
      </trkpt>
      <trkpt lat="49.36673" lon="1.15083">
        <ele>112.61</ele>
        <time>2013-05-05T09:52:51Z</time>
      </trkpt>
      <trkpt lat="49.36674" lon="1.15079">
        <ele>112.61</ele>
        <time>2013-05-05T09:52:52Z</time>
      </trkpt>
      <trkpt lat="49.36675" lon="1.15075">
        <ele>113.09</ele>
        <time>2013-05-05T09:52:53Z</time>
      </trkpt>
      <trkpt lat="49.36677" lon="1.15071">
        <ele>113.09</ele>
        <time>2013-05-05T09:52:54Z</time>
      </trkpt>
      <trkpt lat="49.36686" lon="1.15051">
        <ele>115.5</ele>
        <time>2013-05-05T09:53:04Z</time>
      </trkpt>
      <trkpt lat="49.3669" lon="1.15048">
        <ele>115.5</ele>
        <time>2013-05-05T09:53:22Z</time>
      </trkpt>
      <trkpt lat="49.36701" lon="1.15031">
        <ele>118.38</ele>
        <time>2013-05-05T09:53:34Z</time>
      </trkpt>
      <trkpt lat="49.36712" lon="1.15009">
        <ele>120.3</ele>
        <time>2013-05-05T09:53:45Z</time>
      </trkpt>
      <trkpt lat="49.36721" lon="1.14994">
        <ele>122.22</ele>
        <time>2013-05-05T09:53:52Z</time>
      </trkpt>
      <trkpt lat="49.36735" lon="1.14962">
        <ele>124.15</ele>
        <time>2013-05-05T09:54:05Z</time>
      </trkpt>
      <trkpt lat="49.36741" lon="1.14947">
        <ele>125.11</ele>
        <time>2013-05-05T09:54:11Z</time>
      </trkpt>
      <trkpt lat="49.36746" lon="1.14941">
        <ele>125.59</ele>
        <time>2013-05-05T09:54:15Z</time>
      </trkpt>
      <trkpt lat="49.36771" lon="1.1489">
        <ele>127.03</ele>
        <time>2013-05-05T09:54:30Z</time>
      </trkpt>
      <trkpt lat="49.368" lon="1.14856">
        <ele>127.99</ele>
        <time>2013-05-05T09:54:42Z</time>
      </trkpt>
      <trkpt lat="49.36832" lon="1.14825">
        <ele>127.99</ele>
        <time>2013-05-05T09:54:51Z</time>
      </trkpt>
      <trkpt lat="49.36871" lon="1.14776">
        <ele>126.55</ele>
        <time>2013-05-05T09:55:01Z</time>
      </trkpt>
      <trkpt lat="49.36875" lon="1.1477">
        <ele>126.55</ele>
        <time>2013-05-05T09:55:02Z</time>
      </trkpt>
      <trkpt lat="49.36879" lon="1.14766">
        <ele>126.07</ele>
        <time>2013-05-05T09:55:03Z</time>
      </trkpt>
      <trkpt lat="49.36884" lon="1.14764">
        <ele>125.59</ele>
        <time>2013-05-05T09:55:04Z</time>
      </trkpt>
      <trkpt lat="49.36889" lon="1.14764">
        <ele>125.59</ele>
        <time>2013-05-05T09:55:05Z</time>
      </trkpt>
      <trkpt lat="49.36895" lon="1.14767">
        <ele>125.11</ele>
        <time>2013-05-05T09:55:06Z</time>
      </trkpt>
      <trkpt lat="49.36899" lon="1.14771">
        <ele>125.11</ele>
        <time>2013-05-05T09:55:07Z</time>
      </trkpt>
      <trkpt lat="49.36904" lon="1.14775">
        <ele>125.11</ele>
        <time>2013-05-05T09:55:08Z</time>
      </trkpt>
      <trkpt lat="49.36942" lon="1.14796">
        <ele>127.03</ele>
        <time>2013-05-05T09:55:16Z</time>
      </trkpt>
      <trkpt lat="49.37001" lon="1.14804">
        <ele>129.43</ele>
        <time>2013-05-05T09:55:28Z</time>
      </trkpt>
      <trkpt lat="49.37005" lon="1.14807">
        <ele>129.43</ele>
        <time>2013-05-05T09:55:29Z</time>
      </trkpt>
      <trkpt lat="49.37038" lon="1.14825">
        <ele>132.8</ele>
        <time>2013-05-05T09:55:39Z</time>
      </trkpt>
      <trkpt lat="49.37039" lon="1.14829">
        <ele>132.8</ele>
        <time>2013-05-05T09:55:40Z</time>
      </trkpt>
      <trkpt lat="49.3704" lon="1.14834">
        <ele>132.8</ele>
        <time>2013-05-05T09:55:41Z</time>
      </trkpt>
      <trkpt lat="49.37038" lon="1.14894">
        <ele>133.76</ele>
        <time>2013-05-05T09:55:51Z</time>
      </trkpt>
      <trkpt lat="49.37034" lon="1.14911">
        <ele>133.76</ele>
        <time>2013-05-05T09:55:54Z</time>
      </trkpt>
      <trkpt lat="49.37032" lon="1.14917">
        <ele>134.24</ele>
        <time>2013-05-05T09:55:55Z</time>
      </trkpt>
      <trkpt lat="49.3703" lon="1.14923">
        <ele>134.24</ele>
        <time>2013-05-05T09:55:56Z</time>
      </trkpt>
      <trkpt lat="49.37029" lon="1.14929">
        <ele>134.24</ele>
        <time>2013-05-05T09:55:57Z</time>
      </trkpt>
      <trkpt lat="49.37029" lon="1.14936">
        <ele>134.24</ele>
        <time>2013-05-05T09:55:58Z</time>
      </trkpt>
      <trkpt lat="49.37029" lon="1.14942">
        <ele>134.72</ele>
        <time>2013-05-05T09:55:59Z</time>
      </trkpt>
      <trkpt lat="49.3703" lon="1.14949">
        <ele>134.24</ele>
        <time>2013-05-05T09:56:00Z</time>
      </trkpt>
      <trkpt lat="49.37031" lon="1.14956">
        <ele>134.72</ele>
        <time>2013-05-05T09:56:01Z</time>
      </trkpt>
      <trkpt lat="49.37033" lon="1.14962">
        <ele>134.72</ele>
        <time>2013-05-05T09:56:02Z</time>
      </trkpt>
      <trkpt lat="49.37061" lon="1.15039">
        <ele>135.68</ele>
        <time>2013-05-05T09:56:15Z</time>
      </trkpt>
      <trkpt lat="49.37064" lon="1.15044">
        <ele>136.16</ele>
        <time>2013-05-05T09:56:16Z</time>
      </trkpt>
      <trkpt lat="49.37071" lon="1.15053">
        <ele>136.16</ele>
        <time>2013-05-05T09:56:18Z</time>
      </trkpt>
      <trkpt lat="49.37103" lon="1.15093">
        <ele>137.13</ele>
        <time>2013-05-05T09:56:27Z</time>
      </trkpt>
      <trkpt lat="49.37106" lon="1.15097">
        <ele>137.13</ele>
        <time>2013-05-05T09:56:28Z</time>
      </trkpt>
      <trkpt lat="49.3711" lon="1.15101">
        <ele>137.13</ele>
        <time>2013-05-05T09:56:29Z</time>
      </trkpt>
      <trkpt lat="49.37115" lon="1.1511">
        <ele>137.13</ele>
        <time>2013-05-05T09:56:31Z</time>
      </trkpt>
      <trkpt lat="49.37118" lon="1.15115">
        <ele>137.13</ele>
        <time>2013-05-05T09:56:32Z</time>
      </trkpt>
      <trkpt lat="49.37135" lon="1.15138">
        <ele>137.61</ele>
        <time>2013-05-05T09:56:37Z</time>
      </trkpt>
      <trkpt lat="49.37149" lon="1.15155">
        <ele>138.09</ele>
        <time>2013-05-05T09:56:41Z</time>
      </trkpt>
      <trkpt lat="49.37199" lon="1.15212">
        <ele>139.53</ele>
        <time>2013-05-05T09:56:55Z</time>
      </trkpt>
      <trkpt lat="49.37247" lon="1.15281">
        <ele>140.49</ele>
        <time>2013-05-05T09:57:10Z</time>
      </trkpt>
      <trkpt lat="49.37251" lon="1.15305">
        <ele>140.49</ele>
        <time>2013-05-05T09:57:14Z</time>
      </trkpt>
      <trkpt lat="49.37249" lon="1.1531">
        <ele>140.97</ele>
        <time>2013-05-05T09:57:15Z</time>
      </trkpt>
      <trkpt lat="49.37246" lon="1.15315">
        <ele>140.97</ele>
        <time>2013-05-05T09:57:16Z</time>
      </trkpt>
      <trkpt lat="49.3721" lon="1.1536">
        <ele>141.45</ele>
        <time>2013-05-05T09:57:26Z</time>
      </trkpt>
      <trkpt lat="49.37206" lon="1.15365">
        <ele>141.45</ele>
        <time>2013-05-05T09:57:27Z</time>
      </trkpt>
      <trkpt lat="49.37202" lon="1.1537">
        <ele>141.45</ele>
        <time>2013-05-05T09:57:28Z</time>
      </trkpt>
      <trkpt lat="49.37198" lon="1.15374">
        <ele>141.45</ele>
        <time>2013-05-05T09:57:29Z</time>
      </trkpt>
      <trkpt lat="49.37194" lon="1.15378">
        <ele>141.45</ele>
        <time>2013-05-05T09:57:30Z</time>
      </trkpt>
      <trkpt lat="49.3719" lon="1.15383">
        <ele>141.45</ele>
        <time>2013-05-05T09:57:31Z</time>
      </trkpt>
      <trkpt lat="49.3711" lon="1.15483">
        <ele>140.49</ele>
        <time>2013-05-05T09:57:50Z</time>
      </trkpt>
      <trkpt lat="49.37058" lon="1.15543">
        <ele>138.57</ele>
        <time>2013-05-05T09:58:01Z</time>
      </trkpt>
      <trkpt lat="49.37046" lon="1.15564">
        <ele>138.09</ele>
        <time>2013-05-05T09:58:04Z</time>
      </trkpt>
      <trkpt lat="49.37041" lon="1.15579">
        <ele>138.09</ele>
        <time>2013-05-05T09:58:06Z</time>
      </trkpt>
      <trkpt lat="49.37026" lon="1.1564">
        <ele>138.09</ele>
        <time>2013-05-05T09:58:14Z</time>
      </trkpt>
      <trkpt lat="49.37025" lon="1.15647">
        <ele>138.09</ele>
        <time>2013-05-05T09:58:15Z</time>
      </trkpt>
      <trkpt lat="49.37014" lon="1.15703">
        <ele>138.57</ele>
        <time>2013-05-05T09:58:23Z</time>
      </trkpt>
      <trkpt lat="49.37005" lon="1.15773">
        <ele>138.09</ele>
        <time>2013-05-05T09:58:32Z</time>
      </trkpt>
      <trkpt lat="49.37003" lon="1.15901">
        <ele>138.57</ele>
        <time>2013-05-05T09:58:48Z</time>
      </trkpt>
      <trkpt lat="49.3701" lon="1.15948">
        <ele>138.57</ele>
        <time>2013-05-05T09:58:58Z</time>
      </trkpt>
      <trkpt lat="49.3701" lon="1.15947">
        <ele>138.57</ele>
        <time>2013-05-05T09:59:24Z</time>
      </trkpt>
      <trkpt lat="49.37011" lon="1.15947">
        <ele>138.57</ele>
        <time>2013-05-05T09:59:25Z</time>
      </trkpt>
      <trkpt lat="49.37012" lon="1.15947">
        <ele>138.57</ele>
        <time>2013-05-05T09:59:26Z</time>
      </trkpt>
      <trkpt lat="49.37012" lon="1.15945">
        <ele>138.57</ele>
        <time>2013-05-05T09:59:27Z</time>
      </trkpt>
      <trkpt lat="49.37012" lon="1.15941">
        <ele>138.57</ele>
        <time>2013-05-05T09:59:28Z</time>
      </trkpt>
      <trkpt lat="49.3701" lon="1.15937">
        <ele>138.57</ele>
        <time>2013-05-05T09:59:29Z</time>
      </trkpt>
      <trkpt lat="49.37008" lon="1.15932">
        <ele>138.57</ele>
        <time>2013-05-05T09:59:30Z</time>
      </trkpt>
      <trkpt lat="49.37007" lon="1.15926">
        <ele>138.57</ele>
        <time>2013-05-05T09:59:31Z</time>
      </trkpt>
      <trkpt lat="49.37006" lon="1.1592">
        <ele>138.57</ele>
        <time>2013-05-05T09:59:32Z</time>
      </trkpt>
      <trkpt lat="49.37006" lon="1.15913">
        <ele>138.09</ele>
        <time>2013-05-05T09:59:33Z</time>
      </trkpt>
      <trkpt lat="49.37004" lon="1.15802">
        <ele>138.09</ele>
        <time>2013-05-05T09:59:47Z</time>
      </trkpt>
      <trkpt lat="49.37005" lon="1.15794">
        <ele>138.09</ele>
        <time>2013-05-05T09:59:48Z</time>
      </trkpt>
      <trkpt lat="49.37023" lon="1.15663">
        <ele>138.57</ele>
        <time>2013-05-05T10:00:04Z</time>
      </trkpt>
      <trkpt lat="49.37033" lon="1.15615">
        <ele>138.09</ele>
        <time>2013-05-05T10:00:10Z</time>
      </trkpt>
      <trkpt lat="49.37042" lon="1.15577">
        <ele>137.61</ele>
        <time>2013-05-05T10:00:15Z</time>
      </trkpt>
      <trkpt lat="49.37044" lon="1.15572">
        <ele>138.09</ele>
        <time>2013-05-05T10:00:16Z</time>
      </trkpt>
      <trkpt lat="49.37046" lon="1.15569">
        <ele>137.61</ele>
        <time>2013-05-05T10:00:17Z</time>
      </trkpt>
      <trkpt lat="49.37048" lon="1.15568">
        <ele>137.61</ele>
        <time>2013-05-05T10:00:18Z</time>
      </trkpt>
      <trkpt lat="49.37049" lon="1.15567">
        <ele>137.61</ele>
        <time>2013-05-05T10:00:19Z</time>
      </trkpt>
      <trkpt lat="49.37051" lon="1.15567">
        <ele>137.61</ele>
        <time>2013-05-05T10:00:20Z</time>
      </trkpt>
      <trkpt lat="49.37052" lon="1.15567">
        <ele>137.61</ele>
        <time>2013-05-05T10:00:21Z</time>
      </trkpt>
      <trkpt lat="49.37066" lon="1.15569">
        <ele>138.57</ele>
        <time>2013-05-05T10:00:32Z</time>
      </trkpt>
      <trkpt lat="49.37091" lon="1.15568">
        <ele>139.05</ele>
        <time>2013-05-05T10:00:42Z</time>
      </trkpt>
      <trkpt lat="49.37157" lon="1.1558">
        <ele>141.93</ele>
        <time>2013-05-05T10:01:00Z</time>
      </trkpt>
      <trkpt lat="49.37199" lon="1.15597">
        <ele>143.37</ele>
        <time>2013-05-05T10:01:12Z</time>
      </trkpt>
      <trkpt lat="49.37255" lon="1.15627">
        <ele>145.78</ele>
        <time>2013-05-05T10:01:29Z</time>
      </trkpt>
      <trkpt lat="49.37301" lon="1.15686">
        <ele>147.22</ele>
        <time>2013-05-05T10:01:45Z</time>
      </trkpt>
      <trkpt lat="49.37321" lon="1.15738">
        <ele>147.7</ele>
        <time>2013-05-05T10:01:55Z</time>
      </trkpt>
      <trkpt lat="49.37351" lon="1.15728">
        <ele>147.7</ele>
        <time>2013-05-05T10:02:03Z</time>
      </trkpt>
      <trkpt lat="49.37416" lon="1.15688">
        <ele>146.74</ele>
        <time>2013-05-05T10:02:18Z</time>
      </trkpt>
      <trkpt lat="49.37491" lon="1.15648">
        <ele>146.26</ele>
        <time>2013-05-05T10:02:33Z</time>
      </trkpt>
      <trkpt lat="49.37502" lon="1.15645">
        <ele>145.78</ele>
        <time>2013-05-05T10:02:35Z</time>
      </trkpt>
      <trkpt lat="49.37603" lon="1.15668">
        <ele>144.34</ele>
        <time>2013-05-05T10:02:52Z</time>
      </trkpt>
      <trkpt lat="49.37651" lon="1.15688">
        <ele>143.37</ele>
        <time>2013-05-05T10:03:00Z</time>
      </trkpt>
      <trkpt lat="49.37668" lon="1.15709">
        <ele>142.89</ele>
        <time>2013-05-05T10:03:04Z</time>
      </trkpt>
      <trkpt lat="49.377" lon="1.15853">
        <ele>144.82</ele>
        <time>2013-05-05T10:03:23Z</time>
      </trkpt>
      <trkpt lat="49.37705" lon="1.15874">
        <ele>145.3</ele>
        <time>2013-05-05T10:03:26Z</time>
      </trkpt>
      <trkpt lat="49.3773" lon="1.15986">
        <ele>146.74</ele>
        <time>2013-05-05T10:03:43Z</time>
      </trkpt>
      <trkpt lat="49.37757" lon="1.16103">
        <ele>147.22</ele>
        <time>2013-05-05T10:04:01Z</time>
      </trkpt>
      <trkpt lat="49.37761" lon="1.16121">
        <ele>147.22</ele>
        <time>2013-05-05T10:04:04Z</time>
      </trkpt>
      <trkpt lat="49.37766" lon="1.16129">
        <ele>147.22</ele>
        <time>2013-05-05T10:04:06Z</time>
      </trkpt>
      <trkpt lat="49.37769" lon="1.1613">
        <ele>147.22</ele>
        <time>2013-05-05T10:04:07Z</time>
      </trkpt>
      <trkpt lat="49.37771" lon="1.16127">
        <ele>147.22</ele>
        <time>2013-05-05T10:04:08Z</time>
      </trkpt>
      <trkpt lat="49.37774" lon="1.16123">
        <ele>146.74</ele>
        <time>2013-05-05T10:04:09Z</time>
      </trkpt>
      <trkpt lat="49.37776" lon="1.16117">
        <ele>146.74</ele>
        <time>2013-05-05T10:04:10Z</time>
      </trkpt>
      <trkpt lat="49.37782" lon="1.16104">
        <ele>146.26</ele>
        <time>2013-05-05T10:04:12Z</time>
      </trkpt>
      <trkpt lat="49.37785" lon="1.16098">
        <ele>145.78</ele>
        <time>2013-05-05T10:04:13Z</time>
      </trkpt>
      <trkpt lat="49.37788" lon="1.1609">
        <ele>145.3</ele>
        <time>2013-05-05T10:04:14Z</time>
      </trkpt>
      <trkpt lat="49.37801" lon="1.16058">
        <ele>143.85</ele>
        <time>2013-05-05T10:04:18Z</time>
      </trkpt>
      <trkpt lat="49.37805" lon="1.16051">
        <ele>143.85</ele>
        <time>2013-05-05T10:04:19Z</time>
      </trkpt>
      <trkpt lat="49.37852" lon="1.15993">
        <ele>143.85</ele>
        <time>2013-05-05T10:04:31Z</time>
      </trkpt>
      <trkpt lat="49.3791" lon="1.15923">
        <ele>143.37</ele>
        <time>2013-05-05T10:04:45Z</time>
      </trkpt>
      <trkpt lat="49.37922" lon="1.1591">
        <ele>143.37</ele>
        <time>2013-05-05T10:04:48Z</time>
      </trkpt>
      <trkpt lat="49.37962" lon="1.1585">
        <ele>144.34</ele>
        <time>2013-05-05T10:05:00Z</time>
      </trkpt>
      <trkpt lat="49.38007" lon="1.15792">
        <ele>144.82</ele>
        <time>2013-05-05T10:05:13Z</time>
      </trkpt>
      <trkpt lat="49.3801" lon="1.15788">
        <ele>144.82</ele>
        <time>2013-05-05T10:05:14Z</time>
      </trkpt>
      <trkpt lat="49.38014" lon="1.15784">
        <ele>144.34</ele>
        <time>2013-05-05T10:05:15Z</time>
      </trkpt>
      <trkpt lat="49.38018" lon="1.15782">
        <ele>144.34</ele>
        <time>2013-05-05T10:05:16Z</time>
      </trkpt>
      <trkpt lat="49.38022" lon="1.15779">
        <ele>144.34</ele>
        <time>2013-05-05T10:05:17Z</time>
      </trkpt>
      <trkpt lat="49.38027" lon="1.15778">
        <ele>144.82</ele>
        <time>2013-05-05T10:05:18Z</time>
      </trkpt>
      <trkpt lat="49.38031" lon="1.15777">
        <ele>144.82</ele>
        <time>2013-05-05T10:05:19Z</time>
      </trkpt>
      <trkpt lat="49.38049" lon="1.15776">
        <ele>144.82</ele>
        <time>2013-05-05T10:05:25Z</time>
      </trkpt>
      <trkpt lat="49.38052" lon="1.15774">
        <ele>144.34</ele>
        <time>2013-05-05T10:05:26Z</time>
      </trkpt>
      <trkpt lat="49.38055" lon="1.15773">
        <ele>144.34</ele>
        <time>2013-05-05T10:05:27Z</time>
      </trkpt>
      <trkpt lat="49.38124" lon="1.15766">
        <ele>145.78</ele>
        <time>2013-05-05T10:05:45Z</time>
      </trkpt>
      <trkpt lat="49.38132" lon="1.15766">
        <ele>146.26</ele>
        <time>2013-05-05T10:05:47Z</time>
      </trkpt>
      <trkpt lat="49.38173" lon="1.15768">
        <ele>145.78</ele>
        <time>2013-05-05T10:05:57Z</time>
      </trkpt>
      <trkpt lat="49.38177" lon="1.15769">
        <ele>145.78</ele>
        <time>2013-05-05T10:05:58Z</time>
      </trkpt>
      <trkpt lat="49.38193" lon="1.15771">
        <ele>145.78</ele>
        <time>2013-05-05T10:06:02Z</time>
      </trkpt>
      <trkpt lat="49.38263" lon="1.15773">
        <ele>145.78</ele>
        <time>2013-05-05T10:06:20Z</time>
      </trkpt>
      <trkpt lat="49.38295" lon="1.15768">
        <ele>145.78</ele>
        <time>2013-05-05T10:06:28Z</time>
      </trkpt>
      <trkpt lat="49.38312" lon="1.15763">
        <ele>145.3</ele>
        <time>2013-05-05T10:06:32Z</time>
      </trkpt>
      <trkpt lat="49.38326" lon="1.15759">
        <ele>145.3</ele>
        <time>2013-05-05T10:06:35Z</time>
      </trkpt>
      <trkpt lat="49.3833" lon="1.15758">
        <ele>145.3</ele>
        <time>2013-05-05T10:06:36Z</time>
      </trkpt>
      <trkpt lat="49.38394" lon="1.15774">
        <ele>146.26</ele>
        <time>2013-05-05T10:06:51Z</time>
      </trkpt>
      <trkpt lat="49.38467" lon="1.15793">
        <ele>145.3</ele>
        <time>2013-05-05T10:07:07Z</time>
      </trkpt>
      <trkpt lat="49.38501" lon="1.15804">
        <ele>143.85</ele>
        <time>2013-05-05T10:07:15Z</time>
      </trkpt>
      <trkpt lat="49.38555" lon="1.15827">
        <ele>142.89</ele>
        <time>2013-05-05T10:07:28Z</time>
      </trkpt>
      <trkpt lat="49.38588" lon="1.15837">
        <ele>141.45</ele>
        <time>2013-05-05T10:07:39Z</time>
      </trkpt>
      <trkpt lat="49.38589" lon="1.15839">
        <ele>141.45</ele>
        <time>2013-05-05T10:07:59Z</time>
      </trkpt>
      <trkpt lat="49.38607" lon="1.15847">
        <ele>140.49</ele>
        <time>2013-05-05T10:08:07Z</time>
      </trkpt>
      <trkpt lat="49.38638" lon="1.15853">
        <ele>138.09</ele>
        <time>2013-05-05T10:08:14Z</time>
      </trkpt>
      <trkpt lat="49.38653" lon="1.15854">
        <ele>135.2</ele>
        <time>2013-05-05T10:08:18Z</time>
      </trkpt>
      <trkpt lat="49.3866" lon="1.15849">
        <ele>132.32</ele>
        <time>2013-05-05T10:08:20Z</time>
      </trkpt>
      <trkpt lat="49.38672" lon="1.15844">
        <ele>128.95</ele>
        <time>2013-05-05T10:08:23Z</time>
      </trkpt>
      <trkpt lat="49.38687" lon="1.15859">
        <ele>124.15</ele>
        <time>2013-05-05T10:08:27Z</time>
      </trkpt>
      <trkpt lat="49.38692" lon="1.15871">
        <ele>122.22</ele>
        <time>2013-05-05T10:08:29Z</time>
      </trkpt>
      <trkpt lat="49.38698" lon="1.15883">
        <ele>119.82</ele>
        <time>2013-05-05T10:08:31Z</time>
      </trkpt>
      <trkpt lat="49.38712" lon="1.15904">
        <ele>115.98</ele>
        <time>2013-05-05T10:08:35Z</time>
      </trkpt>
      <trkpt lat="49.38716" lon="1.1591">
        <ele>114.53</ele>
        <time>2013-05-05T10:08:36Z</time>
      </trkpt>
      <trkpt lat="49.38731" lon="1.15931">
        <ele>110.69</ele>
        <time>2013-05-05T10:08:40Z</time>
      </trkpt>
      <trkpt lat="49.38735" lon="1.15936">
        <ele>109.73</ele>
        <time>2013-05-05T10:08:41Z</time>
      </trkpt>
      <trkpt lat="49.38745" lon="1.15949">
        <ele>105.88</ele>
        <time>2013-05-05T10:08:44Z</time>
      </trkpt>
      <trkpt lat="49.38759" lon="1.15965">
        <ele>101.56</ele>
        <time>2013-05-05T10:08:48Z</time>
      </trkpt>
      <trkpt lat="49.38762" lon="1.1597">
        <ele>100.6</ele>
        <time>2013-05-05T10:08:49Z</time>
      </trkpt>
      <trkpt lat="49.3877" lon="1.15981">
        <ele>98.19</ele>
        <time>2013-05-05T10:08:51Z</time>
      </trkpt>
      <trkpt lat="49.38787" lon="1.16004">
        <ele>92.9</ele>
        <time>2013-05-05T10:08:55Z</time>
      </trkpt>
      <trkpt lat="49.38801" lon="1.16015">
        <ele>90.02</ele>
        <time>2013-05-05T10:08:58Z</time>
      </trkpt>
      <trkpt lat="49.38823" lon="1.16033">
        <ele>84.25</ele>
        <time>2013-05-05T10:09:03Z</time>
      </trkpt>
      <trkpt lat="49.38831" lon="1.16042">
        <ele>83.29</ele>
        <time>2013-05-05T10:09:05Z</time>
      </trkpt>
      <trkpt lat="49.38839" lon="1.16054">
        <ele>84.25</ele>
        <time>2013-05-05T10:09:07Z</time>
      </trkpt>
      <trkpt lat="49.3887" lon="1.16113">
        <ele>86.66</ele>
        <time>2013-05-05T10:09:18Z</time>
      </trkpt>
      <trkpt lat="49.38899" lon="1.16141">
        <ele>88.1</ele>
        <time>2013-05-05T10:09:28Z</time>
      </trkpt>
      <trkpt lat="49.38911" lon="1.16153">
        <ele>88.58</ele>
        <time>2013-05-05T10:09:32Z</time>
      </trkpt>
      <trkpt lat="49.38938" lon="1.16194">
        <ele>89.54</ele>
        <time>2013-05-05T10:09:44Z</time>
      </trkpt>
      <trkpt lat="49.38963" lon="1.16242">
        <ele>91.46</ele>
        <time>2013-05-05T10:09:56Z</time>
      </trkpt>
      <trkpt lat="49.38991" lon="1.1628">
        <ele>91.94</ele>
        <time>2013-05-05T10:10:07Z</time>
      </trkpt>
      <trkpt lat="49.39017" lon="1.16315">
        <ele>93.39</ele>
        <time>2013-05-05T10:10:19Z</time>
      </trkpt>
      <trkpt lat="49.39019" lon="1.16317">
        <ele>93.39</ele>
        <time>2013-05-05T10:10:20Z</time>
      </trkpt>
      <trkpt lat="49.39028" lon="1.16311">
        <ele>94.35</ele>
        <time>2013-05-05T10:10:28Z</time>
      </trkpt>
      <trkpt lat="49.39025" lon="1.16306">
        <ele>93.87</ele>
        <time>2013-05-05T10:10:58Z</time>
      </trkpt>
      <trkpt lat="49.39026" lon="1.16307">
        <ele>94.35</ele>
        <time>2013-05-05T10:11:23Z</time>
      </trkpt>
      <trkpt lat="49.39023" lon="1.16305">
        <ele>94.35</ele>
        <time>2013-05-05T10:11:27Z</time>
      </trkpt>
      <trkpt lat="49.3902" lon="1.16295">
        <ele>96.27</ele>
        <time>2013-05-05T10:11:34Z</time>
      </trkpt>
      <trkpt lat="49.39007" lon="1.16261">
        <ele>99.63</ele>
        <time>2013-05-05T10:11:48Z</time>
      </trkpt>
      <trkpt lat="49.38995" lon="1.1623">
        <ele>101.56</ele>
        <time>2013-05-05T10:12:00Z</time>
      </trkpt>
      <trkpt lat="49.38979" lon="1.16193">
        <ele>103.48</ele>
        <time>2013-05-05T10:12:14Z</time>
      </trkpt>
      <trkpt lat="49.38974" lon="1.16182">
        <ele>104.44</ele>
        <time>2013-05-05T10:12:18Z</time>
      </trkpt>
      <trkpt lat="49.38966" lon="1.16154">
        <ele>106.36</ele>
        <time>2013-05-05T10:12:30Z</time>
      </trkpt>
      <trkpt lat="49.38957" lon="1.16138">
        <ele>108.29</ele>
        <time>2013-05-05T10:12:39Z</time>
      </trkpt>
      <trkpt lat="49.38936" lon="1.16094">
        <ele>111.17</ele>
        <time>2013-05-05T10:12:53Z</time>
      </trkpt>
      <trkpt lat="49.38935" lon="1.16091">
        <ele>111.17</ele>
        <time>2013-05-05T10:12:54Z</time>
      </trkpt>
      <trkpt lat="49.38921" lon="1.16061">
        <ele>114.53</ele>
        <time>2013-05-05T10:13:08Z</time>
      </trkpt>
      <trkpt lat="49.38916" lon="1.16042">
        <ele>116.46</ele>
        <time>2013-05-05T10:13:16Z</time>
      </trkpt>
      <trkpt lat="49.38913" lon="1.16008">
        <ele>118.38</ele>
        <time>2013-05-05T10:13:30Z</time>
      </trkpt>
      <trkpt lat="49.38918" lon="1.15967">
        <ele>119.34</ele>
        <time>2013-05-05T10:13:41Z</time>
      </trkpt>
      <trkpt lat="49.38923" lon="1.15946">
        <ele>121.26</ele>
        <time>2013-05-05T10:13:53Z</time>
      </trkpt>
      <trkpt lat="49.38929" lon="1.15932">
        <ele>124.15</ele>
        <time>2013-05-05T10:14:06Z</time>
      </trkpt>
      <trkpt lat="49.38931" lon="1.15922">
        <ele>125.59</ele>
        <time>2013-05-05T10:14:18Z</time>
      </trkpt>
      <trkpt lat="49.38938" lon="1.15911">
        <ele>127.99</ele>
        <time>2013-05-05T10:14:32Z</time>
      </trkpt>
      <trkpt lat="49.38938" lon="1.15903">
        <ele>128.95</ele>
        <time>2013-05-05T10:14:51Z</time>
      </trkpt>
      <trkpt lat="49.38947" lon="1.15893">
        <ele>131.84</ele>
        <time>2013-05-05T10:15:08Z</time>
      </trkpt>
      <trkpt lat="49.38956" lon="1.15886">
        <ele>134.72</ele>
        <time>2013-05-05T10:15:20Z</time>
      </trkpt>
      <trkpt lat="49.38963" lon="1.15885">
        <ele>137.13</ele>
        <time>2013-05-05T10:15:33Z</time>
      </trkpt>
      <trkpt lat="49.38969" lon="1.15878">
        <ele>137.61</ele>
        <time>2013-05-05T10:16:02Z</time>
      </trkpt>
      <trkpt lat="49.38974" lon="1.1588">
        <ele>138.57</ele>
        <time>2013-05-05T10:16:24Z</time>
      </trkpt>
      <trkpt lat="49.38986" lon="1.15888">
        <ele>140.97</ele>
        <time>2013-05-05T10:16:39Z</time>
      </trkpt>
      <trkpt lat="49.3899" lon="1.15889">
        <ele>141.93</ele>
        <time>2013-05-05T10:16:46Z</time>
      </trkpt>
      <trkpt lat="49.39009" lon="1.15876">
        <ele>142.41</ele>
        <time>2013-05-05T10:16:58Z</time>
      </trkpt>
      <trkpt lat="49.39035" lon="1.15855">
        <ele>143.37</ele>
        <time>2013-05-05T10:17:11Z</time>
      </trkpt>
      <trkpt lat="49.39066" lon="1.1583">
        <ele>144.34</ele>
        <time>2013-05-05T10:17:27Z</time>
      </trkpt>
      <trkpt lat="49.39099" lon="1.15804">
        <ele>144.82</ele>
        <time>2013-05-05T10:17:43Z</time>
      </trkpt>
      <trkpt lat="49.39129" lon="1.1578">
        <ele>145.3</ele>
        <time>2013-05-05T10:17:56Z</time>
      </trkpt>
      <trkpt lat="49.39159" lon="1.15755">
        <ele>146.26</ele>
        <time>2013-05-05T10:18:11Z</time>
      </trkpt>
      <trkpt lat="49.39177" lon="1.15743">
        <ele>146.26</ele>
        <time>2013-05-05T10:18:23Z</time>
      </trkpt>
      <trkpt lat="49.39216" lon="1.15706">
        <ele>147.7</ele>
        <time>2013-05-05T10:18:36Z</time>
      </trkpt>
      <trkpt lat="49.39253" lon="1.15667">
        <ele>149.62</ele>
        <time>2013-05-05T10:18:51Z</time>
      </trkpt>
      <trkpt lat="49.39282" lon="1.15625">
        <ele>151.54</ele>
        <time>2013-05-05T10:19:04Z</time>
      </trkpt>
      <trkpt lat="49.39324" lon="1.15575">
        <ele>153.47</ele>
        <time>2013-05-05T10:19:21Z</time>
      </trkpt>
      <trkpt lat="49.39374" lon="1.15521">
        <ele>154.43</ele>
        <time>2013-05-05T10:19:38Z</time>
      </trkpt>
      <trkpt lat="49.39429" lon="1.15465">
        <ele>155.39</ele>
        <time>2013-05-05T10:19:55Z</time>
      </trkpt>
      <trkpt lat="49.39463" lon="1.15434">
        <ele>155.39</ele>
        <time>2013-05-05T10:20:08Z</time>
      </trkpt>
      <trkpt lat="49.39509" lon="1.15392">
        <ele>154.91</ele>
        <time>2013-05-05T10:20:23Z</time>
      </trkpt>
      <trkpt lat="49.39551" lon="1.15359">
        <ele>155.39</ele>
        <time>2013-05-05T10:20:36Z</time>
      </trkpt>
      <trkpt lat="49.39621" lon="1.15303">
        <ele>154.91</ele>
        <time>2013-05-05T10:20:53Z</time>
      </trkpt>
      <trkpt lat="49.397" lon="1.15222">
        <ele>151.54</ele>
        <time>2013-05-05T10:21:10Z</time>
      </trkpt>
      <trkpt lat="49.39766" lon="1.15151">
        <ele>148.66</ele>
        <time>2013-05-05T10:21:24Z</time>
      </trkpt>
      <trkpt lat="49.39789" lon="1.15122">
        <ele>146.26</ele>
        <time>2013-05-05T10:21:30Z</time>
      </trkpt>
      <trkpt lat="49.3979" lon="1.15115">
        <ele>146.26</ele>
        <time>2013-05-05T10:21:31Z</time>
      </trkpt>
      <trkpt lat="49.39791" lon="1.151">
        <ele>145.78</ele>
        <time>2013-05-05T10:21:33Z</time>
      </trkpt>
      <trkpt lat="49.3979" lon="1.15093">
        <ele>145.78</ele>
        <time>2013-05-05T10:21:34Z</time>
      </trkpt>
      <trkpt lat="49.3979" lon="1.15085">
        <ele>145.78</ele>
        <time>2013-05-05T10:21:35Z</time>
      </trkpt>
      <trkpt lat="49.39788" lon="1.15077">
        <ele>145.3</ele>
        <time>2013-05-05T10:21:36Z</time>
      </trkpt>
      <trkpt lat="49.39786" lon="1.1507">
        <ele>145.3</ele>
        <time>2013-05-05T10:21:37Z</time>
      </trkpt>
      <trkpt lat="49.39784" lon="1.15061">
        <ele>144.82</ele>
        <time>2013-05-05T10:21:38Z</time>
      </trkpt>
      <trkpt lat="49.39783" lon="1.15053">
        <ele>144.82</ele>
        <time>2013-05-05T10:21:39Z</time>
      </trkpt>
      <trkpt lat="49.39781" lon="1.15044">
        <ele>144.82</ele>
        <time>2013-05-05T10:21:40Z</time>
      </trkpt>
      <trkpt lat="49.39775" lon="1.15007">
        <ele>143.37</ele>
        <time>2013-05-05T10:21:45Z</time>
      </trkpt>
      <trkpt lat="49.39776" lon="1.15">
        <ele>143.37</ele>
        <time>2013-05-05T10:21:46Z</time>
      </trkpt>
      <trkpt lat="49.39777" lon="1.14993">
        <ele>143.37</ele>
        <time>2013-05-05T10:21:47Z</time>
      </trkpt>
      <trkpt lat="49.39777" lon="1.14986">
        <ele>143.37</ele>
        <time>2013-05-05T10:21:48Z</time>
      </trkpt>
      <trkpt lat="49.39777" lon="1.14979">
        <ele>142.89</ele>
        <time>2013-05-05T10:21:49Z</time>
      </trkpt>
      <trkpt lat="49.39776" lon="1.14971">
        <ele>142.89</ele>
        <time>2013-05-05T10:21:50Z</time>
      </trkpt>
      <trkpt lat="49.39773" lon="1.14966">
        <ele>142.89</ele>
        <time>2013-05-05T10:21:51Z</time>
      </trkpt>
      <trkpt lat="49.39769" lon="1.14962">
        <ele>142.89</ele>
        <time>2013-05-05T10:21:52Z</time>
      </trkpt>
      <trkpt lat="49.39764" lon="1.1496">
        <ele>142.89</ele>
        <time>2013-05-05T10:21:53Z</time>
      </trkpt>
      <trkpt lat="49.39759" lon="1.14961">
        <ele>142.41</ele>
        <time>2013-05-05T10:21:54Z</time>
      </trkpt>
      <trkpt lat="49.39754" lon="1.14963">
        <ele>142.41</ele>
        <time>2013-05-05T10:21:55Z</time>
      </trkpt>
      <trkpt lat="49.3975" lon="1.14965">
        <ele>142.41</ele>
        <time>2013-05-05T10:21:56Z</time>
      </trkpt>
      <trkpt lat="49.39718" lon="1.14953">
        <ele>142.89</ele>
        <time>2013-05-05T10:22:05Z</time>
      </trkpt>
      <trkpt lat="49.397" lon="1.14933">
        <ele>142.41</ele>
        <time>2013-05-05T10:22:10Z</time>
      </trkpt>
      <trkpt lat="49.39656" lon="1.14866">
        <ele>139.05</ele>
        <time>2013-05-05T10:22:23Z</time>
      </trkpt>
      <trkpt lat="49.39652" lon="1.1486">
        <ele>145.3</ele>
        <time>2013-05-05T10:22:24Z</time>
      </trkpt>
      <trkpt lat="49.39649" lon="1.14855">
        <ele>142.41</ele>
        <time>2013-05-05T10:22:25Z</time>
      </trkpt>
      <trkpt lat="49.39643" lon="1.14846">
        <ele>142.41</ele>
        <time>2013-05-05T10:22:27Z</time>
      </trkpt>
      <trkpt lat="49.39643" lon="1.14842">
        <ele>141.93</ele>
        <time>2013-05-05T10:22:28Z</time>
      </trkpt>
      <trkpt lat="49.39654" lon="1.14827">
        <ele>140.97</ele>
        <time>2013-05-05T10:22:36Z</time>
      </trkpt>
      <trkpt lat="49.39658" lon="1.14815">
        <ele>137.61</ele>
        <time>2013-05-05T10:22:42Z</time>
      </trkpt>
      <trkpt lat="49.39659" lon="1.14803">
        <ele>133.76</ele>
        <time>2013-05-05T10:22:46Z</time>
      </trkpt>
      <trkpt lat="49.3966" lon="1.14799">
        <ele>131.84</ele>
        <time>2013-05-05T10:22:47Z</time>
      </trkpt>
      <trkpt lat="49.39661" lon="1.14774">
        <ele>127.51</ele>
        <time>2013-05-05T10:22:52Z</time>
      </trkpt>
      <trkpt lat="49.39663" lon="1.14768">
        <ele>126.55</ele>
        <time>2013-05-05T10:22:53Z</time>
      </trkpt>
      <trkpt lat="49.3967" lon="1.14733">
        <ele>121.74</ele>
        <time>2013-05-05T10:22:58Z</time>
      </trkpt>
      <trkpt lat="49.39671" lon="1.14725">
        <ele>120.78</ele>
        <time>2013-05-05T10:22:59Z</time>
      </trkpt>
      <trkpt lat="49.39679" lon="1.14678">
        <ele>115.98</ele>
        <time>2013-05-05T10:23:05Z</time>
      </trkpt>
      <trkpt lat="49.39683" lon="1.14661">
        <ele>115.01</ele>
        <time>2013-05-05T10:23:07Z</time>
      </trkpt>
      <trkpt lat="49.39683" lon="1.14644">
        <ele>114.05</ele>
        <time>2013-05-05T10:23:09Z</time>
      </trkpt>
      <trkpt lat="49.39681" lon="1.14556">
        <ele>110.21</ele>
        <time>2013-05-05T10:23:17Z</time>
      </trkpt>
      <trkpt lat="49.39682" lon="1.14533">
        <ele>109.25</ele>
        <time>2013-05-05T10:23:19Z</time>
      </trkpt>
      <trkpt lat="49.39686" lon="1.14501">
        <ele>107.81</ele>
        <time>2013-05-05T10:23:22Z</time>
      </trkpt>
      <trkpt lat="49.3969" lon="1.1447">
        <ele>104.92</ele>
        <time>2013-05-05T10:23:25Z</time>
      </trkpt>
      <trkpt lat="49.39693" lon="1.14442">
        <ele>102.04</ele>
        <time>2013-05-05T10:23:28Z</time>
      </trkpt>
      <trkpt lat="49.39701" lon="1.14403">
        <ele>99.15</ele>
        <time>2013-05-05T10:23:32Z</time>
      </trkpt>
      <trkpt lat="49.39715" lon="1.14336">
        <ele>95.79</ele>
        <time>2013-05-05T10:23:38Z</time>
      </trkpt>
      <trkpt lat="49.39716" lon="1.14274">
        <ele>92.42</ele>
        <time>2013-05-05T10:23:43Z</time>
      </trkpt>
      <trkpt lat="49.39715" lon="1.14247">
        <ele>90.5</ele>
        <time>2013-05-05T10:23:45Z</time>
      </trkpt>
      <trkpt lat="49.39714" lon="1.14191">
        <ele>87.14</ele>
        <time>2013-05-05T10:23:49Z</time>
      </trkpt>
      <trkpt lat="49.39711" lon="1.14164">
        <ele>85.69</ele>
        <time>2013-05-05T10:23:51Z</time>
      </trkpt>
      <trkpt lat="49.39708" lon="1.1414">
        <ele>83.29</ele>
        <time>2013-05-05T10:23:53Z</time>
      </trkpt>
      <trkpt lat="49.39691" lon="1.14101">
        <ele>82.33</ele>
        <time>2013-05-05T10:23:57Z</time>
      </trkpt>
      <trkpt lat="49.3968" lon="1.14087">
        <ele>82.33</ele>
        <time>2013-05-05T10:23:59Z</time>
      </trkpt>
      <trkpt lat="49.39667" lon="1.14066">
        <ele>81.37</ele>
        <time>2013-05-05T10:24:02Z</time>
      </trkpt>
      <trkpt lat="49.39659" lon="1.14033">
        <ele>80.41</ele>
        <time>2013-05-05T10:24:06Z</time>
      </trkpt>
      <trkpt lat="49.39661" lon="1.13974">
        <ele>78</ele>
        <time>2013-05-05T10:24:12Z</time>
      </trkpt>
      <trkpt lat="49.39665" lon="1.13963">
        <ele>77.52</ele>
        <time>2013-05-05T10:24:13Z</time>
      </trkpt>
      <trkpt lat="49.39676" lon="1.13932">
        <ele>72.72</ele>
        <time>2013-05-05T10:24:16Z</time>
      </trkpt>
      <trkpt lat="49.3969" lon="1.13891">
        <ele>71.27</ele>
        <time>2013-05-05T10:24:20Z</time>
      </trkpt>
      <trkpt lat="49.39699" lon="1.13861">
        <ele>70.79</ele>
        <time>2013-05-05T10:24:23Z</time>
      </trkpt>
      <trkpt lat="49.39707" lon="1.13843">
        <ele>71.27</ele>
        <time>2013-05-05T10:24:25Z</time>
      </trkpt>
      <trkpt lat="49.39722" lon="1.13823">
        <ele>69.83</ele>
        <time>2013-05-05T10:24:28Z</time>
      </trkpt>
      <trkpt lat="49.39767" lon="1.13793">
        <ele>65.99</ele>
        <time>2013-05-05T10:24:35Z</time>
      </trkpt>
      <trkpt lat="49.3979" lon="1.13781">
        <ele>64.07</ele>
        <time>2013-05-05T10:24:41Z</time>
      </trkpt>
      <trkpt lat="49.39792" lon="1.13779">
        <ele>64.07</ele>
        <time>2013-05-05T10:24:42Z</time>
      </trkpt>
      <trkpt lat="49.39794" lon="1.13776">
        <ele>63.58</ele>
        <time>2013-05-05T10:24:43Z</time>
      </trkpt>
      <trkpt lat="49.39796" lon="1.13774">
        <ele>63.58</ele>
        <time>2013-05-05T10:24:44Z</time>
      </trkpt>
      <trkpt lat="49.39799" lon="1.13772">
        <ele>63.58</ele>
        <time>2013-05-05T10:24:45Z</time>
      </trkpt>
      <trkpt lat="49.39801" lon="1.1377">
        <ele>63.58</ele>
        <time>2013-05-05T10:24:46Z</time>
      </trkpt>
      <trkpt lat="49.39805" lon="1.13769">
        <ele>63.58</ele>
        <time>2013-05-05T10:24:47Z</time>
      </trkpt>
      <trkpt lat="49.39808" lon="1.13768">
        <ele>63.1</ele>
        <time>2013-05-05T10:24:48Z</time>
      </trkpt>
      <trkpt lat="49.39811" lon="1.13765">
        <ele>63.1</ele>
        <time>2013-05-05T10:24:49Z</time>
      </trkpt>
      <trkpt lat="49.39814" lon="1.13761">
        <ele>63.1</ele>
        <time>2013-05-05T10:24:50Z</time>
      </trkpt>
      <trkpt lat="49.39816" lon="1.13756">
        <ele>63.1</ele>
        <time>2013-05-05T10:24:51Z</time>
      </trkpt>
      <trkpt lat="49.39819" lon="1.13752">
        <ele>62.62</ele>
        <time>2013-05-05T10:24:52Z</time>
      </trkpt>
      <trkpt lat="49.39823" lon="1.13748">
        <ele>62.62</ele>
        <time>2013-05-05T10:24:53Z</time>
      </trkpt>
      <trkpt lat="49.39827" lon="1.13746">
        <ele>62.14</ele>
        <time>2013-05-05T10:24:54Z</time>
      </trkpt>
      <trkpt lat="49.39831" lon="1.13744">
        <ele>62.14</ele>
        <time>2013-05-05T10:24:55Z</time>
      </trkpt>
      <trkpt lat="49.39836" lon="1.13741">
        <ele>62.14</ele>
        <time>2013-05-05T10:24:56Z</time>
      </trkpt>
      <trkpt lat="49.39841" lon="1.13737">
        <ele>61.66</ele>
        <time>2013-05-05T10:24:57Z</time>
      </trkpt>
      <trkpt lat="49.39865" lon="1.13717">
        <ele>59.74</ele>
        <time>2013-05-05T10:25:02Z</time>
      </trkpt>
      <trkpt lat="49.39871" lon="1.13714">
        <ele>59.74</ele>
        <time>2013-05-05T10:25:03Z</time>
      </trkpt>
      <trkpt lat="49.39876" lon="1.13711">
        <ele>59.26</ele>
        <time>2013-05-05T10:25:04Z</time>
      </trkpt>
      <trkpt lat="49.39881" lon="1.13707">
        <ele>58.78</ele>
        <time>2013-05-05T10:25:05Z</time>
      </trkpt>
      <trkpt lat="49.39886" lon="1.13704">
        <ele>58.3</ele>
        <time>2013-05-05T10:25:06Z</time>
      </trkpt>
      <trkpt lat="49.39889" lon="1.137">
        <ele>57.82</ele>
        <time>2013-05-05T10:25:07Z</time>
      </trkpt>
      <trkpt lat="49.39892" lon="1.13693">
        <ele>57.34</ele>
        <time>2013-05-05T10:25:08Z</time>
      </trkpt>
      <trkpt lat="49.39893" lon="1.13686">
        <ele>57.34</ele>
        <time>2013-05-05T10:25:09Z</time>
      </trkpt>
      <trkpt lat="49.39894" lon="1.1368">
        <ele>57.34</ele>
        <time>2013-05-05T10:25:10Z</time>
      </trkpt>
      <trkpt lat="49.39903" lon="1.13629">
        <ele>60.22</ele>
        <time>2013-05-05T10:25:20Z</time>
      </trkpt>
      <trkpt lat="49.39907" lon="1.13608">
        <ele>61.66</ele>
        <time>2013-05-05T10:25:25Z</time>
      </trkpt>
      <trkpt lat="49.39909" lon="1.13605">
        <ele>61.66</ele>
        <time>2013-05-05T10:25:26Z</time>
      </trkpt>
      <trkpt lat="49.3991" lon="1.13601">
        <ele>62.14</ele>
        <time>2013-05-05T10:25:27Z</time>
      </trkpt>
      <trkpt lat="49.39911" lon="1.13598">
        <ele>62.14</ele>
        <time>2013-05-05T10:25:28Z</time>
      </trkpt>
      <trkpt lat="49.39913" lon="1.13594">
        <ele>62.14</ele>
        <time>2013-05-05T10:25:29Z</time>
      </trkpt>
      <trkpt lat="49.39915" lon="1.13592">
        <ele>62.14</ele>
        <time>2013-05-05T10:25:30Z</time>
      </trkpt>
      <trkpt lat="49.39948" lon="1.13569">
        <ele>63.58</ele>
        <time>2013-05-05T10:25:41Z</time>
      </trkpt>
      <trkpt lat="49.39983" lon="1.13534">
        <ele>63.58</ele>
        <time>2013-05-05T10:25:53Z</time>
      </trkpt>
      <trkpt lat="49.39984" lon="1.13528">
        <ele>63.58</ele>
        <time>2013-05-05T10:25:54Z</time>
      </trkpt>
      <trkpt lat="49.39985" lon="1.13521">
        <ele>63.58</ele>
        <time>2013-05-05T10:25:55Z</time>
      </trkpt>
      <trkpt lat="49.39985" lon="1.13515">
        <ele>63.58</ele>
        <time>2013-05-05T10:25:56Z</time>
      </trkpt>
      <trkpt lat="49.39986" lon="1.13502">
        <ele>63.58</ele>
        <time>2013-05-05T10:25:58Z</time>
      </trkpt>
      <trkpt lat="49.39988" lon="1.13496">
        <ele>63.1</ele>
        <time>2013-05-05T10:25:59Z</time>
      </trkpt>
      <trkpt lat="49.39989" lon="1.1349">
        <ele>63.1</ele>
        <time>2013-05-05T10:26:00Z</time>
      </trkpt>
      <trkpt lat="49.3999" lon="1.13483">
        <ele>63.1</ele>
        <time>2013-05-05T10:26:01Z</time>
      </trkpt>
      <trkpt lat="49.39989" lon="1.13476">
        <ele>62.62</ele>
        <time>2013-05-05T10:26:02Z</time>
      </trkpt>
      <trkpt lat="49.39987" lon="1.13471">
        <ele>63.1</ele>
        <time>2013-05-05T10:26:03Z</time>
      </trkpt>
      <trkpt lat="49.39984" lon="1.13469">
        <ele>63.1</ele>
        <time>2013-05-05T10:26:04Z</time>
      </trkpt>
      <trkpt lat="49.3998" lon="1.13467">
        <ele>63.1</ele>
        <time>2013-05-05T10:26:05Z</time>
      </trkpt>
      <trkpt lat="49.39968" lon="1.13466">
        <ele>65.03</ele>
        <time>2013-05-05T10:26:10Z</time>
      </trkpt>
      <trkpt lat="49.39966" lon="1.13466">
        <ele>65.51</ele>
        <time>2013-05-05T10:26:11Z</time>
      </trkpt>
      <trkpt lat="49.39965" lon="1.13465">
        <ele>65.51</ele>
        <time>2013-05-05T10:26:12Z</time>
      </trkpt>
      <trkpt lat="49.39963" lon="1.13465">
        <ele>65.99</ele>
        <time>2013-05-05T10:26:13Z</time>
      </trkpt>
      <trkpt lat="49.39962" lon="1.13465">
        <ele>65.99</ele>
        <time>2013-05-05T10:26:14Z</time>
      </trkpt>
      <trkpt lat="49.3996" lon="1.13464">
        <ele>66.47</ele>
        <time>2013-05-05T10:26:15Z</time>
      </trkpt>
      <trkpt lat="49.39942" lon="1.13461">
        <ele>69.35</ele>
        <time>2013-05-05T10:26:28Z</time>
      </trkpt>
      <trkpt lat="49.39939" lon="1.13461">
        <ele>69.83</ele>
        <time>2013-05-05T10:26:30Z</time>
      </trkpt>
      <trkpt lat="49.39938" lon="1.1346">
        <ele>70.31</ele>
        <time>2013-05-05T10:26:31Z</time>
      </trkpt>
      <trkpt lat="49.39936" lon="1.13459">
        <ele>70.79</ele>
        <time>2013-05-05T10:26:32Z</time>
      </trkpt>
      <trkpt lat="49.39935" lon="1.13458">
        <ele>70.79</ele>
        <time>2013-05-05T10:26:33Z</time>
      </trkpt>
      <trkpt lat="49.39934" lon="1.13456">
        <ele>70.79</ele>
        <time>2013-05-05T10:26:34Z</time>
      </trkpt>
      <trkpt lat="49.39933" lon="1.13455">
        <ele>71.27</ele>
        <time>2013-05-05T10:26:35Z</time>
      </trkpt>
      <trkpt lat="49.39932" lon="1.13454">
        <ele>71.27</ele>
        <time>2013-05-05T10:26:36Z</time>
      </trkpt>
      <trkpt lat="49.3993" lon="1.13454">
        <ele>71.76</ele>
        <time>2013-05-05T10:26:37Z</time>
      </trkpt>
      <trkpt lat="49.39923" lon="1.13452">
        <ele>72.72</ele>
        <time>2013-05-05T10:26:42Z</time>
      </trkpt>
      <trkpt lat="49.39917" lon="1.13442">
        <ele>74.16</ele>
        <time>2013-05-05T10:26:48Z</time>
      </trkpt>
      <trkpt lat="49.39914" lon="1.1344">
        <ele>74.64</ele>
        <time>2013-05-05T10:26:50Z</time>
      </trkpt>
      <trkpt lat="49.39912" lon="1.1344">
        <ele>75.12</ele>
        <time>2013-05-05T10:26:51Z</time>
      </trkpt>
      <trkpt lat="49.39911" lon="1.1344">
        <ele>75.12</ele>
        <time>2013-05-05T10:26:52Z</time>
      </trkpt>
      <trkpt lat="49.39909" lon="1.13439">
        <ele>75.12</ele>
        <time>2013-05-05T10:26:53Z</time>
      </trkpt>
      <trkpt lat="49.39907" lon="1.13438">
        <ele>75.6</ele>
        <time>2013-05-05T10:26:54Z</time>
      </trkpt>
      <trkpt lat="49.39906" lon="1.13437">
        <ele>75.6</ele>
        <time>2013-05-05T10:26:55Z</time>
      </trkpt>
      <trkpt lat="49.39905" lon="1.13436">
        <ele>75.6</ele>
        <time>2013-05-05T10:26:56Z</time>
      </trkpt>
      <trkpt lat="49.39903" lon="1.13434">
        <ele>75.6</ele>
        <time>2013-05-05T10:26:57Z</time>
      </trkpt>
      <trkpt lat="49.39902" lon="1.13431">
        <ele>76.08</ele>
        <time>2013-05-05T10:26:58Z</time>
      </trkpt>
      <trkpt lat="49.39902" lon="1.13429">
        <ele>76.08</ele>
        <time>2013-05-05T10:26:59Z</time>
      </trkpt>
      <trkpt lat="49.39902" lon="1.13426">
        <ele>76.08</ele>
        <time>2013-05-05T10:27:00Z</time>
      </trkpt>
      <trkpt lat="49.39902" lon="1.13423">
        <ele>76.08</ele>
        <time>2013-05-05T10:27:01Z</time>
      </trkpt>
      <trkpt lat="49.39903" lon="1.1342">
        <ele>76.08</ele>
        <time>2013-05-05T10:27:02Z</time>
      </trkpt>
      <trkpt lat="49.39907" lon="1.13364">
        <ele>76.56</ele>
        <time>2013-05-05T10:27:16Z</time>
      </trkpt>
      <trkpt lat="49.39908" lon="1.13359">
        <ele>76.56</ele>
        <time>2013-05-05T10:27:17Z</time>
      </trkpt>
      <trkpt lat="49.39908" lon="1.13352">
        <ele>75.6</ele>
        <time>2013-05-05T10:27:18Z</time>
      </trkpt>
      <trkpt lat="49.39909" lon="1.13345">
        <ele>75.6</ele>
        <time>2013-05-05T10:27:19Z</time>
      </trkpt>
      <trkpt lat="49.3991" lon="1.13338">
        <ele>75.12</ele>
        <time>2013-05-05T10:27:20Z</time>
      </trkpt>
      <trkpt lat="49.39911" lon="1.1333">
        <ele>74.64</ele>
        <time>2013-05-05T10:27:21Z</time>
      </trkpt>
      <trkpt lat="49.39913" lon="1.13298">
        <ele>73.2</ele>
        <time>2013-05-05T10:27:26Z</time>
      </trkpt>
      <trkpt lat="49.39912" lon="1.13294">
        <ele>73.2</ele>
        <time>2013-05-05T10:27:27Z</time>
      </trkpt>
      <trkpt lat="49.39913" lon="1.1329">
        <ele>73.2</ele>
        <time>2013-05-05T10:27:28Z</time>
      </trkpt>
      <trkpt lat="49.39913" lon="1.13287">
        <ele>73.2</ele>
        <time>2013-05-05T10:27:29Z</time>
      </trkpt>
      <trkpt lat="49.39912" lon="1.13283">
        <ele>73.2</ele>
        <time>2013-05-05T10:27:30Z</time>
      </trkpt>
      <trkpt lat="49.39911" lon="1.1328">
        <ele>73.2</ele>
        <time>2013-05-05T10:27:31Z</time>
      </trkpt>
      <trkpt lat="49.39908" lon="1.13279">
        <ele>73.2</ele>
        <time>2013-05-05T10:27:32Z</time>
      </trkpt>
      <trkpt lat="49.39906" lon="1.13279">
        <ele>73.2</ele>
        <time>2013-05-05T10:27:33Z</time>
      </trkpt>
      <trkpt lat="49.39905" lon="1.1328">
        <ele>73.68</ele>
        <time>2013-05-05T10:27:34Z</time>
      </trkpt>
      <trkpt lat="49.39903" lon="1.13281">
        <ele>74.16</ele>
        <time>2013-05-05T10:27:35Z</time>
      </trkpt>
      <trkpt lat="49.39901" lon="1.13282">
        <ele>74.64</ele>
        <time>2013-05-05T10:27:36Z</time>
      </trkpt>
      <trkpt lat="49.39899" lon="1.13284">
        <ele>74.64</ele>
        <time>2013-05-05T10:27:37Z</time>
      </trkpt>
      <trkpt lat="49.39898" lon="1.13286">
        <ele>75.12</ele>
        <time>2013-05-05T10:27:38Z</time>
      </trkpt>
      <trkpt lat="49.39881" lon="1.13299">
        <ele>78</ele>
        <time>2013-05-05T10:27:49Z</time>
      </trkpt>
      <trkpt lat="49.39863" lon="1.13306">
        <ele>81.37</ele>
        <time>2013-05-05T10:28:01Z</time>
      </trkpt>
      <trkpt lat="49.39861" lon="1.13306">
        <ele>81.37</ele>
        <time>2013-05-05T10:28:13Z</time>
      </trkpt>
      <trkpt lat="49.39859" lon="1.13309">
        <ele>82.33</ele>
        <time>2013-05-05T10:28:29Z</time>
      </trkpt>
      <trkpt lat="49.39858" lon="1.13311">
        <ele>81.37</ele>
        <time>2013-05-05T10:28:44Z</time>
      </trkpt>
      <trkpt lat="49.39858" lon="1.1331">
        <ele>81.85</ele>
        <time>2013-05-05T10:29:15Z</time>
      </trkpt>
      <trkpt lat="49.39856" lon="1.13307">
        <ele>82.33</ele>
        <time>2013-05-05T10:29:35Z</time>
      </trkpt>
      <trkpt lat="49.39854" lon="1.1331">
        <ele>82.81</ele>
        <time>2013-05-05T10:29:38Z</time>
      </trkpt>
      <trkpt lat="49.39846" lon="1.1332">
        <ele>86.18</ele>
        <time>2013-05-05T10:29:53Z</time>
      </trkpt>
      <trkpt lat="49.39838" lon="1.13329">
        <ele>89.54</ele>
        <time>2013-05-05T10:30:07Z</time>
      </trkpt>
      <trkpt lat="49.39833" lon="1.13336">
        <ele>91.46</ele>
        <time>2013-05-05T10:30:16Z</time>
      </trkpt>
      <trkpt lat="49.3983" lon="1.13355">
        <ele>94.35</ele>
        <time>2013-05-05T10:30:32Z</time>
      </trkpt>
      <trkpt lat="49.3983" lon="1.13355">
        <ele>94.35</ele>
        <time>2013-05-05T10:30:34Z</time>
      </trkpt>
      <trkpt lat="49.39827" lon="1.1338">
        <ele>97.71</ele>
        <time>2013-05-05T10:30:50Z</time>
      </trkpt>
      <trkpt lat="49.39824" lon="1.13399">
        <ele>100.6</ele>
        <time>2013-05-05T10:31:05Z</time>
      </trkpt>
      <trkpt lat="49.39817" lon="1.1342">
        <ele>102.52</ele>
        <time>2013-05-05T10:31:19Z</time>
      </trkpt>
      <trkpt lat="49.39802" lon="1.13431">
        <ele>105.4</ele>
        <time>2013-05-05T10:31:35Z</time>
      </trkpt>
      <trkpt lat="49.39793" lon="1.13438">
        <ele>107.81</ele>
        <time>2013-05-05T10:31:46Z</time>
      </trkpt>
      <trkpt lat="49.39784" lon="1.13441">
        <ele>110.21</ele>
        <time>2013-05-05T10:32:00Z</time>
      </trkpt>
      <trkpt lat="49.39779" lon="1.13442">
        <ele>111.65</ele>
        <time>2013-05-05T10:32:15Z</time>
      </trkpt>
      <trkpt lat="49.39766" lon="1.13441">
        <ele>114.53</ele>
        <time>2013-05-05T10:32:29Z</time>
      </trkpt>
      <trkpt lat="49.39753" lon="1.13442">
        <ele>117.42</ele>
        <time>2013-05-05T10:32:46Z</time>
      </trkpt>
      <trkpt lat="49.39746" lon="1.13442">
        <ele>118.38</ele>
        <time>2013-05-05T10:33:07Z</time>
      </trkpt>
      <trkpt lat="49.39733" lon="1.13448">
        <ele>120.3</ele>
        <time>2013-05-05T10:33:21Z</time>
      </trkpt>
      <trkpt lat="49.39721" lon="1.13456">
        <ele>121.74</ele>
        <time>2013-05-05T10:33:36Z</time>
      </trkpt>
      <trkpt lat="49.39706" lon="1.13466">
        <ele>123.19</ele>
        <time>2013-05-05T10:33:50Z</time>
      </trkpt>
      <trkpt lat="49.39686" lon="1.13487">
        <ele>124.63</ele>
        <time>2013-05-05T10:34:02Z</time>
      </trkpt>
      <trkpt lat="49.39658" lon="1.13516">
        <ele>127.03</ele>
        <time>2013-05-05T10:34:16Z</time>
      </trkpt>
      <trkpt lat="49.39631" lon="1.13542">
        <ele>128.47</ele>
        <time>2013-05-05T10:34:28Z</time>
      </trkpt>
      <trkpt lat="49.39607" lon="1.13579">
        <ele>128.47</ele>
        <time>2013-05-05T10:34:40Z</time>
      </trkpt>
      <trkpt lat="49.39577" lon="1.13626">
        <ele>128.47</ele>
        <time>2013-05-05T10:34:52Z</time>
      </trkpt>
      <trkpt lat="49.39543" lon="1.13672">
        <ele>130.88</ele>
        <time>2013-05-05T10:35:03Z</time>
      </trkpt>
      <trkpt lat="49.39509" lon="1.13714">
        <ele>132.32</ele>
        <time>2013-05-05T10:35:14Z</time>
      </trkpt>
      <trkpt lat="49.39481" lon="1.13754">
        <ele>133.76</ele>
        <time>2013-05-05T10:35:25Z</time>
      </trkpt>
      <trkpt lat="49.39446" lon="1.13815">
        <ele>136.64</ele>
        <time>2013-05-05T10:35:39Z</time>
      </trkpt>
      <trkpt lat="49.39423" lon="1.13872">
        <ele>138.57</ele>
        <time>2013-05-05T10:35:53Z</time>
      </trkpt>
      <trkpt lat="49.39399" lon="1.1392">
        <ele>140.01</ele>
        <time>2013-05-05T10:36:05Z</time>
      </trkpt>
      <trkpt lat="49.39366" lon="1.13953">
        <ele>142.41</ele>
        <time>2013-05-05T10:36:19Z</time>
      </trkpt>
      <trkpt lat="49.39334" lon="1.13993">
        <ele>143.85</ele>
        <time>2013-05-05T10:36:33Z</time>
      </trkpt>
      <trkpt lat="49.39314" lon="1.14049">
        <ele>145.3</ele>
        <time>2013-05-05T10:36:47Z</time>
      </trkpt>
      <trkpt lat="49.39287" lon="1.1414">
        <ele>145.78</ele>
        <time>2013-05-05T10:37:05Z</time>
      </trkpt>
      <trkpt lat="49.39269" lon="1.14211">
        <ele>146.74</ele>
        <time>2013-05-05T10:37:19Z</time>
      </trkpt>
      <trkpt lat="49.39253" lon="1.14268">
        <ele>147.22</ele>
        <time>2013-05-05T10:37:32Z</time>
      </trkpt>
      <trkpt lat="49.39235" lon="1.14328">
        <ele>147.7</ele>
        <time>2013-05-05T10:37:45Z</time>
      </trkpt>
      <trkpt lat="49.39214" lon="1.14377">
        <ele>147.7</ele>
        <time>2013-05-05T10:37:57Z</time>
      </trkpt>
      <trkpt lat="49.39174" lon="1.14439">
        <ele>148.18</ele>
        <time>2013-05-05T10:38:12Z</time>
      </trkpt>
      <trkpt lat="49.39167" lon="1.14455">
        <ele>148.18</ele>
        <time>2013-05-05T10:38:17Z</time>
      </trkpt>
      <trkpt lat="49.39163" lon="1.1446">
        <ele>148.18</ele>
        <time>2013-05-05T10:38:20Z</time>
      </trkpt>
      <trkpt lat="49.39161" lon="1.14461">
        <ele>148.18</ele>
        <time>2013-05-05T10:38:21Z</time>
      </trkpt>
      <trkpt lat="49.39158" lon="1.14461">
        <ele>148.18</ele>
        <time>2013-05-05T10:38:22Z</time>
      </trkpt>
      <trkpt lat="49.39143" lon="1.14461">
        <ele>147.7</ele>
        <time>2013-05-05T10:38:26Z</time>
      </trkpt>
      <trkpt lat="49.39139" lon="1.14462">
        <ele>147.7</ele>
        <time>2013-05-05T10:38:27Z</time>
      </trkpt>
      <trkpt lat="49.39135" lon="1.14462">
        <ele>147.7</ele>
        <time>2013-05-05T10:38:28Z</time>
      </trkpt>
      <trkpt lat="49.39062" lon="1.14469">
        <ele>147.22</ele>
        <time>2013-05-05T10:38:43Z</time>
      </trkpt>
      <trkpt lat="49.39057" lon="1.14468">
        <ele>147.22</ele>
        <time>2013-05-05T10:38:44Z</time>
      </trkpt>
      <trkpt lat="49.39052" lon="1.14467">
        <ele>147.22</ele>
        <time>2013-05-05T10:38:45Z</time>
      </trkpt>
      <trkpt lat="49.39048" lon="1.14465">
        <ele>146.74</ele>
        <time>2013-05-05T10:38:46Z</time>
      </trkpt>
      <trkpt lat="49.39043" lon="1.14461">
        <ele>146.74</ele>
        <time>2013-05-05T10:38:47Z</time>
      </trkpt>
      <trkpt lat="49.3904" lon="1.14456">
        <ele>146.74</ele>
        <time>2013-05-05T10:38:48Z</time>
      </trkpt>
      <trkpt lat="49.39037" lon="1.14449">
        <ele>147.22</ele>
        <time>2013-05-05T10:38:49Z</time>
      </trkpt>
      <trkpt lat="49.39034" lon="1.14441">
        <ele>146.74</ele>
        <time>2013-05-05T10:38:50Z</time>
      </trkpt>
      <trkpt lat="49.38989" lon="1.14316">
        <ele>145.3</ele>
        <time>2013-05-05T10:39:06Z</time>
      </trkpt>
      <trkpt lat="49.38945" lon="1.14179">
        <ele>143.37</ele>
        <time>2013-05-05T10:39:22Z</time>
      </trkpt>
      <trkpt lat="49.38932" lon="1.1414">
        <ele>142.89</ele>
        <time>2013-05-05T10:39:29Z</time>
      </trkpt>
      <trkpt lat="49.38928" lon="1.14125">
        <ele>142.41</ele>
        <time>2013-05-05T10:39:31Z</time>
      </trkpt>
      <trkpt lat="49.38925" lon="1.14117">
        <ele>142.41</ele>
        <time>2013-05-05T10:39:32Z</time>
      </trkpt>
      <trkpt lat="49.38921" lon="1.14101">
        <ele>142.41</ele>
        <time>2013-05-05T10:39:34Z</time>
      </trkpt>
      <trkpt lat="49.38904" lon="1.14037">
        <ele>140.97</ele>
        <time>2013-05-05T10:39:42Z</time>
      </trkpt>
      <trkpt lat="49.38903" lon="1.14032">
        <ele>140.97</ele>
        <time>2013-05-05T10:39:43Z</time>
      </trkpt>
      <trkpt lat="49.38899" lon="1.14028">
        <ele>140.97</ele>
        <time>2013-05-05T10:39:44Z</time>
      </trkpt>
      <trkpt lat="49.38896" lon="1.14028">
        <ele>140.97</ele>
        <time>2013-05-05T10:39:45Z</time>
      </trkpt>
      <trkpt lat="49.38889" lon="1.14033">
        <ele>140.97</ele>
        <time>2013-05-05T10:39:47Z</time>
      </trkpt>
      <trkpt lat="49.38856" lon="1.14061">
        <ele>142.41</ele>
        <time>2013-05-05T10:39:58Z</time>
      </trkpt>
      <trkpt lat="49.3886" lon="1.14075">
        <ele>142.89</ele>
        <time>2013-05-05T10:40:10Z</time>
      </trkpt>
      <trkpt lat="49.3886" lon="1.14077">
        <ele>142.89</ele>
        <time>2013-05-05T10:40:13Z</time>
      </trkpt>
      <trkpt lat="49.38855" lon="1.14083">
        <ele>143.37</ele>
        <time>2013-05-05T10:40:23Z</time>
      </trkpt>
      <trkpt lat="49.38855" lon="1.14081">
        <ele>142.89</ele>
        <time>2013-05-05T10:40:40Z</time>
      </trkpt>
      <trkpt lat="49.38852" lon="1.14071">
        <ele>142.89</ele>
        <time>2013-05-05T10:41:14Z</time>
      </trkpt>
      <trkpt lat="49.38851" lon="1.14069">
        <ele>142.89</ele>
        <time>2013-05-05T10:41:40Z</time>
      </trkpt>
      <trkpt lat="49.3885" lon="1.14069">
        <ele>142.41</ele>
        <time>2013-05-05T10:42:20Z</time>
      </trkpt>
      <trkpt lat="49.38853" lon="1.14076">
        <ele>142.41</ele>
        <time>2013-05-05T10:42:56Z</time>
      </trkpt>
      <trkpt lat="49.38854" lon="1.14078">
        <ele>142.41</ele>
        <time>2013-05-05T10:43:29Z</time>
      </trkpt>
      <trkpt lat="49.38854" lon="1.1407">
        <ele>142.89</ele>
        <time>2013-05-05T10:44:02Z</time>
      </trkpt>
      <trkpt lat="49.38855" lon="1.14071">
        <ele>142.89</ele>
        <time>2013-05-05T10:44:43Z</time>
      </trkpt>
      <trkpt lat="49.38847" lon="1.14064">
        <ele>142.89</ele>
        <time>2013-05-05T10:45:18Z</time>
      </trkpt>
      <trkpt lat="49.38853" lon="1.1407">
        <ele>142.89</ele>
        <time>2013-05-05T10:45:34Z</time>
      </trkpt>
    </trkseg>
  </trk>
</gpx>